.

MPMG - Transparência

Contracheque - Verbas indenizatórias e outras remunerações temporárias - Tabela III (Resolução nº 200/2019) - Pós Resolução CNMP 200/2019

Período: 2023 - Agosto

Ordem Matrícula Nome Cargo Lotação Verbas Indenizatórias *1 Outras Remunerações Temporárias *2 Data de Referência
Auxílio Alimentação Auxílio Creche Auxílio Saúde Auxílio Transporte Estagiário Indenizações Indenizações e Diligênias Adicionais de Periculosidade e Insalubridade Gratificações Outras Remunerações
1 498900 ABDON MARCIO BARBOSA DA SILVA OFICIAL DO MP ABRE CAMPO - COMARCA; ABRE CAMPO-PJ-01PJ 1.500,00 0,00 605,00 0,00 0,00 479,25 0,00 0,00 527,16 31/08/2023
2 293600 ABELARDO GUIMARAES CASTRO PROMOT.ENTRANC.ESPECIAL BELO HORIZONTE - COMARCA; BH-18PJ VIOLENCIA DOMESTICA-GAB 044PJ 1.500,00 0,00 3.571,05 0,00 47.613,95 0,00 0,00 0,00 545,58 31/08/2023
3 1617300 ABNER DE MARCOS NEVES ESTAGIARIO BELO HORIZONTE; DSMT-LABORATORIO DE MANUTENCAO 0,00 0,00 0,00 0,00 0,00 0,00 0,00 0,00 125,00 31/08/2023
4 1636200 ABRAAO SANTANA DOMINGOS ESTAGIARIO BELO HORIZONTE; COORD DE INCLUSAO E MOBILIZACAO SOCIAIS 0,00 0,00 0,00 228,00 0,00 0,00 0,00 0,00 0,00 31/08/2023
5 99200 ADALBERTO DE PAULA CHRISTO LEITE PROMOT.ENTRANC.ESPECIAL SÃO JOÃO DEL REI - COMARCA; SAO JOAO DEL REI-PJ-02PJ 1.500,00 0,00 3.571,05 0,00 0,00 0,00 0,00 0,00 0,00 31/08/2023
6 177800 ADALBERTO MENEZES FARIA SAMORA OFICIAL DO MP BELO HORIZONTE - COMARCA; DIRET DE PLANOS PROJETOS E PROGRAMAS INST 1.500,00 0,00 605,00 0,00 0,00 0,00 0,00 0,00 0,00 31/08/2023
7 306400 ADALBERTO MOREIRA GONCALVES ANALISTA DO MP BELO HORIZONTE - COMARCA; BH-24PJ JUIZO REG BARREIRO-SECRETARIA 1.500,00 0,00 605,00 0,00 0,00 0,00 0,00 0,00 0,00 31/08/2023
8 100400 ADELAIDE CRISTINA DE CARVALHO MACHADO PROCURADOR DE JUSTICA BELO HORIZONTE - COMARCA; GABINETE DE PROCURADOR DE JUSTIÇA - SALA 708 1.500,00 0,00 1.445,00 0,00 24.048,01 0,00 0,00 0,00 734,80 31/08/2023
9 96500 ADELIA LAGE DE OLIVEIRA PROCURADOR DE JUSTICA BELO HORIZONTE - COMARCA; GABINETE DE PROCURADOR DE JUSTIÇA - SALA 403 1.500,00 0,00 1.576,36 0,00 24.048,01 0,00 0,00 0,00 734,80 31/08/2023
10 49200 ADEMAR PEREIRA PROMOTOR 2A ENTRANCIA MACHADO - COMARCA; MACHADO-PJ-01PJ 1.500,00 0,00 3.392,49 0,00 8.016,00 0,00 0,00 0,00 734,80 31/08/2023
11 179300 ADENISE AUXILIADORA SOUZA SAD OFICIAL DO MP BARBACENA - COMARCA; BARBACENA-PJ-06PJ 1.500,00 0,00 605,00 0,00 0,00 0,00 0,00 0,00 0,00 31/08/2023
12 272200 ADILSON BATISTA ORNELAS OFICIAL DO MP LAVRAS - COMARCA; LAVRAS-PJ-SECRETARIA 1.500,00 0,00 605,00 0,00 0,00 0,00 0,00 0,00 604,34 31/08/2023
13 143000 ADILSON DE OLIVEIRA NASCIMENTO PROCURADOR DE JUSTICA BELO HORIZONTE - COMARCA; GABINETE DE PROCURADOR DE JUSTIÇA - SALA 614 1.500,00 0,00 3.599,35 0,00 20.825,46 0,00 0,00 0,00 636,33 31/08/2023
14 380100 ADILSON GONCALVES DE MELO JUNIOR ANALISTA DO MP ARAXÁ - COMARCA; ARAXA-PJ-05PJ 1.500,00 0,00 605,00 0,00 0,00 0,00 0,00 0,00 0,00 31/08/2023
15 148800 ADILSON JANUARIO OFICIAL DO MP BELO HORIZONTE - COMARCA; BH-22PJ PES COM DEF E IDOSOS-SECRETARIA 1.500,00 0,00 605,00 0,00 3.470,82 0,00 0,00 0,00 318,16 31/08/2023
16 322601 ADMILSON SILVEIRA ANALISTA DO MP SAO JOAO DO PARAISO COMARCA; SAO JOAO DO PARAISO-PJ-UNPJ 1.500,00 950,00 605,00 0,00 0,00 0,00 0,00 0,00 858,16 31/08/2023
17 1673100 ADRIA PATRICIA SIMAO DE OLIVEIRA SANTOS ESTAGIARIO BELO HORIZONTE; BH-09PJ AUDITORIA MILITAR-GAB 075PJ 0,00 0,00 0,00 60,00 0,00 0,00 0,00 0,00 0,00 31/08/2023
18 333700 ADRIANA ABRITTA TEIXEIRA OFICIAL DO MP BELO HORIZONTE - COMARCA; DIRET DE PESSOAL DO MINISTERIO PUBLICO - DPMP 1.500,00 0,00 605,00 0,00 0,00 0,00 0,00 0,00 993,57 31/08/2023
19 1359300 ADRIANA ANTUNES DOS REIS ESTAGIARIO CONTAGEM; CONTAGEM-PJ-07PJ 0,00 0,00 0,00 192,00 0,00 0,00 0,00 0,00 0,00 31/08/2023
20 468500 ADRIANA APARECIDA FIRMINO ANALISTA DO MP CARATINGA - COMARCA; CARATINGA-PJ-04PJ 1.500,00 0,00 605,00 0,00 0,00 0,00 0,00 0,00 771,49 31/08/2023
21 326100 ADRIANA AUGUSTA AMARAL BELO OFICIAL DO MP BARBACENA - COMARCA; BARBACENA-PJ-05PJ 1.500,00 0,00 605,00 0,00 0,00 0,00 0,00 0,00 993,57 31/08/2023
22 363000 ADRIANA CARVALHO PEREIRA E SILVA COSTA PROMOTOR 2A ENTRANCIA ALÉM PARAÍBA - COMARCA; ALEM PARAIBA-PJ-02PJ 1.500,00 0,00 3.073,90 0,00 0,00 0,00 0,00 0,00 0,00 31/08/2023
23 605700 ADRIANA COSTA LIRA OFICIAL DO MP BELO HORIZONTE - COMARCA; CAO-EDUCACAO 1.500,00 0,00 605,00 0,00 0,00 0,00 0,00 0,00 755,37 31/08/2023
24 1597300 ADRIANA CRISTINA DE CARVALHO ESTAGIARIO SANTA RITA DE CALDAS; SANTA RITA DE CALDAS-PJ-UNPJ 0,00 0,00 0,00 252,00 0,00 0,00 0,00 0,00 0,00 31/08/2023
25 541100 ADRIANA CRISTINA DE OLIVEIRA OFICIAL DO MP EXTREMA - COMARCA; EXTREMA-PJ-01PJ 1.500,00 1.520,00 605,00 0,00 0,00 0,00 0,00 0,00 633,54 31/08/2023
26 254800 ADRIANA DAS GRACAS FERNANDES ANALISTA DO MP UBERABA - COMARCA; UBERABA-PJ-07PJ 1.500,00 0,00 605,00 0,00 0,00 0,00 0,00 0,00 33,84 31/08/2023
27 217400 ADRIANA DE CARVALHO CATAO BRAGA ASSESSOR ADMINISTRATIVO III BELO HORIZONTE - COMARCA; DIV FISCAL ADM CONT TERCEIRIZACAO 1.500,00 0,00 605,00 0,00 0,00 0,00 0,00 0,00 770,87 31/08/2023
28 434600 ADRIANA FERREIRA DA SILVA ANALISTA DO MP BELO HORIZONTE - COMARCA; BH-14PJ DEFESA CONSUMIDOR-GAB 112PJ 1.500,00 0,00 605,00 0,00 0,00 0,00 0,00 0,00 0,00 31/08/2023
29 499800 ADRIANA FERREIRA TIAGO OFICIAL DO MP SALINAS - COMARCA; SALINAS-PJ-02PJ 1.500,00 950,00 605,00 0,00 0,00 0,00 0,00 0,00 561,75 31/08/2023
30 543400 ADRIANA GUIMARAES NUNES DE PAULA ANALISTA DO MP PATROCÍNIO - COMARCA; PATROCINIO-PJ-01PJ 1.500,00 950,00 605,00 0,00 1.508,94 0,00 0,00 0,00 751,36 31/08/2023
31 471500 ADRIANA HORTA DE CARVALHO RODRIGUES DE SOUSA ANALISTA DO MP BELO HORIZONTE - COMARCA; GRUPO ESP PROM JUST DEF PROB ADM PAT PUB 1.500,00 0,00 605,00 0,00 0,00 0,00 0,00 0,00 732,43 31/08/2023
32 314300 ADRIANA JULIA DE SOUZA PROMOT.ENTRANC.ESPECIAL BELO HORIZONTE - COMARCA; BH-26 CRIME CONT CRIAN ADOL-GAB 169PJ 1.500,00 950,00 3.571,05 0,00 21.426,28 0,00 0,00 0,00 545,58 31/08/2023
33 1471700 ADRIANA MARTINS DE ALBUQUERQUE ESTAGIARIO BELO HORIZONTE; BH-12PJ JUIZO CRIMINAL-GAB 100PJ 0,00 0,00 0,00 228,00 0,00 0,00 0,00 0,00 0,00 31/08/2023
34 86400 ADRIANA MOREIRA CALDEIRA BRANT OFICIAL DO MP BELO HORIZONTE - COMARCA; BH-21PJ TUTELA FUNDACOES-SECRETARIA 1.500,00 0,00 605,00 0,00 0,00 0,00 0,00 0,00 2.134,65 31/08/2023
35 480700 ADRIANA MOREIRA DE AVELLAR CEZILIO OFICIAL DO MP BELO HORIZONTE - COMARCA; BH-12PJ JUIZO CRIMINAL-SECRETARIA 1.500,00 0,00 605,00 0,00 0,00 0,00 0,00 0,00 486,37 31/08/2023
36 326000 ADRIANA PEREIRA CARNEIRO RESENDE OFICIAL DO MP BELO HORIZONTE - COMARCA; BH-25PJ DEFESA DA EDUCACAO-SECRETARIA 1.500,00 0,00 605,00 0,00 0,00 0,00 0,00 0,00 905,30 31/08/2023
37 502200 ADRIANA PETRUCCI DAVINA OFICIAL DO MP PATROCÍNIO - COMARCA; PATROCINIO-PJ-01PJ 1.500,00 950,00 605,00 0,00 0,00 0,00 0,00 0,00 0,00 31/08/2023
38 685200 ADRIANA PRATES DOS SANTOS PROMOTOR SUBSTITUTO CARMO DO PARANAÍBA - COMARCA; CARMO DO PARANAIBA-PJ-02PJ 1.500,00 0,00 867,00 0,00 29.005,83 0,00 0,00 0,00 492,38 31/08/2023
39 201900 ADRIANA REIS PIMENTA OFICIAL DO MP TEÓFILO OTONI - COMARCA; TEOFILO OTONI-PJ-03PJ 1.500,00 0,00 605,00 0,00 410,67 0,00 0,00 0,00 2.091,01 31/08/2023
40 278700 ADRIANA RODRIGUES PINTO COELHO AMARAL ANALISTA DO MP BELO HORIZONTE - COMARCA; CGMP-DIR ESTAGIO PROBATORIO E ORIENT 1.500,00 0,00 605,00 0,00 0,00 0,00 0,00 0,00 0,00 31/08/2023
41 468000 ADRIANA SANTOS DE SANTANA MOREIRA ANALISTA DO MP GOVERNADOR VALADARES - COMARCA; GAECO REGIONAL DE GOVERNADOR VALADARES 1.500,00 0,00 605,00 0,00 0,00 0,00 0,00 0,00 1.069,96 31/08/2023
42 290900 ADRIANA TORRES BECK PROMOT.ENTRANC.ESPECIAL BELO HORIZONTE - COMARCA; BH-23PJ INFRACIONAL-GAB COOPJ 1.500,00 0,00 3.571,05 0,00 5.951,74 0,00 0,00 0,00 0,00 31/08/2023
43 194700 ADRIANA TSUKIDE OFICIAL DO MP UBERABA - COMARCA; COORD REG BACIAS PARANAIBA BAIXO RIO GRANDE 1.500,00 0,00 605,00 0,00 5.749,43 0,00 0,00 0,00 527,03 31/08/2023
44 291500 ADRIANA VITAL DO VALLE PROMOT.ENTRANC.ESPECIAL SÃO JOÃO DEL REI - COMARCA; SAO JOAO DEL REI-PJ-06PJ 1.500,00 0,00 3.571,05 0,00 41.662,20 0,00 0,00 0,00 0,00 31/08/2023
45 212900 ADRIANO ARANTES BOZOLA PROMOT.ENTRANC.ESPECIAL UBERLÂNDIA - COMARCA; UBERLANDIA-PJ-21PJ 1.500,00 0,00 3.571,05 0,00 18.885,89 0,00 0,00 0,00 577,07 31/08/2023
46 174200 ADRIANO BOTELHO ESTRELA PROMOT.ENTRANC.ESPECIAL BELO HORIZONTE - COMARCA; BH-12PJ JUIZO CRIMINAL-GAB 095PJ 1.500,00 0,00 2.056,08 0,00 21.244,32 0,00 0,00 0,00 608,56 31/08/2023
47 465500 ADRIANO CASSIANO MATOS ANALISTA DO MP ARAXÁ - COMARCA; ARAXA-PJ-02PJ 1.500,00 0,00 605,00 0,00 0,00 0,00 0,00 0,00 936,40 31/08/2023
48 500500 ADRIANO DE ALMEIDA SILVA OFICIAL DO MP UBERABA - COMARCA; UBERABA-PJ-12PJ 1.500,00 950,00 605,00 0,00 0,00 0,00 0,00 0,00 0,00 31/08/2023
49 187200 ADRIANO DE FREITAS MARON OFICIAL DO MP PONTE NOVA - COMARCA; PONTE NOVA-PJ-03PJ 1.500,00 0,00 605,00 0,00 0,00 0,00 0,00 0,00 0,00 31/08/2023
50 344000 ADRIANO DUTRA GOMES DE FARIA PROMOT.ENTRANC.ESPECIAL VESPASIANO - COMARCA; VESPASIANO-PJ-04PJ 1.500,00 0,00 3.571,05 0,00 47.613,94 0,00 0,00 0,00 545,58 31/08/2023
51 477900 ADRIANO FERREIRA DE ALMEIDA OFICIAL DO MP TAIOBEIRAS - COMARCA; TAIOBEIRAS-PJ-UNPJ 1.500,00 0,00 605,00 0,00 0,00 756,15 0,00 0,00 0,00 31/08/2023
52 269101 ADRIANO PEREIRA SILVA ANALISTA DO MP UBERABA - COMARCA; UBERABA-PJ-02PJ 1.500,00 0,00 605,00 0,00 0,00 0,00 0,00 0,00 917,17 31/08/2023
53 414200 ADRIANO RODRIGUES FERNANDES ANALISTA DO MP CARANDAÍ - COMARCA; CARANDAI-PJ-UNPJ 1.500,00 0,00 605,00 0,00 0,00 0,00 0,00 0,00 827,55 31/08/2023
54 715300 ADRIANO SCHER DORNELAS 2O. SARGENTO BELO HORIZONTE - COMARCA; NUCLEO DE COMBATE AOS CRIMES AMBIENTAIS 1.500,00 0,00 0,00 0,00 0,00 0,00 0,00 0,00 0,00 31/08/2023
55 536700 ADRIELLE COSTA MARIA MOURAO FIGUEIREDO OFICIAL DO MP SERRO - COMARCA; SERRO-PJ-SECRETARIA 1.500,00 950,00 605,00 0,00 0,00 0,00 0,00 0,00 462,77 31/08/2023
56 1570400 ADRIELLEN ALVES ARAUJO ESTAGIARIO MONTES CLAROS; MONTES CLAROS-PJ-14PJ 0,00 0,00 0,00 252,00 0,00 0,00 0,00 0,00 0,00 31/08/2023
57 1500100 ADRIELLY BIANQUY ALVES DA SILVA ESTAGIARIO LAJINHA; LAJINHA-PJ-UNPJ 0,00 0,00 0,00 252,00 0,00 0,00 0,00 0,00 0,00 31/08/2023
58 514300 ADRIENE DAMASCENO BRAGA ANALISTA DO MP ALFENAS - COMARCA; ALFENAS-PJ-03PJ 1.500,00 0,00 605,00 0,00 0,00 0,00 0,00 0,00 936,61 31/08/2023
59 254600 ADRIENE DOMINGUES COSTA ANALISTA DO MP BELO HORIZONTE - COMARCA; SUPER DE GESTAO DE PESSOAS-LOTACAO TEMPORARIA
60 252001 ADRIENE GOMES BARRETO ANALISTA DO MP BELO HORIZONTE - COMARCA; BH-19PJ SAUDE-SECRETARIA 047PJ 1.500,00 0,00 605,00 0,00 0,00 0,00 0,00 0,00 0,00 31/08/2023
61 84100 ADROALDO JUNQUEIRA AYRES NETO PROMOT.ENTRANC.ESPECIAL UBERABA - COMARCA; UBERABA-PJ-12PJ 1.500,00 0,00 3.571,05 0,00 6.412,80 0,00 0,00 0,00 0,00 31/08/2023
62 714800 ADSON GUSTAVO DE OLIVEIRA ASSESSOR PROCURADOR JUSTICA BELO HORIZONTE - COMARCA; GABINETE DE PROCURADOR DE JUSTIÇA - SALA 803 1.500,00 0,00 605,00 0,00 0,00 0,00 0,00 0,00 424,25 31/08/2023
63 724600 AECIO BRAS SILVA JUNIOR ASSESSOR PROMOTOR JUSTICA BAMBUÍ - COMARCA; BAMBUI-PJ-UNPJ 1.500,00 0,00 605,00 0,00 0,00 0,00 0,00 0,00 402,14 31/08/2023
64 162700 AECIO RABELO PROMOTOR 2A ENTRANCIA LAVRAS - COMARCA; LAVRAS-PJ-04PJ 1.500,00 0,00 3.179,00 0,00 23.922,13 0,00 0,00 0,00 548,22 31/08/2023
65 97600 AFONSO HENRIQUE DE MIRANDA TEIXEIRA PROCURADOR DE JUSTICA BELO HORIZONTE - COMARCA; CAO-CONFLITOS AGRARIOS 1.500,00 0,00 3.021,36 0,00 24.048,01 0,00 0,00 0,00 734,80 31/08/2023
66 1517000 AFRANIO HENRIQUE PIMENTA BITTENCOURT ESTAGIARIO BOCAIUVA; BOCAIUVA-PJ-03PJ 0,00 0,00 0,00 228,00 0,00 0,00 0,00 0,00 0,00 31/08/2023
67 610000 AGENOR ANDRADE LEAO PROMOT.ENTRANC.ESPECIAL TEÓFILO OTONI - COMARCA; TEOFILO OTONI-PJ-05PJ 1.500,00 0,00 3.571,05 0,00 47.613,94 0,00 0,00 0,00 545,58 31/08/2023
68 302500 AGENOR JOSE DA SILVA JUNIOR ANALISTA DO MP JUIZ DE FORA - COMARCA; JUIZ DE FORA-PJ-07PJ 1.500,00 950,00 605,00 0,00 0,00 0,00 0,00 0,00 0,00 31/08/2023
69 344100 AGNALDO LUCAS COTRIM PROMOT.ENTRANC.ESPECIAL POUSO ALEGRE - COMARCA; POUSO ALEGRE-PJ-02PJ 1.500,00 0,00 3.335,56 0,00 47.613,95 0,00 0,00 0,00 545,58 31/08/2023
70 67400 AIDA FERNANDES LISBOA MARINHO PROCURADOR DE JUSTICA BELO HORIZONTE - COMARCA; GABINETE DE PROCURADOR DE JUSTIÇA - SALA 604 1.500,00 0,00 3.759,00 0,00 24.048,01 0,00 0,00 0,00 734,80 31/08/2023
71 1575900 AILA TAMIRES DA COSTA ESTAGIARIO POUSO ALEGRE; POUSO ALEGRE-PJ-04PJ 0,00 0,00 0,00 252,00 0,00 0,00 0,00 0,00 0,00 31/08/2023
72 1561000 AILANA LAUREN DE PAIVA MATA ESTAGIARIO MIRADOURO; MIRADOURO-PJ-UNPJ 0,00 0,00 0,00 240,00 0,00 0,00 0,00 0,00 0,00 31/08/2023
73 357500 AILSON WAGNER DE ALENCAR SILVA OFICIAL DO MP BELO HORIZONTE - COMARCA; BH-12PJ JUIZO CRIMINAL-SECRETARIA 1.500,00 0,00 605,00 0,00 0,00 0,00 0,00 0,00 0,00 31/08/2023
74 366400 AILTON ALEXSSANDRO ALVES OFICIAL DO MP PARÁ DE MINAS - COMARCA; PARA DE MINAS-PJ-05PJ 1.500,00 0,00 605,00 0,00 0,00 0,00 0,00 0,00 0,00 31/08/2023
75 318900 AILTON DE CASTRO RIBEIRO JUNIOR OFICIAL DO MP CANDEIAS - COMARCA; CANDEIAS-PJ-UNPJ 1.500,00 0,00 605,00 0,00 0,00 0,00 0,00 0,00 993,57 31/08/2023
76 533100 AIMARA DE BRITTO DIAS LEITE CABALEIRO PROMOTOR SUBSTITUTO BELO HORIZONTE - COMARCA; BH-02PJ FAMILIA-GAB 014PJ 1.500,00 0,00 3.222,87 0,00 11.817,19 0,00 0,00 0,00 492,38 31/08/2023
77 439100 AIRTON BATISTA COSTA NETO NEPOMUCENO PROMOTOR 2A ENTRANCIA ITUIUTABA - COMARCA; ITUIUTABA-PJ-04PJ 1.500,00 950,00 3.392,49 0,00 45.233,25 0,00 0,00 0,00 518,30 31/08/2023
78 341600 ALAM BAENA BERTOLLA DOS SANTOS PROMOTOR 2A ENTRANCIA ARAGUARI - COMARCA; ARAGUARI-PJ-05PJ 1.500,00 0,00 3.360,95 0,00 50.887,41 0,00 0,00 0,00 518,30 31/08/2023
79 175700 ALAN CARRIJO RAMOS PROMOTOR 1A ENTRANCIA PRATÁPOLIS - COMARCA; PRATAPOLIS-PJ-UNPJ 1.500,00 0,00 3.222,87 0,00 17.044,51 0,00 0,00 0,00 520,80 31/08/2023
80 1638100 ALAN FAGNER XAVIER BATISTA ESTAGIARIO JUIZ DE FORA; JUIZ DE FORA-PJ-11PJ 0,00 0,00 0,00 252,00 0,00 0,00 0,00 0,00 0,00 31/08/2023
81 1577200 ALAN FELIPE GUIMARAES MOREIRA ESTAGIARIO SETE LAGOAS; SETE LAGOAS-PJ-05PJ 0,00 0,00 0,00 192,00 0,00 0,00 0,00 0,00 0,00 31/08/2023
82 464400 ALAN MONTEIRO GASPAR ANALISTA DO MP SETE LAGOAS - COMARCA; SETE LAGOAS-PJ-08PJ 1.500,00 0,00 605,00 0,00 0,00 0,00 0,00 0,00 917,17 31/08/2023
83 1591400 ALANA BARCELOS DA ROCHA ESTAGIARIO SANTA LUZIA; SANTA LUZIA-PJ-07PJ 0,00 0,00 0,00 228,00 0,00 0,00 0,00 0,00 0,00 31/08/2023
84 492000 ALANA DE CASTRO FREITAS OFICIAL DO MP BELO HORIZONTE - COMARCA; SECRETARIA DO PROCON-MG 1.500,00 0,00 605,00 0,00 0,00 0,00 0,00 0,00 499,84 31/08/2023
85 306700 ALANA MARCIA DE OLIVEIRA OFICIAL DO MP BELO HORIZONTE - COMARCA; DIRETORIA DE ADMINISTRACAO FINANCEIRA 1.500,00 0,00 605,00 0,00 0,00 0,00 0,00 0,00 993,57 31/08/2023
86 1523000 ALANA REZENDE BELTRAME ESTAGIARIO DIVINOPOLIS; DIVINOPOLIS-PJ-05PJ 0,00 0,00 0,00 252,00 0,00 0,00 0,00 0,00 0,00 31/08/2023
87 324500 ALANMAR COUTINHO COSTA OFICIAL DO MP LEOPOLDINA - COMARCA; LEOPOLDINA-PJ-02PJ 1.500,00 0,00 605,00 0,00 0,00 0,00 0,00 0,00 993,57 31/08/2023
88 170800 ALBERTO BOGLIOLO SIRIHAL PROCURADOR DE JUSTICA BELO HORIZONTE - COMARCA; GABINETE DE PROCURADOR DE JUSTIÇA - SALA 414 1.500,00 950,00 3.759,00 0,00 27.767,28 0,00 0,00 0,00 636,33 31/08/2023
89 407300 ALBERTO LUIZ SOARES DE OLIVEIRA ANALISTA DO MP BELO HORIZONTE - COMARCA; DIRETORIA DE PROJETOS DE EDIFICACOES 1.500,00 0,00 605,00 0,00 0,00 0,00 0,00 0,00 0,00 31/08/2023
90 118200 ALBERTO PEREIRA DA COSTA OFICIAL DO MP DORES DO INDAIÁ - COMARCA; DORES DO INDAIA-PJ-UNPJ 1.500,00 0,00 605,00 0,00 3.470,83 0,00 0,00 0,00 318,16 31/08/2023
91 72000 ALBINO VITORIO BERNARDO PROCURADOR DE JUSTICA BELO HORIZONTE - COMARCA; GABINETE DE PROCURADOR DE JUSTIÇA - SALA 710 1.500,00 0,00 1.576,36 0,00 24.048,01 0,00 0,00 0,00 734,80 31/08/2023
92 660700 ALCIDEZIO JOSE DE OLIVEIRA BISPO JUNIOR PROMOT.ENTRANC.ESPECIAL CARATINGA - COMARCA; CARATINGA-PJ-01PJ 1.500,00 950,00 3.571,05 0,00 47.613,95 0,00 0,00 0,00 545,58 31/08/2023
93 282400 ALCILENE MARISE DE ARAUJO ANALISTA DO MP BELO HORIZONTE - COMARCA; BH-23PJ INF-FISC MED SOC FEC 1.500,00 0,00 605,00 0,00 5.998,28 0,00 0,00 0,00 549,84 31/08/2023
94 396400 ALCIONE DE FREITAS E SILVA ANALISTA DO MP BELO HORIZONTE - COMARCA; ASSESS JUR DO CONS SUPERIOR DO MINISTERIO PUB 1.500,00 0,00 605,00 0,00 0,00 0,00 0,00 0,00 0,00 31/08/2023
95 657400 ALCIONE MARIA FERREIRA ASSESSOR PROCURADOR JUSTICA BELO HORIZONTE - COMARCA; GABINETE DE PROCURADOR DE JUSTIÇA - SALA 610 1.500,00 950,00 605,00 0,00 0,00 0,00 0,00 0,00 435,76 31/08/2023
96 161600 ALCIONE NERY SOUZA ASSESSOR ADMINISTRATIVO III BELO HORIZONTE - COMARCA; BH-18PJ DIREITOS HUMANOS-SECRETARIA 1.500,00 0,00 605,00 0,00 0,00 0,00 0,00 0,00 800,31 31/08/2023
97 92000 ALCIR ARANTES PROMOT.ENTRANC.ESPECIAL UBERABA - COMARCA; UBERABA-PJ-03PJ 1.500,00 0,00 3.152,72 0,00 24.048,01 0,00 0,00 0,00 734,80 31/08/2023
98 376000 ALDA GOMES LANA OFICIAL DO MP BELO HORIZONTE - COMARCA; BH-18PJ VIOLENCIA DOMESTICA-SECRETARIA 1.500,00 0,00 605,00 0,00 0,00 0,00 0,00 0,00 0,00 31/08/2023
99 148000 ALDA MARTINS SIMOES OFICIAL DO MP BELO HORIZONTE - COMARCA; BH-23PJ CIVEL- FISC ENT AB POL 1.500,00 0,00 605,00 0,00 0,00 0,00 0,00 0,00 0,00 31/08/2023
100 457700 ALDERICO DE CARVALHO JUNIOR PROMOTOR 2A ENTRANCIA BELO HORIZONTE - COMARCA; PROC JUST ATUACAO TRIBUNAIS SUPERIORES-GAB002 1.500,00 0,00 3.392,49 0,00 50.887,41 0,00 0,00 0,00 518,30 31/08/2023
101 318400 ALDO CREPALDI JUNIOR OFICIAL DO MP BELO HORIZONTE - COMARCA; DIVISAO DE MATERIAIS 1.500,00 0,00 605,00 0,00 0,00 0,00 0,00 0,00 993,57 31/08/2023
102 1434100 ALECSANDER CARDOSO ESTAGIARIO ANDRADAS; ANDRADAS-PJ-02PJ 0,00 0,00 0,00 252,00 0,00 0,00 0,00 0,00 0,00 31/08/2023
103 604500 ALENIZE APARECIDA RODRIGUES HENRIQUE OFICIAL DO MP RIO NOVO - COMARCA; RIO NOVO-PJ-SECRETARIA 1.500,00 0,00 605,00 0,00 0,00 0,00 0,00 0,00 483,69 31/08/2023
104 1663400 ALESANDY DOS SANTOS FERNANDES ESTAGIARIO IPATINGA; IPATINGA-PJ-04PJ 0,00 0,00 0,00 204,00 0,00 0,00 0,00 0,00 0,00 31/08/2023
105 197900 ALESSA DE SOUSA E SILVA OFICIAL DO MP OLIVEIRA - COMARCA; OLIVEIRA-PJ-02PJ 1.500,00 0,00 605,00 0,00 5.977,03 0,00 0,00 0,00 547,89 31/08/2023
106 428500 ALESSANDRA ALVES DINIZ OFICIAL DO MP BELO HORIZONTE - COMARCA; CENTRAL DE APOIO TECNICO-SECRETARIA 1.500,00 0,00 605,00 0,00 0,00 0,00 0,00 0,00 0,00 31/08/2023
107 1464000 ALESSANDRA BORGES GONCALVES ESTAGIARIO ITUIUTABA; ITUIUTABA-PJ-06PJ 0,00 0,00 0,00 156,00 0,00 0,00 0,00 0,00 0,00 31/08/2023
108 286801 ALESSANDRA BOTELHO JUNQUEIRA DE MENEZES ANALISTA DO MP PASSOS - COMARCA; PASSOS-PJ-05PJ 1.500,00 950,00 605,00 0,00 0,00 0,00 0,00 0,00 0,00 31/08/2023
109 307000 ALESSANDRA CRISTINA SANTOS MENDES ANALISTA DO MP BELO HORIZONTE - COMARCA; BH-18PJ VIOLENCIA DOMESTICA-SECRETARIA 1.500,00 0,00 605,00 0,00 0,00 0,00 0,00 0,00 0,00 31/08/2023
110 264400 ALESSANDRA DE SOUZA SANTOS ANALISTA DO MP BELO HORIZONTE - COMARCA; SECRETARIA DE ASSUNTOS INTERNACIONAIS 1.500,00 0,00 605,00 0,00 0,00 0,00 0,00 0,00 0,00 31/08/2023
111 717700 ALESSANDRA DIAS DE OLIVEIRA COSTA PROMOTOR SUBSTITUTO JACINTO - COMARCA; JACINTO-PJ-UNPJ 1.500,00 0,00 2.316,50 0,00 29.005,83 0,00 0,00 0,00 492,38 31/08/2023
112 441500 ALESSANDRA DRUMMOND DE FIGUEIREDO ROSSI ANALISTA DO MP BELO HORIZONTE - COMARCA; DIRETORIA DE PROJETOS DE EDIFICACOES 1.500,00 0,00 605,00 0,00 0,00 0,00 0,00 0,00 752,00 31/08/2023
113 524000 ALESSANDRA LUCIOLI DE BARROS GUERRA ANALISTA DO MP BELO HORIZONTE - COMARCA; BH-19PJ SAUDE--SECRETARIA 1.500,00 0,00 605,00 0,00 0,00 0,00 0,00 0,00 892,41 31/08/2023
114 479900 ALESSANDRA MARA ANDRADE DE FARIA OFICIAL DO MP UBERABA - COMARCA; UBERABA-PJ-09PJ 1.500,00 0,00 605,00 0,00 0,00 0,00 0,00 0,00 0,00 31/08/2023
115 226700 ALESSANDRA MARA VASCONCELOS REZENDE OFICIAL DO MP CONSELHEIRO LAFAIETE - COMARCA; CONSELHEIRO LAFAIETE-PJ-07PJ 1.500,00 0,00 605,00 0,00 0,00 0,00 0,00 0,00 0,00 31/08/2023
116 196500 ALESSANDRA MARIA RIBEIRO LUCIANO OFICIAL DO MP RIO PARANAÍBA - COMARCA; RIO PARANAIBA-PJ-UNPJ 1.500,00 0,00 605,00 0,00 0,00 0,00 0,00 0,00 0,00 31/08/2023
117 290500 ALESSANDRA PINTO CASSIANO PROMOTOR 2A ENTRANCIA BOA ESPERANÇA - COMARCA; BOA ESPERANCA-PJ-02PJ 1.500,00 0,00 1.628,90 0,00 45.233,25 0,00 0,00 0,00 518,30 31/08/2023
118 651700 ALESSANDRA PROFIRIO SOUZA OFICIAL DO MP NOVA ERA - COMARCA; NOVA ERA-PJ-UNPJ 1.500,00 0,00 605,00 0,00 0,00 0,00 0,00 0,00 323,75 31/08/2023
119 384900 ALESSANDRA RODRIGUES ANALISTA DO MP VISCONDE DO RIO BRANCO - COMARCA; VISCONDE DO RIO BRANCO-PJ-03PJ 1.500,00 950,00 605,00 0,00 0,00 0,00 0,00 0,00 0,00 31/08/2023
120 390000 ALESSANDRA SPADANO MASSARA VASCONCELOS OFICIAL DO MP BETIM - COMARCA; BETIM-PJ-10PJ 1.500,00 0,00 605,00 0,00 0,00 0,00 0,00 0,00 0,00 31/08/2023
121 1373300 ALESSANDRA VIEIRA RODRIGUES ESTAGIARIO MONTES CLAROS; MONTES CLAROS-PJ-07PJ 0,00 0,00 0,00 240,00 0,00 0,00 0,00 0,00 0,00 31/08/2023
122 426500 ALESSANDRO CAMPOS DE PAIVA ANALISTA DO MP BELO HORIZONTE - COMARCA; DIR CRIACAO E MIDIAS 1.500,00 0,00 605,00 0,00 0,00 0,00 0,00 0,00 0,00 31/08/2023
123 623400 ALESSANDRO DE OLIVEIRA REZENDE ANALISTA DO MP BELO HORIZONTE - COMARCA; DIRET DE INFORMACAO E CONHECIMENTO-DINC/CEAF 1.500,00 0,00 605,00 0,00 0,00 0,00 0,00 0,00 704,22 31/08/2023
124 174100 ALESSANDRO GARCIA SILVA PROMOT.ENTRANC.ESPECIAL DIVINÓPOLIS - COMARCA; DIVINOPOLIS-PJ-12PJ 1.500,00 0,00 2.942,55 0,00 14.458,09 0,00 0,00 0,00 602,42 31/08/2023
125 308201 ALESSANDRO RAMOS MACHADO PROMOTOR 2A ENTRANCIA CAMBUÍ - COMARCA; CAMBUI-PJ-02PJ 1.500,00 0,00 3.392,49 0,00 45.233,26 0,00 0,00 0,00 518,30 31/08/2023
126 665700 ALESSANDRO ROGERIO DIAS DE OLIVEIRA PROMOT.ENTRANC.ESPECIAL PATOS DE MINAS - COMARCA; PATOS DE MINAS-PJ-07PJ 1.500,00 1.900,00 2.873,45 0,00 20.235,93 0,00 0,00 0,00 545,58 31/08/2023
127 420600 ALESSANDRO SILVA OFICIAL DO MP VISCONDE DO RIO BRANCO - COMARCA; VISCONDE DO RIO BRANCO-PJ-02PJ 1.500,00 0,00 605,00 0,00 0,00 0,00 0,00 0,00 0,00 31/08/2023
128 171100 ALESSIA ALVES DE ALVARENGA SANTA BARBARA PROMOT.ENTRANC.ESPECIAL CONSELHEIRO LAFAIETE - COMARCA; CONSELHEIRO LAFAIETE-PJ-06PJ 1.500,00 0,00 3.571,05 0,00 19.813,48 0,00 0,00 0,00 605,41 31/08/2023
129 375301 ALETHEIA PATRICIA ASSIS MORAIS MOREIRA ANALISTA DO MP ITABIRA - COMARCA; ITABIRA-PJ-02PJ 1.500,00 950,00 605,00 0,00 0,00 0,00 0,00 0,00 840,79 31/08/2023
130 382300 ALEX CARVALHO LIMA ANALISTA DO MP UBERLÂNDIA - COMARCA; UBERLANDIA-PJ-14PJ 1.500,00 950,00 605,00 0,00 0,00 0,00 0,00 0,00 0,00 31/08/2023
131 195201 ALEX DE CASTRO PEREIRA ANALISTA DO MP UBERABA - COMARCA; UBERABA-PJ-09PJ 1.500,00 0,00 605,00 0,00 0,00 0,00 0,00 0,00 0,00 31/08/2023
132 358900 ALEX DE PAULA LANZA ASSESSOR ADMINISTRATIVO IV BELO HORIZONTE - COMARCA; DIR CONTEUDO JORNALISTICO 1.500,00 950,00 605,00 0,00 0,00 0,00 0,00 0,00 692,77 31/08/2023
133 171400 ALEX FERNANDES SANTIAGO PROMOT.ENTRANC.ESPECIAL JUIZ DE FORA - COMARCA; JUIZ DE FORA-PJ-08PJ 1.500,00 950,00 2.784,91 0,00 13.208,98 0,00 0,00 0,00 0,00 31/08/2023
134 685300 ALEX RAFAEL BITTENCOURT PROMOTOR SUBSTITUTO LEOPOLDINA - COMARCA; LEOPOLDINA-PJ-04PJ 1.500,00 0,00 919,55 0,00 42.971,59 0,00 0,00 0,00 492,38 31/08/2023
135 178400 ALEX RODRIGO SALDANHA GUIMARAES OFICIAL DO MP BELO HORIZONTE - COMARCA; DIRETORIA DE SISTEMAS DE INFORMACAO 1.500,00 0,00 605,00 0,00 0,00 0,00 0,00 0,00 506,01 31/08/2023
136 314100 ALEX SOARES NACIF PROMOT.ENTRANC.ESPECIAL CONTAGEM - COMARCA; CONTAGEM-PJ-15PJ 1.500,00 0,00 1.208,55 0,00 47.613,95 0,00 0,00 0,00 545,58 31/08/2023
137 413500 ALEX VILELA OLIVEIRA ANALISTA DO MP GOVERNADOR VALADARES - COMARCA; COORD REG PJ DEF EDU DIR CRIANCA ADOL RIODOCE 1.500,00 0,00 605,00 0,00 0,00 0,00 0,00 0,00 0,00 31/08/2023
138 264300 ALEXANDRA FATIMA SARAIVA SOARES ANALISTA DO MP BELO HORIZONTE - COMARCA; CENTRAL DE APOIO TECN-SETOR DE MEIO AMBIENTE 1.500,00 0,00 605,00 0,00 0,00 0,00 0,00 0,00 0,00 31/08/2023
139 488000 ALEXANDRA LARA PAIS DE CARVALHO ANALISTA DO MP SABARÁ - COMARCA; SABARA-PJ-04PJ 1.500,00 0,00 605,00 0,00 0,00 0,00 0,00 0,00 917,17 31/08/2023
140 1539700 ALEXANDRA REALINA MENDES DE ARAUJO ESTAGIARIO RIBEIRAO DAS NEVES; RIBEIRAO DAS NEVES-PJ-05PJ 0,00 0,00 0,00 252,00 0,00 0,00 0,00 0,00 0,00 31/08/2023
141 256300 ALEXANDRA SANTOS GOMES OFICIAL DO MP BELO HORIZONTE - COMARCA; DIRETORIA GESTAO COMPRAS LICITACOES 1.500,00 0,00 605,00 0,00 0,00 0,00 0,00 0,00 782,09 31/08/2023
142 236300 ALEXANDRE ALVES DE OLIVEIRA PROMOT.ENTRANC.ESPECIAL BELO HORIZONTE - COMARCA; BH-12PJ JUIZO CRIMINAL-GAB 101PJ 1.500,00 0,00 1.208,55 0,00 6.278,12 0,00 0,00 0,00 575,49 31/08/2023
143 403300 ALEXANDRE AUGUSTO RODRIGUES ANALISTA DO MP ÁGUAS FORMOSAS - COMARCA; AGUAS FORMOSAS-PJ-UNPJ 1.500,00 1.900,00 605,00 0,00 0,00 0,00 0,00 0,00 1.947,59 31/08/2023
144 640900 ALEXANDRE BARBOSA MASCARENHAS ANALISTA DO MP BETIM - COMARCA; BETIM-PJ-02PJ 1.500,00 0,00 605,00 0,00 0,00 0,00 0,00 0,00 323,26 31/08/2023
145 311700 ALEXANDRE BARCELOS RESENDE OFICIAL DO MP BELO HORIZONTE - COMARCA; BH-17PJ PATRIMONIO PUBLICO-SECRETARIA 1.500,00 950,00 605,00 0,00 0,00 0,00 0,00 0,00 733,05 31/08/2023
146 293700 ALEXANDRE BRASILEIRO DE QUEIROZ PROMOT.ENTRANC.ESPECIAL BELO HORIZONTE - COMARCA; BH-12PJ JUIZO CRIMINAL-GAB 092PJ 1.500,00 0,00 3.571,05 0,00 47.613,94 0,00 0,00 0,00 545,58 31/08/2023
147 285600 ALEXANDRE CAMPOS DE OLIVEIRA OFICIAL DO MP UBERABA - COMARCA; COORD REG BACIAS PARANAIBA BAIXO RIO GRANDE 1.500,00 0,00 605,00 0,00 0,00 0,00 0,00 0,00 993,57 31/08/2023
148 509200 ALEXANDRE CAPUANO DE REZENDE ANALISTA DO MP BELO HORIZONTE - COMARCA; BH-07PJ 03 TRIBUNAL DO JURI-GAB 061PJ 1.500,00 0,00 605,00 0,00 0,00 0,00 0,00 0,00 713,23 31/08/2023
149 229400 ALEXANDRE CARLOS BOTREL SUPERINTENDENTE BELO HORIZONTE - COMARCA; SUPERINTENDENCIA DOS ORGAOS COLEGIADOS 1.500,00 0,00 605,00 0,00 0,00 0,00 0,00 0,00 -2.259,67 31/08/2023
150 411900 ALEXANDRE CARVALHO SANTOS RIBEIRO ANALISTA DO MP OLIVEIRA - COMARCA; OLIVEIRA-PJ-02PJ 1.500,00 950,00 605,00 0,00 0,00 0,00 0,00 0,00 0,00 31/08/2023
151 641600 ALEXANDRE DA SILVA ASSUNCAO OFICIAL DO MP BELO HORIZONTE - COMARCA; SERVICO MEDICO-DEPTO PERIC MEDICA SAUDE OCUP 1.500,00 950,00 605,00 0,00 0,00 0,00 0,00 0,00 436,92 31/08/2023
152 201200 ALEXANDRE DE ALENCAR CORDEIRO OFICIAL DO MP ÁGUAS FORMOSAS - COMARCA; AGUAS FORMOSAS-PJ-UNPJ 1.500,00 0,00 605,00 0,00 0,00 0,00 0,00 0,00 558,14 31/08/2023
153 288200 ALEXANDRE DE VASCONCELOS COSTA KER ANALISTA DO MP BELO HORIZONTE - COMARCA; BH-03PJ EMPRESARIAL-SECRETARIA 1.500,00 0,00 605,00 0,00 0,00 0,00 0,00 0,00 0,00 31/08/2023
154 445000 ALEXANDRE DIOGENES OLIVEIRA ANALISTA DO MP SALINAS - COMARCA; SALINAS-PJ-02PJ 1.500,00 1.900,00 605,00 0,00 0,00 0,00 0,00 0,00 55,33 31/08/2023
155 665800 ALEXANDRE FIGUEIREDO MORATO PROMOT.ENTRANC.ESPECIAL MANHUAÇU - COMARCA; MANHUACU-PJ-05PJ 1.500,00 0,00 867,00 0,00 0,00 0,00 0,00 0,00 0,00 31/08/2023
156 1444200 ALEXANDRE FURTADO DE MACEDO CASTRO ESTAGIARIO BELO HORIZONTE; BH-17PJ PATRIMONIO PUBLICO-GAB 120PJ 0,00 0,00 0,00 156,00 0,00 0,00 0,00 0,00 0,00 31/08/2023
157 1475100 ALEXANDRE LABOSSIERE DE ALMEIDA MUZZI ESTAGIARIO BELO HORIZONTE; DIVISAO DE MANUTENCAO PREDIAL 0,00 0,00 0,00 228,00 0,00 0,00 0,00 0,00 0,00 31/08/2023
158 463400 ALEXANDRE LEAL WINKELSTROTER ANALISTA DO MP TEÓFILO OTONI - COMARCA; TEOFILO OTONI-PJ-04PJ 1.500,00 0,00 605,00 0,00 0,00 0,00 0,00 0,00 794,91 31/08/2023
159 96600 ALEXANDRE LIBERO BARONI PROMOT.ENTRANC.ESPECIAL SETE LAGOAS - COMARCA; SETE LAGOAS-PJ-04PJ 1.500,00 0,00 3.546,81 0,00 20.792,60 0,00 0,00 0,00 635,33 31/08/2023
160 615700 ALEXANDRE LUIZ DE CASTRO MACIEL ANALISTA DO MP BELO HORIZONTE - COMARCA; BH-08PJ JUIZADO ESPECIAL-SECRETARIA 1.500,00 950,00 605,00 0,00 0,00 0,00 0,00 0,00 641,42 31/08/2023
161 356900 ALEXANDRE MOISES MENDONCA E ARAUJO OFICIAL DO MP UBERABA - COMARCA; UBERABA-PJ-13PJ 1.500,00 1.900,00 605,00 0,00 0,00 0,00 0,00 0,00 608,59 31/08/2023
162 232100 ALEXANDRE MOTTA BENEVIDES PROMOT.ENTRANC.ESPECIAL BELO HORIZONTE - COMARCA; BH-12PJ JUIZO CRIMINAL-GAB 094PJ 1.500,00 0,00 2.837,45 0,00 14.605,47 0,00 0,00 0,00 608,56 31/08/2023
163 633300 ALEXANDRE NONATO MARTINS OFICIAL DO MP IGARAPÉ - COMARCA; IGARAPE-PJ-02PJ 1.500,00 0,00 605,00 0,00 0,00 0,00 0,00 0,00 489,64 31/08/2023
164 469900 ALEXANDRE PEREIRA GUEDES ANALISTA DO MP CATAGUASES - COMARCA; CATAGUASES-PJ-03PJ 1.500,00 0,00 605,00 0,00 0,00 0,00 0,00 0,00 917,17 31/08/2023
165 208700 ALEXANDRE RESENDE FRAGA ANALISTA DO MP BELO HORIZONTE - COMARCA; BH-19PJ SAUDE-SECRETARIA 130PJ 1.500,00 0,00 605,00 0,00 0,00 0,00 0,00 0,00 0,00 31/08/2023
166 156900 ALEXANDRE REZENDE GRILLO PROMOTOR 2A ENTRANCIA SÃO GONÇALO DO SAPUCAÍ - COMARCA; SAO GONCALO DO SAPUCAI-PJ-02PJ 1.500,00 0,00 3.362,90 0,00 18.822,81 0,00 0,00 0,00 575,14 31/08/2023
167 216401 ALEXANDRE RIBEIRO DE LIMA MAIORINO ANALISTA DO MP UBERABA - COMARCA; UBERABA-PJ-03PJ 1.500,00 0,00 605,00 0,00 0,00 0,00 0,00 0,00 0,00 31/08/2023
168 475100 ALEXANDRE TEOTONIO COSTA ANALISTA DO MP ARAGUARI - COMARCA; ARAGUARI-PJ-01PJ 1.500,00 0,00 605,00 0,00 0,00 0,00 0,00 0,00 835,69 31/08/2023
169 339000 ALEXANDRE VITOR CARDOSO OFICIAL DO MP BELO HORIZONTE - COMARCA; BH-23PJ INFRACIONAL-SEC EXP 1.500,00 0,00 605,00 0,00 0,00 0,00 0,00 0,00 603,63 31/08/2023
170 694000 ALEXANDRO ANTONIO PORTO E SOUZA INVESTIGADOR DE POLICIA 2 BELO HORIZONTE - COMARCA; GAECO - SETOR POLICIAL CIVIL 1.500,00 0,00 0,00 0,00 0,00 0,00 0,00 0,00 0,00 31/08/2023
171 1674400 ALEXIA CARVALHO RAMOS ESTAGIARIO BELO HORIZONTE; BH-23PJ INFRACIONAL-GAB 142PJ 0,00 0,00 0,00 24,00 0,00 0,00 0,00 0,00 0,00 31/08/2023
172 1428500 ALEXIA ESTEFANIE ALVES LEANDRO ESTAGIARIO BELO HORIZONTE; BH-19PJ SAUDE-GAB 130PJ 0,00 0,00 0,00 132,00 0,00 0,00 0,00 0,00 0,00 31/08/2023
173 623100 ALEXSANDER BATISTA AGUIAR COORDENADOR II BELO HORIZONTE - COMARCA; DIRETORIA DE SUPORTE E MANUTENCAO 1.500,00 1.900,00 605,00 0,00 0,00 0,00 0,00 0,00 -773,93 31/08/2023
174 717800 ALEXSANDER SIQUEIRA SILVA PROMOTOR SUBSTITUTO JEQUITINHONHA - COMARCA; JEQUITINHONHA-PJ-UNPJ 1.500,00 0,00 1.734,00 0,00 25.782,96 0,00 0,00 0,00 492,38 31/08/2023
175 1481100 ALEXSANDRA GONCALVES DA SILVA ESTAGIARIO BELO HORIZONTE; CAO-FUNDACOES 0,00 0,00 0,00 216,00 0,00 0,00 0,00 0,00 0,00 31/08/2023
176 513300 ALFSON MIRANDA BRAGA ANALISTA DO MP BELO HORIZONTE - COMARCA; BH-12PJ JUIZO CRIMINAL-GAB 087PJ 1.500,00 0,00 605,00 0,00 0,00 0,00 0,00 0,00 710,09 31/08/2023
177 157000 ALI MAHMOUD FAYEZ AYOUB PROMOTOR 2A ENTRANCIA GUAXUPÉ - COMARCA; GUAXUPE-PJ-02PJ 1.500,00 0,00 3.392,49 0,00 18.822,81 0,00 0,00 0,00 575,14 31/08/2023
178 1449300 ALICE ANALIA DIAS FARIA ESTAGIARIO BELO HORIZONTE; BH-23PJ CIVEL-SETOR JURIDICO 0,00 0,00 0,00 204,00 0,00 0,00 0,00 0,00 0,00 31/08/2023
179 1524600 ALICE BRAGA MOREIRA DAVI ESTAGIARIO MERCES; MERCES-PJ-UNPJ 0,00 0,00 0,00 216,00 0,00 0,00 0,00 0,00 0,00 31/08/2023
180 1369100 ALICE DE FREITAS REZENDE TORRES ESTAGIARIO BELO HORIZONTE; GABINETE DE PROCURADOR DE JUSTIÇA - SALA 814
181 485300 ALICE DE MELLO VILELA PROMOT.ENTRANC.ESPECIAL CONTAGEM - COMARCA; CONTAGEM-PJ-06PJ 1.500,00 0,00 3.571,05 0,00 47.613,95 0,00 0,00 0,00 545,58 31/08/2023
182 1634100 ALICE DE MELO CAMPOS ESTAGIARIO CARATINGA; CARATINGA-PJ-05PJ 0,00 0,00 0,00 252,00 0,00 0,00 0,00 0,00 0,00 31/08/2023
183 1644100 ALICE LUIZA RODRIGUES DIAS ESTAGIARIO BELO HORIZONTE; DIR CRIACAO E MIDIAS 0,00 0,00 0,00 204,00 0,00 0,00 0,00 0,00 0,00 31/08/2023
184 618400 ALICE MAGALHAES MACEDO DE CARVALHO ANALISTA DO MP IPATINGA - COMARCA; IPATINGA-PJ-10PJ 1.500,00 950,00 605,00 0,00 0,00 0,00 0,00 0,00 795,44 31/08/2023
185 707000 ALICE MARIA RIBEIRO DINIZ ASSESSOR PROMOTOR JUSTICA BELO HORIZONTE - COMARCA; PROC JUST ATUACAO TRIBUNAIS SUPERIORES-GAB004 1.500,00 0,00 605,00 0,00 0,00 0,00 0,00 0,00 469,84 31/08/2023
186 1585500 ALICE MARIANA DA SILVA ESTAGIARIO TRES CORACOES; TRES CORACOES-PJ-06PJ 0,00 0,00 0,00 252,00 0,00 0,00 0,00 0,00 0,00 31/08/2023
187 1665400 ALICE PARENTONI DE OLIVEIRA BRETTAS ESTAGIARIO BELO HORIZONTE; BH-14PJ DEFESA CONSUMIDOR-SECRETARIA 0,00 0,00 0,00 60,00 0,00 0,00 0,00 0,00 0,00 31/08/2023
188 471000 ALICE TITONELI MOREIRA ANALISTA DO MP MIRADOURO - COMARCA; MIRADOURO-PJ-UNPJ 1.500,00 950,00 605,00 0,00 0,00 0,00 0,00 0,00 713,23 31/08/2023
189 1596200 ALICIA GABRIELLA ALVES COSTA MAXIMO ESTAGIARIO BETIM; BETIM-PJ-05PJ 0,00 0,00 0,00 180,00 0,00 0,00 0,00 0,00 0,00 31/08/2023
190 731600 ALICIA PAULA RODRIGUES DE LIMA ASSESSOR PROMOTOR JUSTICA TIROS - COMARCA; TIROS-PJ-UNPJ 1.500,00 0,00 605,00 0,00 0,00 0,00 0,00 0,00 149,10 31/08/2023
191 725800 ALINE ALBIERI FRANCISCO ASSESSOR PROMOTOR JUSTICA BELO HORIZONTE - COMARCA; CAO-ORDEM ECONOMICA E TRIBUTARIA-ASSESS TECN 1.500,00 0,00 605,00 0,00 0,00 0,00 0,00 0,00 331,16 31/08/2023
192 733200 ALINE APARECIDA DO PRADO TERRITO ASSESSOR ADMINISTRATIVO II BELO HORIZONTE - COMARCA; ESCRITORIO DE PROTECAO DE DADOS PESSOAIS 1.500,00 0,00 605,00 0,00 0,00 0,00 0,00 0,00 26,76 31/08/2023
193 1612300 ALINE APARECIDA SOARES FERREIRA ESTAGIARIO BELO HORIZONTE; COORD REG SAUDE MACRORREGIAO SANITARIA CENTRO 0,00 0,00 0,00 228,00 0,00 0,00 0,00 0,00 0,00 31/08/2023
194 622400 ALINE BALBINO PORTUGAL LOPES ANALISTA DO MP TRÊS PONTAS - COMARCA; TRES PONTAS-PJ-03PJ 1.500,00 950,00 605,00 0,00 0,00 0,00 0,00 0,00 779,19 31/08/2023
195 373000 ALINE BOTELHO RESENDE OFICIAL DO MP JUIZ DE FORA - COMARCA; JUIZ DE FORA-PJ-22PJ 1.500,00 0,00 605,00 0,00 0,00 0,00 0,00 0,00 0,00 31/08/2023
196 1538700 ALINE CORREA DA SILVA ESTAGIARIO CONTAGEM; CONTAGEM-PJ-18PJ 0,00 0,00 0,00 240,00 0,00 0,00 0,00 0,00 0,00 31/08/2023
197 699800 ALINE CRISTINA DE OLIVEIRA AMARAL BARBOSA ASSESSOR PROCURADOR JUSTICA BELO HORIZONTE - COMARCA; GABINETE DE PROCURADOR DE JUSTIÇA - SALA 904 1.500,00 0,00 605,00 0,00 0,00 0,00 0,00 0,00 470,60 31/08/2023
198 407700 ALINE CRISTINA RODRIGUES PEREIRA COORDENADOR II BELO HORIZONTE - COMARCA; DIRETORIA DE PROJETOS DE EDIFICACOES 1.500,00 0,00 605,00 0,00 0,00 0,00 0,00 0,00 0,00 31/08/2023
199 193100 ALINE CRISTINA SENA OLIVEIRA OFICIAL DO MP UBERLÂNDIA - COMARCA; UBERLANDIA-PJ-03PJ 1.500,00 950,00 605,00 0,00 0,00 0,00 0,00 0,00 0,00 31/08/2023
200 554200 ALINE CRISTINA SILVA SOUZA OFICIAL DO MP TIROS - COMARCA; TIROS-PJ-UNPJ 1.500,00 0,00 605,00 0,00 0,00 0,00 0,00 0,00 397,60 31/08/2023
201 505500 ALINE DA CUNHA MARREIROS OLIVEIRA ANALISTA DO MP EUGENÓPOLIS - COMARCA; EUGENOPOLIS-PJ-UNPJ 1.500,00 2.850,00 605,00 0,00 0,00 0,00 0,00 0,00 732,49 31/08/2023
202 433500 ALINE DE MELO QUEIROZ OFICIAL DO MP BELO HORIZONTE - COMARCA; ASSESSORIA JURIDICA DO PROCON-MG 1.500,00 950,00 605,00 0,00 0,00 0,00 0,00 0,00 518,75 31/08/2023
203 691100 ALINE DE MELO SOUZA ASSESSOR PROCURADOR JUSTICA BELO HORIZONTE - COMARCA; GABINETE DE PROCURADOR DE JUSTIÇA - SALA 401 1.500,00 0,00 605,00 0,00 0,00 0,00 0,00 0,00 424,25 31/08/2023
204 542700 ALINE DE SOUSA ALBINO ANALISTA DO MP CONTAGEM - COMARCA; CONTAGEM-PJ-09PJ 1.500,00 0,00 605,00 0,00 0,00 0,00 0,00 0,00 834,13 31/08/2023
205 330000 ALINE DIORIO MAYRINK OFICIAL DO MP BELO HORIZONTE - COMARCA; SUPER DE GESTAO DE PESSOAS-LOTACAO TEMPORARIA 1.500,00 0,00 605,00 0,00 0,00 0,00 0,00 0,00 730,41 31/08/2023
206 499000 ALINE FERREIRA LOPES ANALISTA DO MP TEÓFILO OTONI - COMARCA; TEOFILO OTONI-PJ-09PJ 1.500,00 0,00 605,00 0,00 0,00 0,00 0,00 0,00 936,15 31/08/2023
207 405300 ALINE LAIA CARDOZO SUPERINTENDENTE BELO HORIZONTE - COMARCA; SUPERINTENDENCIA LOGISTICA SERVICOS 1.500,00 0,00 605,00 0,00 0,00 0,00 0,00 0,00 -1.132,90 31/08/2023
208 1549400 ALINE MARCAL ALEIXO ESTAGIARIO CONTAGEM; CONTAGEM-PJ-05PJ 0,00 0,00 0,00 252,00 0,00 0,00 0,00 0,00 0,00 31/08/2023
209 278200 ALINE MARCIA FARIA BARBOSA FERNANDES OFICIAL DO MP BARBACENA - COMARCA; BARBACENA-PJ-SECRETARIA 1.500,00 0,00 605,00 0,00 0,00 0,00 0,00 0,00 696,91 31/08/2023
210 1563900 ALINE MARIA SOARES MARTINS ESTAGIARIO BELO HORIZONTE; BH-02PJ FAMILIA-SECRETARIA 0,00 0,00 0,00 144,00 0,00 0,00 0,00 0,00 0,00 31/08/2023
211 1490300 ALINE MENDES CARDOZO ESTAGIARIO CURVELO; CURVELO-PJ-03PJ 0,00 0,00 0,00 240,00 0,00 0,00 0,00 0,00 0,00 31/08/2023
212 1334100 ALINE MORGANE DE SOUZA ESTAGIARIO VARZEA DA PALMA; VARZEA DA PALMA-PJ-02PJ 0,00 0,00 0,00 72,00 0,00 0,00 0,00 0,00 0,00 31/08/2023
213 389000 ALINE NERI NOBRE ANALISTA DO MP MONTES CLAROS - COMARCA; COORD REG PJ DEF EDUC DIR CRIANCA ADOL NORTE 1.500,00 0,00 605,00 0,00 0,00 0,00 0,00 0,00 0,00 31/08/2023
214 294600 ALINE PATRICIA SILVA VIEIRA OFICIAL DO MP UBERLÂNDIA - COMARCA; UBERLANDIA-PJ-03PJ 1.500,00 0,00 605,00 0,00 0,00 0,00 1.771,66 0,00 0,00 31/08/2023
215 1665500 ALINE RAMOS CARRAO ESTAGIARIO JUIZ DE FORA; JUIZ DE FORA-PJ-13PJ 0,00 0,00 0,00 72,00 246,66 0,00 0,00 0,00 0,00 31/08/2023
216 420000 ALINE RODRIGUES CAMOROPIN ANALISTA DO MP SABARÁ - COMARCA; SABARA-PJ-02PJ 1.500,00 0,00 605,00 0,00 0,00 0,00 0,00 0,00 0,00 31/08/2023
217 1615200 ALINE RODRIGUES DOS SANTOS ESTAGIARIO ITAMBACURI; ITAMBACURI-PJ-02PJ 0,00 0,00 0,00 240,00 0,00 0,00 0,00 0,00 0,00 31/08/2023
218 715800 ALINE SANTOS PEDROSA MAIA BARBOSA ASSESSOR PROCURADOR JUSTICA BELO HORIZONTE - COMARCA; GABINETE DE PROCURADOR DE JUSTIÇA - SALA 1010 1.500,00 0,00 605,00 0,00 0,00 0,00 0,00 0,00 424,25 31/08/2023
219 699600 ALINE SEPULVEDA ROSA PIRES ASSESSOR PROCURADOR JUSTICA BELO HORIZONTE - COMARCA; GABINETE DE PROCURADOR DE JUSTIÇA - SALA 905 1.500,00 0,00 605,00 0,00 0,00 0,00 0,00 0,00 470,20 31/08/2023
220 408300 ALINE SILVA ARAUJO DE PAULA ANALISTA DO MP SÃO SEBASTIÃO DO PARAÍSO - COMARCA; SAO SEBASTIAO DO PARAISO-PJ-02PJ 1.500,00 0,00 605,00 0,00 0,00 0,00 0,00 0,00 0,00 31/08/2023
221 665900 ALINE SILVA BARROS PROMOTOR 2A ENTRANCIA FRUTAL - COMARCA; FRUTAL-PJ-02PJ 1.500,00 0,00 1.918,80 0,00 33.924,94 0,00 0,00 0,00 518,30 31/08/2023
222 1554300 ALINE SILVA MONTOVANI ESTAGIARIO VARGINHA; GAECO REGIONAL DE VARGINHA 0,00 0,00 0,00 252,00 0,00 0,00 0,00 0,00 0,00 31/08/2023
223 734300 ALINE TAVARES GURGEL ASSESSOR ADMINISTRATIVO III BELO HORIZONTE - COMARCA; SECRETARIA-GERAL 1.500,00 0,00 605,00 0,00 0,00 0,00 0,00 0,00 0,00 31/08/2023
224 425400 ALINE TRINDADE DE FREITAS CAMPOS OFICIAL DO MP BELO HORIZONTE - COMARCA; PROMOT ESTADUAL DE DEF PATRI CULT E TUR DE MG 1.500,00 0,00 605,00 0,00 0,00 0,00 0,00 0,00 655,01 31/08/2023
225 1334800 ALINE VICTORIA SILVA MENDES ESTAGIARIO CONSELHEIRO LAFAIETE; CONSELHEIRO LAFAIETE-PJ-08PJ 0,00 0,00 0,00 240,00 0,00 0,00 0,00 0,00 0,00 31/08/2023
226 1587800 ALINITY DA SILVA CORREIA ESTAGIARIO CARANGOLA; CARANGOLA-PJ-03PJ 0,00 0,00 0,00 144,00 0,00 0,00 0,00 0,00 0,00 31/08/2023
227 517200 ALISSOM PEREIRA DA SILVA ANALISTA DO MP BORDA DA MATA - COMARCA; BORDA DA MATA-PJ-UNPJ 1.500,00 950,00 605,00 0,00 0,00 0,00 0,00 0,00 917,17 31/08/2023
228 1335600 ALISSON BRENNER ALVES DE OLIVEIRA ESTAGIARIO SALINAS; SALINAS-PJ-01PJ 0,00 0,00 0,00 240,00 0,00 0,00 0,00 0,00 0,00 31/08/2023
229 442400 ALISSON LABRE ANALISTA DO MP VARGINHA - COMARCA; VARGINHA-PJ-03PJ 1.500,00 0,00 605,00 0,00 0,00 0,00 0,00 0,00 62,64 31/08/2023
230 643800 ALLAN PAUL FONSECA DE CASTRO OFICIAL DO MP CONTAGEM - COMARCA; CONTAGEM-PJ-SECRETARIA 1.500,00 950,00 605,00 0,00 0,00 0,00 0,00 0,00 601,45 31/08/2023
231 612900 ALLAN VINICIUS VIEIRA ARAUJO COORDENADOR II BELO HORIZONTE - COMARCA; DIRETORIA DE GESTAO DOCUMENTAL 1.500,00 0,00 605,00 0,00 0,00 0,00 0,00 0,00 1.496,71 31/08/2023
232 1406800 ALLANA LUISA PIRES DA CUNHA ESTAGIARIO TRES MARIAS; TRES MARIAS-PJ-UNPJ 0,00 0,00 0,00 252,00 0,00 0,00 0,00 0,00 0,00 31/08/2023
233 349000 ALLEC RODRIGUES VIEIRA OFICIAL DO MP CAPINÓPOLIS - COMARCA; CAO-CIVEL 1.500,00 0,00 605,00 0,00 0,00 0,00 0,00 0,00 1.014,44 31/08/2023
234 1646400 ALLEFE HENRIQUE MELO SANTOS ESTAGIARIO TIROS; TIROS-PJ-UNPJ 0,00 0,00 0,00 24,00 0,00 0,00 0,00 0,00 0,00 31/08/2023
235 532400 ALLENDER BARRETO LIMA DA SILVA PROMOTOR 2A ENTRANCIA CAETÉ - COMARCA; CAETE-PJ-01PJ 1.500,00 0,00 919,55 0,00 0,00 0,00 0,00 0,00 0,00 31/08/2023
236 297300 ALLYSON SALIBA MONTEIRO LAIZO ANALISTA DO MP CONSELHEIRO LAFAIETE - COMARCA; CONSELHEIRO LAFAIETE-PJ-03PJ 1.500,00 950,00 605,00 0,00 0,00 0,00 0,00 0,00 0,00 31/08/2023
237 68900 ALMIR ALVES MOREIRA PROCURADOR DE JUSTICA BELO HORIZONTE - COMARCA; GABINETE DE PROCURADOR DE JUSTIÇA - SALA 1012 1.500,00 0,00 3.021,36 0,00 32.064,01 0,00 0,00 0,00 734,80 31/08/2023
238 226601 ALMIR GERALDO GUIMARAES PROMOTOR 2A ENTRANCIA MATEUS LEME - COMARCA; MATEUS LEME-PJ-02PJ 1.500,00 1.900,00 3.392,49 0,00 39.579,10 0,00 0,00 0,00 0,00 31/08/2023
239 303700 ALMIR LOPES LOURES ANALISTA DO MP BELO HORIZONTE - COMARCA; CENTRAL DE APOIO TECN-SETOR DE MEIO AMBIENTE 1.500,00 0,00 605,00 0,00 0,00 0,00 0,00 0,00 0,00 31/08/2023
240 743900 ALMIR MOREIRA DOS SANTOS ANALISTA DO MP BELO HORIZONTE - COMARCA; DIRETORIA DE ADMINISTRACAO FINANCEIRA 1.500,00 0,00 605,00 0,00 0,00 0,00 0,00 0,00 0,00 31/08/2023
241 440700 ALOISIO CUNHA SOARES JUNIOR PROMOTOR 2A ENTRANCIA PATROCÍNIO - COMARCA; PATROCINIO-PJ-04PJ 1.500,00 0,00 3.243,91 0,00 27.139,96 0,00 0,00 0,00 518,30 31/08/2023
242 90600 ALOISIO RABELO DE REZENDE PROMOT.ENTRANC.ESPECIAL VARGINHA - COMARCA; VARGINHA-PJ-01PJ 1.500,00 0,00 3.520,55 0,00 32.013,20 0,00 0,00 0,00 733,64 31/08/2023
243 696600 ALOIZIO MARTINS JALES JUNIOR ASSESSOR PROMOTOR JUSTICA CAMPESTRE - COMARCA; CAMPESTRE-PJ-SECRETARIA 1.500,00 0,00 605,00 0,00 0,00 0,00 0,00 0,00 456,31 31/08/2023
244 515900 ALTAIR NEVES JUNIOR OFICIAL DO MP BELO HORIZONTE - COMARCA; BH-01PJ FAZENDA PUBLICA-SECRETARIA 1.500,00 0,00 605,00 0,00 0,00 0,00 0,00 0,00 707,35 31/08/2023
245 290800 ALUISIA BERALDO RIBEIRO PROMOT.ENTRANC.ESPECIAL UBERLÂNDIA - COMARCA; UBERLANDIA-PJ-14PJ 1.500,00 0,00 1.734,00 0,00 8.813,42 0,00 0,00 0,00 0,00 31/08/2023
246 233300 ALVARINDO BATISTA ANALISTA DO MP BELO HORIZONTE - COMARCA; NUCLEO APOIO TECNICO ESP COMUNICACAO 1.500,00 1.900,00 605,00 0,00 0,00 0,00 0,00 0,00 0,00 31/08/2023
247 1402600 ALVARO ARCANJO SILVA PEREIRA ESTAGIARIO FERROS; FERROS-PJ-UNPJ 0,00 0,00 0,00 168,00 0,00 0,00 0,00 0,00 0,00 31/08/2023
248 1440700 ALVARO AUGUSTO RODRIGUES E SILVA ESTAGIARIO UBERLANDIA; UBERLANDIA-PJ-13PJ 0,00 0,00 0,00 204,00 0,00 0,00 0,00 0,00 0,00 31/08/2023
249 741700 ALVARO CALAZANS DE SOUZA NETO PROMOTOR SUBSTITUTO BELO HORIZONTE - COMARCA; CENTRO DE ESTUDOS E APERFEICOAMENTO FUNCIONAL 1.500,00 0,00 867,00 0,00 0,00 0,00 0,00 0,00 0,00 31/08/2023
250 1599600 ALYNE MARIA EMERICK RABELO ESTAGIARIO MANHUMIRIM; MANHUMIRIM-PJ-02PJ 0,00 0,00 0,00 252,00 0,00 0,00 0,00 0,00 0,00 31/08/2023
251 1633600 ALYNE NEVES BARBOSA ESTAGIARIO RIO PIRACICABA; RIO PIRACICABA-PJ-UNPJ 0,00 0,00 0,00 252,00 0,00 0,00 0,00 0,00 0,00 31/08/2023
252 344400 ALYSSON CARDOZO CEMBRANEL PROMOT.ENTRANC.ESPECIAL BELO HORIZONTE - COMARCA; BH-17PJ PATRIMONIO PUBLICO-GAB 119PJ 1.500,00 0,00 2.518,45 0,00 47.613,95 0,00 0,00 0,00 545,58 31/08/2023
253 274100 ALYSSON CARVALHO VIDAL DE LACERDA OFICIAL DO MP MANHUAÇU - COMARCA; MANHUACU-PJ-01PJ 1.500,00 0,00 605,00 0,00 0,00 0,00 0,00 0,00 772,64 31/08/2023
254 1410600 AMANDA APARECIDA DE SOUZA SOARES ESTAGIARIO LAJINHA; LAJINHA-PJ-UNPJ 0,00 0,00 0,00 252,00 0,00 0,00 0,00 0,00 0,00 31/08/2023
255 621000 AMANDA BASTOS ALVES ANALISTA DO MP BELO HORIZONTE - COMARCA; BH-07PJ 02 TRIBUNAL DO JURI-GAB 066PJ 1.500,00 0,00 605,00 0,00 0,00 0,00 0,00 0,00 619,88 31/08/2023
256 1564700 AMANDA CARDOSO CORDIBELLI ESTAGIARIO MURIAE; MURIAE-PJ-05PJ 0,00 0,00 0,00 240,00 0,00 0,00 0,00 0,00 0,00 31/08/2023
257 1630500 AMANDA CAROLINA CRUZ DE SOUZA ESTAGIARIO SANTA LUZIA; SANTA LUZIA-PJ-01PJ 0,00 0,00 0,00 228,00 0,00 0,00 0,00 0,00 0,00 31/08/2023
258 1444400 AMANDA CARVALHO BORGES PEREIRA VALLE ESTAGIARIO ARAXA; ARAXA-PJ-01PJ
259 1646100 AMANDA CHRISTINA MATTOS CORDEIRO ESTAGIARIO BELO HORIZONTE; BH-12PJ JUIZO CRIMINAL-GAB 104PJ 0,00 0,00 0,00 228,00 0,00 0,00 0,00 0,00 0,00 31/08/2023
260 1614400 AMANDA CORREA BRAGA ESTAGIARIO BELO HORIZONTE; BH-18PJ DIREITOS HUMANOS-GAB 126PJ 0,00 0,00 0,00 228,00 0,00 0,00 0,00 0,00 0,00 31/08/2023
261 521700 AMANDA CRISTINA AGUIAR MACHADO OFICIAL DO MP CONGONHAS - COMARCA; CONGONHAS-PJ-01PJ 1.500,00 0,00 605,00 0,00 0,00 0,00 0,00 0,00 449,97 31/08/2023
262 1613700 AMANDA CRISTINA BARBOSA DE ANDRADE ESTAGIARIO POUSO ALEGRE; POUSO ALEGRE-PJ-02PJ 0,00 0,00 0,00 252,00 0,00 0,00 0,00 0,00 0,00 31/08/2023
263 733500 AMANDA CRISTINA GONCALVES ASSESSOR ADMINISTRATIVO I PARACATU - COMARCA; COORD REG AP COM INCL MOB SOCIAIS NOROESTE MG 1.500,00 0,00 605,00 0,00 0,00 0,00 0,00 0,00 14,90 31/08/2023
264 713900 AMANDA DE ARAUJO CARVALHO ASSESSOR PROMOTOR JUSTICA ARAÇUAÍ - COMARCA; ARACUAI-PJ-01PJ 1.500,00 0,00 605,00 0,00 0,00 0,00 0,00 0,00 448,91 31/08/2023
265 613400 AMANDA DE ASSIS IUNES SANTOS ANALISTA DO MP CONGONHAS - COMARCA; CONGONHAS-PJ-01PJ 1.500,00 0,00 605,00 0,00 0,00 0,00 0,00 0,00 757,52 31/08/2023
266 1628100 AMANDA DE MELO GONCALVES ESTAGIARIO MURIAE; MURIAE-PJ-07PJ 0,00 0,00 0,00 252,00 0,00 0,00 0,00 0,00 0,00 31/08/2023
267 1568800 AMANDA DE MENEZES FERREIRA ESTAGIARIO BELO HORIZONTE; GABINETE DE PROCURADOR DE JUSTIÇA - SALA 803 0,00 0,00 0,00 96,00 0,00 0,00 0,00 0,00 0,00 31/08/2023
268 695900 AMANDA DE OLIVEIRA ASSESSOR PROCURADOR JUSTICA BELO HORIZONTE - COMARCA; PROC JUST ATUACAO TRIBUNAIS SUPERIORES-GAB004 1.500,00 0,00 605,00 0,00 0,00 0,00 0,00 0,00 470,39 31/08/2023
269 520800 AMANDA DE SOUZA MACHADO ANALISTA DO MP BAEPENDI - COMARCA; BAEPENDI-PJ-UNPJ 1.500,00 0,00 605,00 0,00 0,00 0,00 0,00 0,00 917,17 31/08/2023
270 663900 AMANDA DENISE GONCALVES DA SILVA ASSESSOR ADMINISTRATIVO I BELO HORIZONTE - COMARCA; SECRETARIA DO PROCON-MG 1.500,00 0,00 605,00 0,00 0,00 0,00 0,00 0,00 258,73 31/08/2023
271 1479900 AMANDA DILASCIO RIBEIRO FICHE ESTAGIARIO SAO JOAO DEL REI; SAO JOAO DEL REI-PJ-01PJ 0,00 0,00 0,00 228,00 0,00 0,00 0,00 0,00 0,00 31/08/2023
272 1583100 AMANDA ESTEFFANY VIANA E SILVA ESTAGIARIO RIO PARDO DE MINAS; RIO PARDO DE MINAS-PJ-UNPJ 0,00 0,00 0,00 252,00 0,00 0,00 0,00 0,00 0,00 31/08/2023
273 1572100 AMANDA GABRIELA GONCALVES DE MIRANDA ESTAGIARIO BETIM; BETIM-PJ-04PJ 0,00 0,00 0,00 252,00 0,00 0,00 0,00 0,00 0,00 31/08/2023
274 1551900 AMANDA LUIZA NUNES SOARES ESTAGIARIO BELO HORIZONTE; BH-18PJ VIOLENCIA DOMESTICA-GAB 007PJ 0,00 0,00 0,00 48,00 0,00 0,00 0,00 0,00 0,00 31/08/2023
275 666000 AMANDA MERLINI DUTRA OSIPE PROMOTOR 2A ENTRANCIA ITURAMA - COMARCA; ITURAMA - 03ª PJ 1.500,00 0,00 2.364,55 0,00 45.233,25 0,00 0,00 0,00 518,30 31/08/2023
276 1505800 AMANDA NICAELY BARBOSA SANTOS COSTA ESTAGIARIO MONTALVANIA; MONTALVANIA-PJ-UNPJ 0,00 0,00 0,00 192,00 0,00 0,00 0,00 0,00 0,00 31/08/2023
277 1559600 AMANDA PAULA LOPES PALMEIRA ESTAGIARIO RIBEIRAO DAS NEVES; RIBEIRAO DAS NEVES-PJ-07PJ 0,00 0,00 0,00 240,00 0,00 0,00 0,00 0,00 0,00 31/08/2023
278 1607200 AMANDA PEDROSO SILVA ESTAGIARIO BELO HORIZONTE; BH-13PJ JUIZO DE TOXICOS-GAB 006PJ 0,00 0,00 0,00 168,00 0,00 0,00 0,00 0,00 0,00 31/08/2023
279 1663700 AMANDA RIBEIRO MARTINS OLIVEIRA ESTAGIARIO ITANHOMI; ITANHOMI-PJ-UNPJ 0,00 0,00 0,00 504,00 0,00 0,00 0,00 0,00 0,00 31/08/2023
280 1661900 AMANDA SILVA MEDEIROS ESTAGIARIO CAMPINA VERDE; CAMPINA VERDE-PJ-UNPJ 0,00 0,00 0,00 516,00 0,00 0,00 0,00 0,00 0,00 31/08/2023
281 1468200 AMANDA VIEIRA FREIRE ESTAGIARIO BELO HORIZONTE; BH-13PJ JUIZO DE TOXICOS-GAB 079PJ 0,00 0,00 0,00 144,00 0,00 0,00 0,00 0,00 0,00 31/08/2023
282 543100 AMANDA VIEIRA FREITAS BRESSANE ANALISTA DO MP VARGINHA - COMARCA; COORD REG DEF ORDEM ECON TRIB VARGINHA 1.500,00 0,00 605,00 0,00 0,00 0,00 0,00 0,00 717,82 31/08/2023
283 1609000 AMANDA VITORIA ALVES NOCA ESTAGIARIO PATROCINIO; PATROCINIO-PJ-02PJ 0,00 0,00 0,00 228,00 0,00 0,00 0,00 0,00 0,00 31/08/2023
284 1385400 AMANDA VITORIA SANTOS DIAS ESTAGIARIO JANAUBA; JANAUBA-PJ-03PJ 0,00 0,00 0,00 252,00 0,00 0,00 0,00 0,00 0,00 31/08/2023
285 434400 AMARILIS ASSIS SIMAO CURCIO ANALISTA DO MP BELO HORIZONTE - COMARCA; DIRETORIA GESTAO COMPRAS LICITACOES 1.500,00 0,00 605,00 0,00 0,00 0,00 0,00 0,00 713,23 31/08/2023
286 652000 AMAURI SILVA ALVES ASSESSOR ADMINISTRATIVO III BELO HORIZONTE - COMARCA; BH-23PJ INFRACIONAL-COORD ADM INFRACIONAL 1.500,00 0,00 605,00 0,00 0,00 0,00 0,00 0,00 2.102,77 31/08/2023
287 1642100 AMAURY BAETA MAINENTI ESTAGIARIO BELO HORIZONTE; COORD CONTROLE CONST-SECRETARIA 0,00 0,00 0,00 228,00 0,00 0,00 0,00 0,00 0,00 31/08/2023
288 58000 AMELIA GUARIZE DE CASTRO OFICIAL DO MP JUIZ DE FORA - COMARCA; JUIZ DE FORA-PJ-SECRETARIA 1.500,00 0,00 605,00 0,00 0,00 0,00 0,00 0,00 95,86 31/08/2023
289 324301 AMERICA SUELI FERREIRA DA SILVA ANALISTA DO MP UBERLÂNDIA - COMARCA; UBERLANDIA-PJ-02PJ 1.500,00 0,00 605,00 0,00 0,00 0,00 0,00 0,00 943,62 31/08/2023
290 273300 AMUJACY DE BRITO ASSIZ OFICIAL DO MP BELO HORIZONTE - COMARCA; BH-12PJ JUIZO CRIMINAL-SECRETARIA 1.500,00 0,00 605,00 0,00 0,00 0,00 0,00 0,00 772,64 31/08/2023
291 482200 ANA ALICE LOPES ACHTSCHIN ANALISTA DO MP BELO HORIZONTE - COMARCA; PROC JUST ATUACAO TRIBUNAIS SUPERIORES-GAB005 1.500,00 0,00 605,00 0,00 0,00 0,00 0,00 0,00 0,00 31/08/2023
292 1625400 ANA ALZIRA SOUZA DINIZ ESTAGIARIO TRES CORACOES; TRES CORACOES-PJ-01PJ 0,00 0,00 0,00 252,00 0,00 0,00 0,00 0,00 0,00 31/08/2023
293 490400 ANA AMELIA PAULINO GARCIA OFICIAL DO MP CONTAGEM - COMARCA; CONTAGEM-PJ-SECRETARIA 1.500,00 950,00 605,00 0,00 0,00 0,00 0,00 0,00 0,00 31/08/2023
294 671300 ANA BARBARA CANEDO OLIVEIRA PROMOTOR 2A ENTRANCIA PIRAPORA - COMARCA; PIRAPORA-PJ-01PJ 1.500,00 0,00 919,55 0,00 5.654,16 0,00 0,00 0,00 518,30 31/08/2023
295 1646500 ANA BEATRIZ ALVES DA SILVA ESTAGIARIO MATEUS LEME; MATEUS LEME-PJ-02PJ 0,00 0,00 0,00 252,00 0,00 0,00 0,00 0,00 0,00 31/08/2023
296 1471000 ANA BEATRIZ BARBOSA RODRIGUES ESTAGIARIO POUSO ALEGRE; POUSO ALEGRE-PJ-03PJ 0,00 0,00 0,00 228,00 0,00 0,00 0,00 0,00 0,00 31/08/2023
297 714900 ANA BEATRIZ LOBATO ALVES DE CARVALHO ASSESSOR PROCURADOR JUSTICA BELO HORIZONTE - COMARCA; GABINETE DE PROCURADOR DE JUSTIÇA - SALA 414 1.500,00 0,00 605,00 0,00 0,00 0,00 0,00 0,00 558,27 31/08/2023
298 1515700 ANA BEATRIZ VIANA DA SILVA ESTAGIARIO JOAO MONLEVADE; JOAO MONLEVADE-PJ-02PJ 0,00 0,00 0,00 228,00 0,00 0,00 0,00 0,00 0,00 31/08/2023
299 1477500 ANA CARLA GOMES ALVES ESTAGIARIO PASSOS; PASSOS-PJ-04PJ 0,00 0,00 0,00 252,00 0,00 0,00 0,00 0,00 0,00 31/08/2023
300 715000 ANA CARLA RODRIGUES DE SOUZA ASSESSOR PROMOTOR JUSTICA TRÊS CORACOES - COMARCA; TRES CORACOES-PJ-01PJ 1.500,00 0,00 605,00 0,00 0,00 0,00 0,00 0,00 424,25 31/08/2023
301 723200 ANA CAROLINA AMABILE ALVES INVESTIGADOR DE POLICIA 2 1.500,00 0,00 0,00 0,00 0,00 0,00 0,00 0,00 0,00 31/08/2023
302 279100 ANA CAROLINA ARAUJO PEREIRA ANALISTA DO MP BELO HORIZONTE - COMARCA; DIRETORIA DE PROJETOS DE EDIFICACOES 1.500,00 0,00 605,00 0,00 0,00 0,00 0,00 0,00 0,00 31/08/2023
303 1460200 ANA CAROLINA BARBOSA FERNANDES ESTAGIARIO ITUIUTABA; ITUIUTABA-PJ-04PJ 0,00 0,00 0,00 180,00 0,00 0,00 0,00 0,00 0,00 31/08/2023
304 1568600 ANA CAROLINA CARVALHO DOMINGUES ESTAGIARIO LAVRAS; LAVRAS-PJ-05PJ 0,00 0,00 0,00 240,00 0,00 0,00 0,00 0,00 0,00 31/08/2023
305 653300 ANA CAROLINA CYRNE DINIZ ASSESSOR ADMINISTRATIVO III BELO HORIZONTE - COMARCA; CENTRAL DE APOIO TECNICO-SETOR CONTABIL 1.500,00 0,00 605,00 0,00 0,00 0,00 0,00 0,00 519,54 31/08/2023
306 1533400 ANA CAROLINA DA SILVA REIS ESTAGIARIO IGARAPE; IGARAPE-PJ-03PJ 0,00 0,00 0,00 252,00 0,00 0,00 0,00 0,00 0,00 31/08/2023
307 359400 ANA CAROLINA DE ABREU FARIA ASSESSOR ADMINISTRATIVO IV BELO HORIZONTE - COMARCA; SUPERINTENDÊNCIA DE ENGENHARIA E ARQUITETURA 1.500,00 950,00 605,00 0,00 0,00 0,00 0,00 0,00 765,17 31/08/2023
308 408500 ANA CAROLINA DE CASTRO CARVALHO ANALISTA DO MP BARBACENA - COMARCA; BARBACENA - SECRETARIA DAS PJS CRIMINAIS 1.500,00 950,00 605,00 0,00 0,00 0,00 0,00 0,00 0,00 31/08/2023
309 1560500 ANA CAROLINA DE FREITAS PAULINO ESTAGIARIO JUIZ DE FORA; JUIZ DE FORA-PJ-16PJ 0,00 0,00 0,00 252,00 0,00 0,00 0,00 0,00 0,00 31/08/2023
310 1487500 ANA CAROLINA DE MELO MARTINS ESTAGIARIO CABO VERDE; CABO VERDE-PJ-UNPJ 0,00 0,00 0,00 192,00 0,00 0,00 0,00 0,00 0,00 31/08/2023
311 1542400 ANA CAROLINA DE OLIVEIRA FROES ESTAGIARIO NOVA LIMA; NOVA LIMA-PJ-03PJ 0,00 0,00 0,00 180,00 0,00 0,00 0,00 0,00 0,00 31/08/2023
312 1551800 ANA CAROLINA DE OLIVEIRA GOMES ESTAGIARIO BELO HORIZONTE; BH-08PJ JUIZADO ESPECIAL-SECRETARIA 0,00 0,00 0,00 144,00 0,00 0,00 0,00 0,00 0,00 31/08/2023
313 688000 ANA CAROLINA DE OLIVEIRA PINTO ASSESSOR PROCURADOR JUSTICA BELO HORIZONTE - COMARCA; GABINETE DE PROCURADOR DE JUSTIÇA - SALA 1005 1.500,00 0,00 605,00 0,00 0,00 0,00 0,00 0,00 435,68 31/08/2023
314 598900 ANA CAROLINA DUARTE DA SILVA INVESTIGADOR DE POLICIA 2 BELO HORIZONTE - COMARCA; PROC JUST ESP ACOES COMP ORIG CRIMINAL-SEC 1.500,00 0,00 0,00 0,00 0,00 0,00 0,00 0,00 0,00 31/08/2023
315 420200 ANA CAROLINA FERNANDES SILVA ANALISTA DO MP BELO HORIZONTE - COMARCA; GABINETE DE PROCURADOR DE JUSTIÇA - SALA 704 1.500,00 0,00 605,00 0,00 0,00 0,00 0,00 0,00 0,00 31/08/2023
316 522100 ANA CAROLINA FERNANDINO VIDAL PEREIRA SANTOS OFICIAL DO MP BELO HORIZONTE - COMARCA; SECRETARIA DO PROCON-MG 1.500,00 0,00 605,00 0,00 0,00 0,00 0,00 0,00 564,69 31/08/2023
317 1609600 ANA CAROLINA FERREIRA SOARES ESTAGIARIO CONTAGEM; CONTAGEM-PJ-25PJ 0,00 0,00 0,00 156,00 0,00 0,00 0,00 0,00 0,00 31/08/2023
318 716001 ANA CAROLINA FIGUEIREDO SILVA ASSESSOR ADMINISTRATIVO II BELO HORIZONTE - COMARCA; PROC JUST ATUACAO TRIBUNAIS SUPERIORES-GAB004 1.500,00 0,00 605,00 0,00 0,00 0,00 0,00 0,00 0,00 31/08/2023
319 244700 ANA CAROLINA GARCIA COSTA PROMOT.ENTRANC.ESPECIAL BELO HORIZONTE - COMARCA; BH-23PJ INFRACIONAL-GAB 147PJ 1.500,00 0,00 3.571,05 0,00 18.885,89 0,00 0,00 0,00 577,07 31/08/2023
320 1618200 ANA CAROLINA GONCALVES DE MELO ESTAGIARIO LAMBARI; LAMBARI-PJ-UNPJ 0,00 0,00 0,00 228,00 0,00 0,00 0,00 0,00 0,00 31/08/2023
321 502400 ANA CAROLINA GONCALVES FERNANDES ANALISTA DO MP IPATINGA - COMARCA; IPATINGA-PJ-01PJ 1.500,00 1.900,00 605,00 0,00 0,00 0,00 0,00 0,00 917,17 31/08/2023
322 529900 ANA CAROLINA GONCALVES PECANHA CHEQUER ANALISTA DO MP MANHUAÇU - COMARCA; MANHUACU-PJ-04PJ 1.500,00 1.900,00 605,00 0,00 0,00 0,00 0,00 0,00 713,48 31/08/2023
323 1546300 ANA CAROLINA MARQUES RAMOS ESTAGIARIO BRUMADINHO; BRUMADINHO-PJ-02PJ 0,00 0,00 0,00 240,00 0,00 0,00 0,00 0,00 0,00 31/08/2023
324 431900 ANA CAROLINA MOTTA GUATIMOSIM ANALISTA DO MP BELO HORIZONTE - COMARCA; ASSESSORIA JURIDICO-ADMINISTRATIVA 1.500,00 950,00 605,00 0,00 0,00 0,00 0,00 0,00 0,00 31/08/2023
325 1491200 ANA CAROLINA OLIVEIRA DINIZ ESTAGIARIO CONTAGEM; CONTAGEM-PJ-03PJ 0,00 0,00 0,00 252,00 0,00 0,00 0,00 0,00 0,00 31/08/2023
326 1595200 ANA CAROLINA OLIVEIRA LACERDA ESTAGIARIO BELO HORIZONTE; BH-12PJ JUIZO CRIMINAL-GAB 099PJ 0,00 0,00 0,00 192,00 0,00 0,00 0,00 0,00 0,00 31/08/2023
327 1580400 ANA CAROLINA PEREIRA DOS SANTOS ESTAGIARIO BELO HORIZONTE; CENT ESTAD COOPERACAO TECNICO-JURIDICA
328 1461800 ANA CAROLINA PORTO SEGURO CAMPOS COELHO ESTAGIARIO BELO HORIZONTE; BH-26 CRIME CONT CRIAN ADOL-GAB 169PJ 0,00 0,00 0,00 228,00 0,00 0,00 0,00 0,00 0,00 31/08/2023
329 1524500 ANA CAROLINA VASCONCELOS VALADARES GRAVITO ESTAGIARIO BELO HORIZONTE; BH-23PJ CIVEL-GAB 162PJ 0,00 0,00 0,00 132,00 0,00 0,00 0,00 0,00 0,00 31/08/2023
330 490600 ANA CAROLINA XAVIER GODOY ANALISTA DO MP BELO HORIZONTE - COMARCA; BH-18PJ VIOLENCIA DOMESTICA-GAB 007PJ 1.500,00 1.900,00 605,00 0,00 0,00 0,00 0,00 0,00 936,61 31/08/2023
331 313700 ANA CAROLINA ZAMBOM PINTO COELHO PROMOT.ENTRANC.ESPECIAL BELO HORIZONTE - COMARCA; COORD ESTADUAL DE DEFESA DA EDUCACAO 1.500,00 1.900,00 1.628,90 0,00 23.806,96 0,00 0,00 0,00 545,58 31/08/2023
332 1573900 ANA CAROLINE DA CRUZ ESTAGIARIO NOVA LIMA; NOVA LIMA-PJ-02PJ 0,00 0,00 0,00 216,00 0,00 0,00 0,00 0,00 0,00 31/08/2023
333 1602300 ANA CAROLINE DA SILVA ESTAGIARIO POUSO ALEGRE; POUSO ALEGRE-PJ-04PJ 0,00 0,00 0,00 252,00 0,00 0,00 0,00 0,00 0,00 31/08/2023
334 1660600 ANA CAROLINE DE OLIVEIRA ESTAGIARIO BONFIM; BONFIM-PJ-UNPJ 0,00 0,00 0,00 492,00 0,00 0,00 0,00 0,00 0,00 31/08/2023
335 600300 ANA CAROLINE PEREIRA DINIZ ANALISTA DO MP BELO HORIZONTE - COMARCA; PROC JUST ESP ACOES COMP ORIG CRIMINAL-SEC 1.500,00 950,00 605,00 0,00 0,00 0,00 0,00 0,00 1.234,36 31/08/2023
336 615800 ANA CAROLINE PEREIRA OLIVEIRA OFICIAL DO MP ALFENAS - COMARCA; ALFENAS-PJ-06PJ 1.500,00 0,00 605,00 0,00 0,00 0,00 0,00 0,00 505,26 31/08/2023
337 1389400 ANA CAROLINE SOARES GOMES ESTAGIARIO SAO DOMINGOS DO PRATA; SAO DOMINGOS DO PRATA-PJ-UNPJ 0,00 0,00 0,00 216,00 0,00 0,00 0,00 0,00 0,00 31/08/2023
338 1541300 ANA CECILIA BRESSANIN KIMURA ESTAGIARIO POUSO ALEGRE; POUSO ALEGRE-PJ-05PJ 0,00 0,00 0,00 168,00 708,33 0,00 0,00 0,00 0,00 31/08/2023
339 229202 ANA CECILIA JUNQUEIRA GOUVEA PROMOT.ENTRANC.ESPECIAL RIBEIRÃO DAS NEVES - COMARCA; RIBEIRAO DAS NEVES-PJ-08PJ 1.500,00 0,00 2.679,81 0,00 17.855,22 0,00 0,00 0,00 545,58 31/08/2023
340 324800 ANA CECILIA MENDES DA SILVA OFICIAL DO MP OURO FINO - COMARCA; OURO FINO-PJ-01PJ 1.500,00 0,00 605,00 0,00 0,00 0,00 0,00 0,00 869,12 31/08/2023
341 1668300 ANA CECILIA PIMENTA SILVA ESTAGIARIO BOCAIUVA; BOCAIUVA-PJ-03PJ 0,00 0,00 0,00 108,00 0,00 0,00 0,00 0,00 0,00 31/08/2023
342 1563200 ANA CLARA ANTUNES DA SILVA FRASSI ESTAGIARIO CONTAGEM; CONTAGEM-PJ-07PJ 0,00 0,00 0,00 228,00 0,00 0,00 0,00 0,00 0,00 31/08/2023
343 1502000 ANA CLARA ANTUNES VASCONCELOS ESTAGIARIO BELO HORIZONTE; GABINETE DE PROCURADOR DE JUSTIÇA - SALA 408 0,00 0,00 0,00 108,00 0,00 0,00 0,00 0,00 0,00 31/08/2023
344 1649600 ANA CLARA DE CASSIA JUSTO MOREIRA ESTAGIARIO SANTA RITA DO SAPUCAI; SANTA RITA DO SAPUCAI-PJ-01PJ 0,00 0,00 0,00 252,00 0,00 0,00 0,00 0,00 0,00 31/08/2023
345 1327400 ANA CLARA DOS SANTOS PEREIRA ESTAGIARIO SETE LAGOAS; SETE LAGOAS-PJ-11PJ 0,00 0,00 0,00 216,00 1.541,67 0,00 0,00 0,00 0,00 31/08/2023
346 1623000 ANA CLARA FERNANDES MATOS ALVES ESTAGIARIO ITABIRITO; ITABIRITO-PJ-01PJ 0,00 0,00 0,00 228,00 0,00 0,00 0,00 0,00 0,00 31/08/2023
347 736000 ANA CLARA FERREIRA AMARAL ASSESSOR ADMINISTRATIVO I BELO HORIZONTE - COMARCA; PROCURADOR-GERAL DE JUSTICA- GABINETE 1.500,00 0,00 605,00 0,00 0,00 0,00 0,00 0,00 0,00 31/08/2023
348 1465500 ANA CLARA GONCALVES FANTECELE VIEIRA ESTAGIARIO BELO HORIZONTE; BH-10PJ EXECUÇÃO PENAL-GAB 078PJ 0,00 0,00 0,00 216,00 0,00 0,00 0,00 0,00 0,00 31/08/2023
349 1480400 ANA CLARA GRECO VILLANI MARQUES ESTAGIARIO BELO HORIZONTE; BH-23PJ INFRACIONAL-GAB 144PJ 0,00 0,00 0,00 228,00 0,00 0,00 0,00 0,00 0,00 31/08/2023
350 1384200 ANA CLARA GUIMARAES ROSA ESTAGIARIO CONTAGEM; CONTAGEM-PJ-06PJ 0,00 0,00 0,00 132,00 0,00 0,00 0,00 0,00 0,00 31/08/2023
351 1510900 ANA CLARA LINA COSTA ESTAGIARIO BELO HORIZONTE; BH-13PJ JUIZO DE TOXICOS-GAB 149PJ 0,00 0,00 0,00 144,00 0,00 0,00 0,00 0,00 0,00 31/08/2023
352 704100 ANA CLARA MARTINS ALBUQUERQUE ASSESSOR DE CAO BELO HORIZONTE - COMARCA; CAO-CRIANCAS E ADOLESCENTES-ASS TECNICA 1.500,00 0,00 605,00 0,00 0,00 0,00 0,00 0,00 236,68 31/08/2023
353 1322000 ANA CLARA RESGALA BARTHOLDY ESTAGIARIO BELO HORIZONTE; PROC. JUSTICA DIR. DIFUSOS E COLETIVOS 0,00 0,00 0,00 12,00 370,00 0,00 0,00 0,00 0,00 31/08/2023
354 698700 ANA CLARA SANTOS ALMEIDA ASSESSOR PROMOTOR JUSTICA SABINÓPOLIS - COMARCA; SABINOPOLIS-PJ-UNPJ 1.500,00 0,00 605,00 0,00 0,00 0,00 0,00 0,00 424,25 31/08/2023
355 441300 ANA CLAUDIA ALKIMIM MIRANDA BOMTEMPO ANALISTA DO MP MONTES CLAROS - COMARCA; MONTES CLAROS-PJ-11PJ 1.500,00 0,00 605,00 0,00 0,00 0,00 0,00 0,00 0,00 31/08/2023
356 1490100 ANA CLAUDIA ALVES MACHADO ESTAGIARIO BELO HORIZONTE; BH-18PJ VIOLENCIA DOMESTICA 0,00 0,00 0,00 204,00 0,00 0,00 0,00 0,00 0,00 31/08/2023
357 642500 ANA CLAUDIA DA COSTA NAVES OFICIAL DO MP MONTE CARMELO - COMARCA; MONTE CARMELO-PJ-02PJ 1.500,00 950,00 605,00 0,00 0,00 0,00 0,00 0,00 333,68 31/08/2023
358 716800 ANA CLAUDIA DOURADO MENDES ASSESSOR PROMOTOR JUSTICA ARAÇUAÍ - COMARCA; ARACUAI-PJ-02PJ 1.500,00 0,00 605,00 0,00 0,00 0,00 0,00 0,00 421,31 31/08/2023
359 1392700 ANA CLAUDIA GOIANAZES MOREIRA ESTAGIARIO BELO HORIZONTE; GABINETE DE PROCURADOR DE JUSTIÇA - SALA 705 0,00 0,00 0,00 36,00 0,00 0,00 0,00 0,00 0,00 31/08/2023
360 341500 ANA CLAUDIA LOPES PROMOT.ENTRANC.ESPECIAL BELO HORIZONTE - COMARCA; BH-07PJ 01 TRIBUNAL DO JURI-GAB 077PJ 1.500,00 0,00 1.208,55 0,00 47.613,95 0,00 0,00 0,00 545,58 31/08/2023
361 604900 ANA CLAUDIA OLIVEIRA DE MIRANDA OFICIAL DO MP PONTE NOVA - COMARCA; PONTE NOVA-PJ-04PJ 1.500,00 0,00 605,00 0,00 0,00 0,00 0,00 0,00 623,74 31/08/2023
362 1381200 ANA CLAUDIA SARAIVA MARTINS FERREIRA ESTAGIARIO BELO HORIZONTE; BH-18PJ DIREITOS HUMANOS-GAB 125PJ 0,00 0,00 0,00 168,00 0,00 0,00 0,00 0,00 0,00 31/08/2023
363 379300 ANA CRISTINA ALVES FLAVIO ANALISTA DO MP SÃO GOTARDO - COMARCA; SAO GOTARDO-PJ-01PJ 1.500,00 950,00 605,00 0,00 5.840,90 0,00 0,00 0,00 535,42 31/08/2023
364 461200 ANA CRISTINA ALVES PASCHOAL ANALISTA DO MP BELO HORIZONTE - COMARCA; BH-07PJ 03 TRIBUNAL DO JURI-GAB 064PJ 1.500,00 0,00 605,00 0,00 5.924,93 0,00 0,00 0,00 1.291,37 31/08/2023
365 514100 ANA CRISTINA ARAUJO ASSUNCAO ANALISTA DO MP BELO HORIZONTE - COMARCA; ASSESS JUR DO CONS SUPERIOR DO MINISTERIO PUB 1.500,00 950,00 605,00 0,00 0,00 0,00 0,00 0,00 732,62 31/08/2023
366 113401 ANA CRISTINA BRAGA ALBUQUERQUE ASSESSOR ADM. ESPECIAL BELO HORIZONTE - COMARCA; DIRETORIA-GERAL 1.500,00 0,00 0,00 0,00 0,00 0,00 0,00 0,00 0,00 31/08/2023
367 233800 ANA CRISTINA BRAGA SOARES OFICIAL DO MP BELO HORIZONTE - COMARCA; DIRETORIA DE CONTABILIDADE 1.500,00 0,00 605,00 0,00 0,00 0,00 0,00 0,00 0,00 31/08/2023
368 186400 ANA CRISTINA DE AZEVEDO LOPES OFICIAL DO MP UBÁ - COMARCA; UBA-PJ-01PJ 1.500,00 0,00 605,00 0,00 0,00 0,00 0,00 0,00 0,00 31/08/2023
369 693000 ANA CRISTINA DE MELO SILVEIRA ASSESSOR PROCURADOR JUSTICA BELO HORIZONTE - COMARCA; COORD DE CONTROLE CONSTITUCIONALIDADE 1.500,00 950,00 605,00 0,00 0,00 0,00 0,00 0,00 424,24 31/08/2023
370 465100 ANA CRISTINA DE OLIVEIRA GUIMARAES ANALISTA DO MP ITAJUBA - COMARCA; ITAJUBA-PJ-05PJ 1.500,00 950,00 605,00 0,00 0,00 0,00 0,00 0,00 917,17 31/08/2023
371 500600 ANA CRISTINA LATADO SUDARIO ANALISTA DO MP UBERLÂNDIA - COMARCA; UBERLANDIA-PJ-09PJ 1.500,00 0,00 605,00 0,00 0,00 0,00 0,00 0,00 732,56 31/08/2023
372 331400 ANA CRISTINA RIBEIRO ALVES OFICIAL DO MP BAMBUÍ - COMARCA; BAMBUI-PJ-UNPJ 1.500,00 0,00 605,00 0,00 0,00 0,00 0,00 0,00 993,57 31/08/2023
373 1585900 ANA CRISTINY GOMES OLIVEIRA ESTAGIARIO UNAI; UNAI-PJ-01PJ 0,00 0,00 0,00 252,00 0,00 0,00 0,00 0,00 0,00 31/08/2023
374 1552300 ANA ELISA TEIXEIRA GONCALVES ESTAGIARIO IBIRITE; IBIRITE-PJ-06PJ
375 249300 ANA ELOINA MARTINS OFICIAL DO MP BETIM - COMARCA; BETIM-PJ-02PJ 1.500,00 0,00 605,00 0,00 0,00 0,00 0,00 0,00 0,00 31/08/2023
376 611500 ANA FLAVIA AFONSO DRUMOND AMORIM PROMOTOR 2A ENTRANCIA PIRAPORA - COMARCA; PIRAPORA-PJ-02PJ 1.500,00 0,00 0,00 0,00 31.663,28 0,00 0,00 0,00 0,00 31/08/2023
377 1466700 ANA FLAVIA ALVES ARAUJO ESTAGIARIO NOVA LIMA; NOVA LIMA-PJ-SECRETARIA 0,00 0,00 0,00 228,00 0,00 0,00 0,00 0,00 0,00 31/08/2023
378 257400 ANA FLAVIA CAMBRAIA ANALISTA DO MP BELO HORIZONTE - COMARCA; BH-19PJ SAUDE-SECRETARIA 150PJ 1.500,00 0,00 605,00 0,00 5.167,75 0,00 0,00 0,00 473,71 31/08/2023
379 248201 ANA FLAVIA DE MORAIS SOUZA ANALISTA DO MP DIVINÓPOLIS - COMARCA; DIVINOPOLIS-PJ-01PJ 1.500,00 1.900,00 605,00 0,00 0,00 0,00 0,00 0,00 43,88 31/08/2023
380 621100 ANA FLAVIA DINIZ TEODORO OFICIAL DO MP SANTA LUZIA - COMARCA; SANTA LUZIA-PJ-06PJ 1.500,00 0,00 605,00 0,00 0,00 0,00 0,00 0,00 402,16 31/08/2023
381 238600 ANA FLAVIA FRANCO OFICIAL DO MP BELO HORIZONTE - COMARCA; DIRETORIA DE PESSOAL ADMINISTRATIVO - DPAD 1.500,00 0,00 605,00 0,00 0,00 0,00 0,00 0,00 0,00 31/08/2023
382 690001 ANA FLAVIA LURIAN DE PAIVA PROMOTOR SUBSTITUTO BELO HORIZONTE - COMARCA; CENTRO DE ESTUDOS E APERFEICOAMENTO FUNCIONAL 1.500,00 0,00 867,00 0,00 0,00 0,00 0,00 0,00 0,00 31/08/2023
383 402900 ANA FLAVIA PORTES DE CARVALHO ANALISTA DO MP BELO HORIZONTE - COMARCA; DIRET DE PLANOS PROJETOS E PROGRAMAS INST 1.500,00 0,00 605,00 0,00 0,00 0,00 0,00 0,00 1.872,08 31/08/2023
384 1336700 ANA FLAVIA SANTOS PARAISO ESTAGIARIO BRASILIA DE MINAS; BRASILIA DE MINAS-PJ-01PJ 0,00 0,00 0,00 204,00 0,00 0,00 0,00 0,00 0,00 31/08/2023
385 1641900 ANA FLAVIA SILVA VIEIRA ESTAGIARIO GUAPE; GUAPE-PJ-UNPJ 0,00 0,00 0,00 216,00 0,00 0,00 0,00 0,00 0,00 31/08/2023
386 526300 ANA GABRIELA BRITO MELO ROCHA PROMOTOR 2A ENTRANCIA TRÊS PONTAS - COMARCA; TRES PONTAS-PJ-03PJ 1.500,00 0,00 2.257,82 0,00 39.579,09 0,00 0,00 0,00 0,00 31/08/2023
387 1638700 ANA GABRIELLA CORREIA SILVA ESTAGIARIO BELO HORIZONTE; GABINETE DE PROCURADOR DE JUSTIÇA - SALA 611 0,00 0,00 0,00 228,00 0,00 0,00 0,00 0,00 0,00 31/08/2023
388 1604100 ANA GABRIELLA OLIVEIRA BARBOSA ESTAGIARIO PERDIZES; PERDIZES-PJ-UNPJ 0,00 0,00 0,00 216,00 0,00 0,00 0,00 0,00 0,00 31/08/2023
389 1515200 ANA GABRIELLY SILVA ESTAGIARIO RIBEIRAO DAS NEVES; RIBEIRAO DAS NEVES-PJ-09PJ 0,00 0,00 0,00 240,00 0,00 0,00 0,00 0,00 0,00 31/08/2023
390 1488400 ANA JULIA DIXINI CARVALHO ESTAGIARIO TRES PONTAS; TRES PONTAS-PJ-03PJ 0,00 0,00 0,00 252,00 0,00 0,00 0,00 0,00 0,00 31/08/2023
391 1412300 ANA JULIA PEREIRA BELLEI GOMES ESTAGIARIO JUIZ DE FORA; JUIZ DE FORA-PJ-03PJ 0,00 0,00 0,00 240,00 0,00 0,00 0,00 0,00 0,00 31/08/2023
392 1624700 ANA JULIA RIBEIRO DE ANDRADE BATISTA ESTAGIARIO SANTA RITA DO SAPUCAI; SANTA RITA DO SAPUCAI-PJ-02PJ 0,00 0,00 0,00 252,00 0,00 0,00 0,00 0,00 0,00 31/08/2023
393 1483100 ANA JULIA RODRIGUES CAMPOS ESTAGIARIO ITAUNA; ITAUNA-PJ-05PJ 0,00 0,00 0,00 216,00 0,00 0,00 0,00 0,00 0,00 31/08/2023
394 1537300 ANA JULIA SOUSA DE JESUS ESTAGIARIO PAINS; ALFENAS-PJ-05PJ 0,00 0,00 0,00 252,00 0,00 0,00 0,00 0,00 0,00 31/08/2023
395 382700 ANA KARENINA SALDANHA GONTIJO ANALISTA DO MP BELO HORIZONTE - COMARCA; ASSESS TECNICO-JUR JUNTO AS PROC. DE JUST 1.500,00 0,00 605,00 0,00 5.927,82 0,00 0,00 0,00 543,38 31/08/2023
396 620500 ANA KARINE DE ANDRADE OLIVEIRA ANALISTA DO MP RIBEIRÃO DAS NEVES - COMARCA; RIBEIRAO NEVES-SEC PJ EXECUCAO PENAL 1.500,00 0,00 605,00 0,00 0,00 0,00 0,00 0,00 552,47 31/08/2023
397 1412600 ANA KAROLINE ARAUJO DA SILVA ESTAGIARIO BELO HORIZONTE; BH-12PJ JUIZO CRIMINAL-GAB 083PJ 0,00 0,00 0,00 228,00 0,00 0,00 0,00 0,00 0,00 31/08/2023
398 1520600 ANA KAROLYNA OLIVEIRA MORAIS ESTAGIARIO BELO HORIZONTE; BH-17PJ PATRIMONIO PUBLICO-GAB 121PJ 0,00 0,00 0,00 228,00 0,00 0,00 0,00 0,00 0,00 31/08/2023
399 1420700 ANA LAURA CARVALHO GENEROSO ESTAGIARIO BELO HORIZONTE; GABINETE DE PROCURADOR DE JUSTIÇA - SALA 1013
400 1417200 ANA LAURA FERREIRA DA SILVA ESTAGIARIO UBERABA; UBERABA-PJ-16PJ 0,00 0,00 0,00 216,00 0,00 0,00 0,00 0,00 0,00 31/08/2023
401 1457800 ANA LAURA GONCALVES DE MENEZES ESTAGIARIO UBERLANDIA; COORD REG DEF ORDEM ECON TRIB UBERLANDIA 0,00 0,00 0,00 216,00 0,00 0,00 0,00 0,00 0,00 31/08/2023
402 1562000 ANA LAURA MENDONCA SILVA DE ARAUJO ESTAGIARIO CONTAGEM; CONTAGEM-PJ-08PJ 0,00 0,00 0,00 156,00 0,00 0,00 0,00 0,00 0,00 31/08/2023
403 1503800 ANA LAURA PEREIRA MORAIS ESTAGIARIO CONCEICAO DAS ALAGOAS; CONCEICAO DAS ALAGOAS-PJ-01PJ 0,00 0,00 0,00 228,00 0,00 0,00 0,00 0,00 0,00 31/08/2023
404 1634900 ANA LAURA SOARES DE OLIVEIRA ESTAGIARIO ITUIUTABA; ITUIUTABA-PJ-05PJ 0,00 0,00 0,00 228,00 0,00 0,00 0,00 0,00 0,00 31/08/2023
405 57400 ANA LEIA SALOMAO E RIBEIRO PROMOT.ENTRANC.ESPECIAL JUIZ DE FORA - COMARCA; JUIZ DE FORA-PJ-17PJ 1.500,00 0,00 1.576,36 0,00 24.048,01 0,00 0,00 0,00 734,80 31/08/2023
406 224300 ANA LETICIA MARTINS DE SOUZA PROMOT.ENTRANC.ESPECIAL CONTAGEM - COMARCA; CONTAGEM-PJ-13PJ 1.500,00 0,00 1.103,45 0,00 11.903,48 0,00 0,00 0,00 0,00 31/08/2023
407 1664500 ANA LICIA SALES LAFETA ESTAGIARIO CORACAO DE JESUS; CORACAO DE JESUS-PJ-UNPJ 0,00 0,00 0,00 516,00 0,00 0,00 0,00 0,00 0,00 31/08/2023
408 1476300 ANA LIVIA DE FREITAS SILVA ESTAGIARIO PARAOPEBA; PARAOPEBA-PJ-UNPJ 0,00 0,00 0,00 252,00 0,00 0,00 0,00 0,00 0,00 31/08/2023
409 1391300 ANA LIVIA DO NASCIMENTO TORQUATO ESTAGIARIO GUAXUPE; GUAXUPE-PJ-01PJ 0,00 0,00 0,00 252,00 0,00 0,00 0,00 0,00 0,00 31/08/2023
410 462200 ANA LUCIA ANDRADE TOMICH OTTONI ANALISTA DO MP TEÓFILO OTONI - COMARCA; TEOFILO OTONI-PJ-07PJ 1.500,00 950,00 605,00 0,00 0,00 0,00 0,00 0,00 855,34 31/08/2023
411 504100 ANA LUCIA CATAO DE CARVALHO OFICIAL DO MP BELO HORIZONTE - COMARCA; DIR RELACOES INSTITUCIONAIS 1.500,00 0,00 605,00 0,00 0,00 0,00 0,00 0,00 0,00 31/08/2023
412 274700 ANA LUCIA DE ALENCAR BRAGATO OFICIAL DO MP UBERABA - COMARCA; UBERABA-PJ-07PJ 1.500,00 0,00 605,00 0,00 0,00 0,00 0,00 0,00 993,57 31/08/2023
413 509400 ANA LUCIA DORNELAS MALLOSTO ANALISTA DO MP JUIZ DE FORA - COMARCA; JUIZ DE FORA-PJ-25PJ 1.500,00 0,00 605,00 0,00 0,00 0,00 0,00 0,00 877,96 31/08/2023
414 114600 ANA LUCIA JUNQUEIRA MUZZI CAVALIERI PROMOT.ENTRANC.ESPECIAL JUIZ DE FORA - COMARCA; JUIZ DE FORA-PJ-14PJ 1.500,00 0,00 3.571,05 0,00 17.607,26 0,00 0,00 0,00 733,64 31/08/2023
415 302600 ANA LUCIA LOPES SANTOS OFICIAL DO MP BELO HORIZONTE - COMARCA; DIVISÃO DE FISCALIZAÇÃO DAS RELAÇÕES DE CONSU 1.500,00 0,00 605,00 0,00 0,00 0,00 1.771,66 0,00 881,36 31/08/2023
416 1409600 ANA LUISA COSTA DA SILVA ARAUJO ESTAGIARIO GOVERNADOR VALADARES; GOVERNADOR VALADARES-PJ-13PJ 0,00 0,00 0,00 240,00 0,00 0,00 0,00 0,00 0,00 31/08/2023
417 716700 ANA LUISA DE LANA COELHO ASSESSOR PROCURADOR JUSTICA BELO HORIZONTE - COMARCA; PROC. JUSTICA CIVEL 1.500,00 0,00 605,00 0,00 0,00 0,00 0,00 0,00 421,34 31/08/2023
418 702000 ANA LUISA DE OLIVEIRA RIBEIRO ASSESSOR PROCURADOR JUSTICA BELO HORIZONTE - COMARCA; ASSESS TECNICO-JUR JUNTO AS PROC. DE JUST 1.500,00 0,00 605,00 0,00 0,00 0,00 0,00 0,00 435,69 31/08/2023
419 493400 ANA LUISA NOGUEIRA MOREIRA ANALISTA DO MP BELO HORIZONTE - COMARCA; BH-19PJ SAUDE-SECRETARIA 130PJ 1.500,00 0,00 605,00 0,00 0,00 0,00 0,00 0,00 713,23 31/08/2023
420 389300 ANA LUISA REUTER LIMA ANALISTA DO MP BELO HORIZONTE - COMARCA; DIRETORIA DE SISTEMAS DE INFORMACAO 1.500,00 0,00 605,00 0,00 0,00 0,00 0,00 0,00 0,00 31/08/2023
421 1560300 ANA LUISA SIMAN VAZ ESTAGIARIO GOVERNADOR VALADARES; GOVERNADOR VALADARES-PJ-04PJ 0,00 0,00 0,00 132,00 0,00 0,00 0,00 0,00 0,00 31/08/2023
422 1422600 ANA LUIZA ALVES FERREIRA ESTAGIARIO BELO HORIZONTE; BH-23PJ INFRACIONAL-GAB 039PJ 0,00 0,00 0,00 228,00 0,00 0,00 0,00 0,00 0,00 31/08/2023
423 1580300 ANA LUIZA ANDRADE KOLASCO ESTAGIARIO BELO HORIZONTE; BH-13PJ JUIZO DE TOXICOS-COORD PJ 0,00 0,00 0,00 108,00 0,00 0,00 0,00 0,00 0,00 31/08/2023
424 1391000 ANA LUIZA ANTUNES DE OLIVEIRA ESTAGIARIO NANUQUE; NANUQUE-PJ-01PJ 0,00 0,00 0,00 252,00 0,00 0,00 0,00 0,00 0,00 31/08/2023
425 1667100 ANA LUIZA CONSTANTINO REIS ESTAGIARIO TIMOTEO; TIMOTEO-PJ-04PJ 0,00 0,00 0,00 120,00 0,00 0,00 0,00 0,00 0,00 31/08/2023
426 1405100 ANA LUIZA CUNHA ALVES ESTAGIARIO JUIZ DE FORA; JUIZ DE FORA-PJ-18PJ 0,00 0,00 0,00 144,00 0,00 0,00 0,00 0,00 0,00 31/08/2023
427 441100 ANA LUIZA DA COSTA E CRUZ PROMOTOR 2A ENTRANCIA PEDRO LEOPOLDO - COMARCA; PEDRO LEOPOLDO-PJ-03PJ 1.500,00 0,00 1.103,45 0,00 42.971,59 0,00 0,00 0,00 518,30 31/08/2023
428 161000 ANA LUIZA DE ABREU MOREIRA PROCURADOR DE JUSTICA BELO HORIZONTE - COMARCA; GABINETE DE PROCURADOR DE JUSTIÇA - SALA 1001 1.500,00 0,00 3.759,00 0,00 27.767,28 0,00 0,00 0,00 636,33 31/08/2023
429 480600 ANA LUIZA FERNANDES FRAGA E GRECO COORDENADOR I BELO HORIZONTE - COMARCA; OUVIDORIA DO MPMG 1.500,00 0,00 605,00 0,00 0,00 0,00 0,00 0,00 301,39 31/08/2023
430 1653300 ANA LUIZA FOSCHETTI BARBOSA ESTAGIARIO FORMIGA; FORMIGA-PJ-01PJ 0,00 0,00 0,00 228,00 0,00 0,00 0,00 0,00 0,00 31/08/2023
431 726800 ANA LUIZA GOMES PEREIRA ASSESSOR ADMINISTRATIVO I BELO HORIZONTE - COMARCA; OUVIDORIA DO MPMG 1.500,00 0,00 605,00 0,00 0,00 0,00 0,00 0,00 166,90 31/08/2023
432 685400 ANA LUIZA HENRIQUES BERGER MACHADO PROMOTOR 2A ENTRANCIA ARAÇUAÍ - COMARCA; ARACUAI-PJ-01PJ 1.500,00 0,00 867,00 0,00 30.532,46 0,00 0,00 0,00 518,30 31/08/2023
433 733600 ANA LUIZA MACHADO RODRIGUES ASSESSOR PROMOTOR JUSTICA CARMO DA MATA - COMARCA; CARMO DA MATA-PJ-UNPJ 1.500,00 0,00 605,00 0,00 0,00 0,00 0,00 0,00 26,94 31/08/2023
434 517800 ANA LUIZA MAGALHAES CIRINO PIOTO DE MELO OFICIAL DO MP BELO HORIZONTE - COMARCA; DIVISAO DE MATERIAIS 1.500,00 1.900,00 605,00 0,00 0,00 0,00 0,00 0,00 352,51 31/08/2023
435 1311400 ANA LUIZA MENDES VIANA ESTAGIARIO BELO HORIZONTE; BH-12PJ JUIZO CRIMINAL-GAB 086PJ 0,00 0,00 0,00 228,00 0,00 0,00 0,00 0,00 0,00 31/08/2023
436 1641800 ANA LUIZA PERILLO MOREIRA ESTAGIARIO JUIZ DE FORA; JUIZ DE FORA-PJ-04PJ 0,00 0,00 0,00 252,00 0,00 0,00 0,00 0,00 0,00 31/08/2023
437 1547500 ANA LUIZA REIS MARTINS ESTAGIARIO BELO HORIZONTE; BH-02PJ FAMILIA-GAB 019PJ 0,00 0,00 0,00 228,00 0,00 0,00 0,00 0,00 0,00 31/08/2023
438 1656400 ANA LUIZA SOARES BISPO ESTAGIARIO BELO HORIZONTE; BH-12PJ JUIZO CRIMINAL-GAB 105PJ 0,00 0,00 0,00 132,00 0,00 0,00 0,00 0,00 0,00 31/08/2023
439 1603300 ANA LUIZA VALERIA TORRES ESTAGIARIO BELO HORIZONTE; BH-25PJ DEFESA DA EDUCACAO-SECRETARIA 0,00 0,00 0,00 216,00 0,00 0,00 0,00 0,00 0,00 31/08/2023
440 481400 ANA MARCIA CANDIDA FERREIRA OFICIAL DO MP BRUMADINHO - COMARCA; BRUMADINHO-PJ-02PJ 1.500,00 0,00 605,00 0,00 0,00 0,00 0,00 0,00 433,72 31/08/2023
441 114700 ANA MARIA CAMILO DA HORA E ROCHA PROMOT.ENTRANC.ESPECIAL MONTES CLAROS - COMARCA; MONTES CLAROS-PJ-05PJ 1.500,00 0,00 3.571,05 0,00 32.064,01 0,00 0,00 0,00 734,80 31/08/2023
442 1553700 ANA MARIA DA SILVA PRADO ESTAGIARIO MURIAE; MURIAE-PJ-02PJ 0,00 0,00 0,00 252,00 0,00 0,00 0,00 0,00 0,00 31/08/2023
443 643100 ANA MARIA LOPES MIRANDA ANALISTA DO MP BELO HORIZONTE - COMARCA; CAO-FUNDACOES 1.500,00 950,00 605,00 0,00 0,00 0,00 0,00 0,00 566,82 31/08/2023
444 1446600 ANA MARIA MENDES GOULART ESTAGIARIO BELO HORIZONTE; BH-23PJ INFRACIONAL-GAB 140PJ 0,00 0,00 0,00 216,00 0,00 0,00 0,00 0,00 0,00 31/08/2023
445 556400 ANA MARIA OLIVEIRA SOUZA OFICIAL DO MP ITAPECERICA - COMARCA; ITAPECERICA-PJ-UNPJ 1.500,00 0,00 605,00 0,00 0,00 0,00 0,00 0,00 449,69 31/08/2023
446 409600 ANA OLIVIA FARIA ROSENBURG ANALISTA DO MP BELO HORIZONTE - COMARCA; DIRETORIA DO COLEGIO E DA CAMARA DE PJ 1.500,00 0,00 605,00 0,00 0,00 0,00 0,00 0,00 1.073,22 31/08/2023
447 461500 ANA PAULA ALVES CARVALHO ANALISTA DO MP UBERLÂNDIA - COMARCA; UBERLANDIA-PJ-25PJ 1.500,00 950,00 605,00 0,00 0,00 0,00 0,00 0,00 62,64 31/08/2023
448 523200 ANA PAULA ALVES DA SILVA OFICIAL DO MP GOVERNADOR VALADARES - COMARCA; GOVERNADOR VALADARES-PJ-10PJ 1.500,00 3.800,00 605,00 0,00 0,00 0,00 0,00 0,00 722,26 31/08/2023
449 381200 ANA PAULA BARROS PEREIRA RIGHI ANALISTA DO MP BELO HORIZONTE - COMARCA; PROC JUST ATUACAO TRIBUNAIS SUPERIORES-GAB003 1.500,00 950,00 605,00 0,00 0,00 0,00 0,00 0,00 0,00 31/08/2023
450 696400 ANA PAULA CARVALHO SILVA ASSESSOR PROMOTOR JUSTICA PERDÕES - COMARCA; PERDOES-PJ-UNPJ 1.500,00 950,00 605,00 0,00 0,00 0,00 0,00 0,00 481,97 31/08/2023
451 700900 ANA PAULA CRAVO SALOME ASSESSOR ADMINISTRATIVO I BELO HORIZONTE - COMARCA; PROCURADOR-GERAL DE JUSTIÇA 1.500,00 0,00 605,00 0,00 0,00 0,00 0,00 0,00 247,96 31/08/2023
452 227200 ANA PAULA DA SILVA CAMPOLINA ANALISTA DO MP BELO HORIZONTE - COMARCA; DIRETORIA DE ORCAMENTO-DIOR/SPC 1.500,00 0,00 605,00 0,00 0,00 0,00 0,00 0,00 0,00 31/08/2023
453 1589300 ANA PAULA DE ALMEIDA VIEIRA SOUZA ESTAGIARIO IPATINGA; IPATINGA-PJ-06PJ 0,00 0,00 0,00 228,00 0,00 0,00 0,00 0,00 0,00 31/08/2023
454 1438600 ANA PAULA DE SOUZA ESTAGIARIO BRASOPOLIS; BRASOPOLIS-PJ-UNPJ 0,00 0,00 0,00 108,00 0,00 0,00 0,00 0,00 0,00 31/08/2023
455 278500 ANA PAULA DIAS CAPANEMA OFICIAL DO MP BELO HORIZONTE - COMARCA; DIRETORIA DE SEGURANCA 1.500,00 0,00 605,00 0,00 0,00 0,00 0,00 0,00 0,00 31/08/2023
456 1429200 ANA PAULA DO NASCIMENTO LAGES ESTAGIARIO BELO HORIZONTE; BH-17PJ PATRIMONIO PUBLICO-GAB 004PJ 0,00 0,00 0,00 228,00 0,00 0,00 0,00 0,00 0,00 31/08/2023
457 327300 ANA PAULA GARCIA MAXIMO OFICIAL DO MP UNAÍ - COMARCA; UNAI-PJ-01PJ 1.500,00 0,00 605,00 0,00 0,00 0,00 0,00 0,00 39,65 31/08/2023
458 738700 ANA PAULA GOMES ANTUNES ASSESSOR PROMOTOR JUSTICA CORAÇÃO DE JESUS - COMARCA; CORACAO DE JESUS-PJ-UNPJ 1.500,00 0,00 605,00 0,00 0,00 0,00 0,00 0,00 0,00 31/08/2023
459 270000 ANA PAULA GOULART CRUZ DE MAGALHAES ANALISTA DO MP BELO HORIZONTE - COMARCA; ASSESSORIA ESPECIAL DO PGJ 1.500,00 0,00 605,00 0,00 0,00 0,00 0,00 0,00 0,00 31/08/2023
460 262100 ANA PAULA KOMATSUZAKI ABIJAUDI ANALISTA DO MP BELO HORIZONTE - COMARCA; BH-17PJ PATRIMONIO PUBLICO-SECRETARIA 1.500,00 0,00 605,00 0,00 0,00 0,00 0,00 0,00 0,00 31/08/2023
461 671400 ANA PAULA LIMA DA SILVA PROMOTOR 2A ENTRANCIA RIO CASCA - COMARCA; RIO CASCA-PJ-UNPJ 1.500,00 0,00 1.786,55 0,00 42.971,60 0,00 0,00 0,00 518,30 31/08/2023
462 222600 ANA PAULA LOURENCO DE PAULA PROMOTOR 2A ENTRANCIA ITUIUTABA - COMARCA; ITUIUTABA-PJ-03PJ 1.500,00 0,00 3.392,49 0,00 17.941,60 0,00 0,00 0,00 548,22 31/08/2023
463 1418000 ANA PAULA MACHADO DE OLIVEIRA ESTAGIARIO BELO HORIZONTE; BH-23PJ INFRACIONAL-GAB 142PJ 0,00 0,00 0,00 192,00 0,00 0,00 0,00 0,00 0,00 31/08/2023
464 106200 ANA PAULA MENDES RODRIGUES PROCURADOR DE JUSTICA BELO HORIZONTE - COMARCA; PROC JUSTICA DIR DIFUSOS E COLETIVOS-GAB007 1.500,00 0,00 1.445,00 0,00 16.032,01 0,00 0,00 0,00 0,00 31/08/2023
465 278900 ANA PAULA MOREIRA GURGEL ANALISTA DO MP BELO HORIZONTE - COMARCA; ASSESSORIA JURIDICO-ADMINISTRATIVA 1.500,00 0,00 605,00 0,00 0,00 0,00 0,00 0,00 246,47 31/08/2023
466 745500 ANA PAULA OLIVEIRA MENDES OFICIAL DO MP TARUMIRIM - COMARCA; TARUMIRIM-PJ-UNPJ 1.500,00 0,00 605,00 0,00 0,00 0,00 0,00 0,00 0,00 31/08/2023
467 1333700 ANA PAULA PACHECO DA SILVA ARAUJO ESTAGIARIO BELO HORIZONTE; GABINETE DE PROCURADOR DE JUSTIÇA - SALA 713 0,00 0,00 0,00 60,00 0,00 0,00 0,00 0,00 0,00 31/08/2023
468 1567000 ANA PAULA PEREIRA ESTAGIARIO VISCONDE DO RIO BRANCO; VISCONDE DO RIO BRANCO-PJ-02PJ 0,00 0,00 0,00 252,00 0,00 0,00 0,00 0,00 0,00 31/08/2023
469 484400 ANA PAULA RESENDE DORNELLAS DE AZEVEDO PROMOTOR SUBSTITUTO CONTAGEM - COMARCA; CONTAGEM-PJ-19PJ 1.500,00 3.800,00 3.222,87 0,00 18.262,93 0,00 0,00 0,00 492,38 31/08/2023
470 425701 ANA PAULA ROCHA ANALISTA DO MP BELO HORIZONTE - COMARCA; ASSESSORIA DE COMUNICACAO INTEGRADA 1.500,00 950,00 605,00 0,00 0,00 0,00 0,00 0,00 755,13 31/08/2023
471 1511700 ANA PAULA ROSA ESTAGIARIO PATROCINIO; PATROCINIO-PJ-03PJ 0,00 0,00 0,00 228,00 0,00 0,00 0,00 0,00 0,00 31/08/2023
472 395601 ANA PAULA SALGE OLIVEIRA ANALISTA DO MP UBERABA - COMARCA; UBERABA-PJ-15PJ 1.500,00 0,00 605,00 0,00 0,00 0,00 0,00 0,00 993,57 31/08/2023
473 473200 ANA PAULA SCOTTON BRASIL ANALISTA DO MP JUIZ DE FORA - COMARCA; JUIZ DE FORA-PJ-09PJ 1.500,00 0,00 605,00 0,00 0,00 0,00 0,00 0,00 892,41 31/08/2023
474 633600 ANA PAULA SILVA FERNANDES OFICIAL DO MP CATAGUASES - COMARCA; CATAGUASES-PJ-04PJ 1.500,00 0,00 605,00 0,00 0,00 29,82 0,00 0,00 439,30 31/08/2023
475 1659700 ANA PAULA TEIXEIRA ESTAGIARIO COROMANDEL; COROMANDEL-PJ-01PJ 0,00 0,00 0,00 480,00 0,00 0,00 0,00 0,00 0,00 31/08/2023
476 470900 ANA PAULA VALADARES ANALISTA DO MP PITANGUI - COMARCA; PITANGUI-PJ-01PJ 1.500,00 0,00 605,00 0,00 0,00 0,00 0,00 0,00 732,43 31/08/2023
477 447000 ANA PAULA VALENTIM DE ARAUJO ANALISTA DO MP BELO HORIZONTE - COMARCA; PROC JUST ESP ACOES COMP ORIG CRIMINAL-ASSESS 1.500,00 0,00 605,00 0,00 5.870,43 0,00 0,00 0,00 538,12 31/08/2023
478 604200 ANA PAULA VIANA E SILVA OFICIAL DO MP BELO HORIZONTE - COMARCA; BH-17PJ PATRIMONIO PUBLICO-SECRETARIA 1.500,00 0,00 605,00 0,00 0,00 0,00 0,00 0,00 397,60 31/08/2023
479 505400 ANA PAULA VIEIRA SOUTO OFICIAL DO MP ALMENARA - COMARCA; ALMENARA-PJ-01PJ 1.500,00 0,00 605,00 0,00 0,00 0,00 0,00 0,00 511,90 31/08/2023
480 280200 ANA RACHEL BRANDAO LADEIRA ROLAND ANALISTA DO MP BELO HORIZONTE - COMARCA; SUPERINTENDENCIA GESTÃO DE PESSOAS 1.500,00 0,00 605,00 0,00 0,00 0,00 0,00 0,00 0,00 31/08/2023
481 601200 ANA REGINA RIBEIRO ANALISTA DO MP BELO HORIZONTE - COMARCA; DIV FISCAL ADM CONT TERCEIRIZACAO 1.500,00 0,00 605,00 0,00 0,00 0,00 0,00 0,00 0,00 31/08/2023
482 384700 ANA RODRIGUES PEREIRA MARRA ANALISTA DO MP COROMANDEL - COMARCA; COROMANDEL-PJ-01PJ 1.500,00 1.900,00 605,00 0,00 0,00 0,00 0,00 0,00 943,55 31/08/2023
483 232700 ANA SILVIA SEMBLANO NAKAMURA OFICIAL DO MP BELO HORIZONTE - COMARCA; CENT DE APOIO TEC-SETOR DEF,IDOSO E INFANC 1.500,00 0,00 605,00 0,00 0,00 0,00 0,00 0,00 36,21 31/08/2023
484 1635400 ANA SOFIA HORTA OLIVEIRA MARTINS DE SOUSA ESTAGIARIO BELO HORIZONTE; DIR RELACOES INSTITUCIONAIS 0,00 0,00 0,00 216,00 0,00 0,00 0,00 0,00 0,00 31/08/2023
485 1417800 ANA TARSILA MAIA CORTES ESTAGIARIO BELO HORIZONTE; BH-08PJ JUIZADO ESPECIAL-GAB 070PJ 0,00 0,00 0,00 228,00 0,00 0,00 0,00 0,00 0,00 31/08/2023
486 1649000 ANA TEREZA COSTA ROCHA ESTAGIARIO BELO HORIZONTE; GABINETE DE PROCURADOR DE JUSTIÇA - SALA 1012 0,00 0,00 0,00 108,00 0,00 0,00 0,00 0,00 0,00 31/08/2023
487 1437900 ANA TEREZA RIBEIRO ALFENAS ESTAGIARIO UBA; UBA-PJ-01PJ 0,00 0,00 0,00 252,00 0,00 0,00 0,00 0,00 0,00 31/08/2023
488 530300 ANA TEREZA RIBEIRO SALLES GIACOMINI PROMOTOR 2A ENTRANCIA OURO PRETO - COMARCA; OURO PRETO-PJ-02PJ 1.500,00 950,00 3.392,49 0,00 5.654,16 0,00 0,00 0,00 518,30 31/08/2023
489 1642900 ANA VIRGINIA SANTOS DEMUNER ESTAGIARIO OLIVEIRA; OLIVEIRA-PJ-02PJ 0,00 0,00 0,00 228,00 0,00 0,00 0,00 0,00 0,00 31/08/2023
490 1639800 ANA VITORIA BORGES DE CARVALHO ESTAGIARIO UBERLANDIA; UBERLANDIA-PJ-15PJ 0,00 0,00 0,00 228,00 0,00 0,00 0,00 0,00 0,00 31/08/2023
491 602100 ANACLETO FRANCISCO MARCIER PIMENTA OFICIAL DO MP SÃO JOÃO DEL REI - COMARCA; SAO JOAO DEL REI-PJ-03PJ 1.500,00 2.850,00 605,00 0,00 0,00 0,00 0,00 0,00 376,80 31/08/2023
492 310400 ANADEJE DO CARMO DINIZ ARAUJO OFICIAL DO MP BELO HORIZONTE - COMARCA; DIRETORIA DE PESSOAL ADMINISTRATIVO - DPAD 1.500,00 0,00 605,00 0,00 0,00 0,00 0,00 0,00 993,57 31/08/2023
493 337000 ANAILDES MARIA MENDES OFICIAL DO MP JANAÚBA - COMARCA; JANAUBA-PJ-02PJ 1.500,00 950,00 605,00 0,00 0,00 0,00 0,00 0,00 861,15 31/08/2023
494 1619700 ANALUZ CRISTINA GONCALVES NASCIMENTO ESTAGIARIO GUARANESIA; GUARANESIA-PJ-UNPJ 0,00 0,00 0,00 240,00 0,00 0,00 0,00 0,00 0,00 31/08/2023
495 1631100 ANANDA COUTO DE OLIVEIRA ESTAGIARIO BELO HORIZONTE; PROC JUST ATUACAO TRIBUNAIS SUPERIORES-GAB003 0,00 0,00 0,00 216,00 0,00 0,00 0,00 0,00 0,00 31/08/2023
496 1631300 ANANDA MITCHI ARAUJO GODINHO ESTAGIARIO BELO HORIZONTE; COORD DE INCLUSAO E MOBILIZACAO SOCIAIS 0,00 0,00 0,00 144,00 0,00 0,00 0,00 0,00 0,00 31/08/2023
497 1653800 ANASTACIA CRISTINA RODRIGUES ESTAGIARIO PASSOS; PASSOS-PJ-05PJ 0,00 0,00 0,00 204,00 0,00 0,00 0,00 0,00 0,00 31/08/2023
498 377400 ANDEIRSON DA MATTA BARBOSA ANALISTA DO MP POUSO ALEGRE - COMARCA; POUSO ALEGRE-PJ-01PJ 1.500,00 950,00 605,00 0,00 0,00 0,00 0,00 0,00 943,55 31/08/2023
499 317400 ANDERSON DA SILVA BICALHO OFICIAL DO MP CONTAGEM - COMARCA; CONTAGEM-PJ-SECRETARIA 1.500,00 0,00 605,00 0,00 0,00 0,00 0,00 0,00 0,00 31/08/2023
500 506900 ANDERSON DE SOUZA DAMIANI ANALISTA DO MP BELO HORIZONTE - COMARCA; DIRETORIA DE PAGAMENTO DE PESSOAL-DPAG 1.500,00 0,00 605,00 0,00 0,00 0,00 0,00 0,00 31,68 31/08/2023
501 410000 ANDERSON DE SOUZA NETO ASSESSOR ADMINISTRATIVO II BELO HORIZONTE - COMARCA; DIRETORIA DE ADMINISTRACAO FINANCEIRA 1.500,00 0,00 605,00 0,00 0,00 0,00 0,00 0,00 385,76 31/08/2023
502 1584400 ANDERSON FELIPPE FERREIRA ESTAGIARIO BELO HORIZONTE; OUVIDORIA DO MPMG 0,00 0,00 0,00 228,00 0,00 0,00 0,00 0,00 0,00 31/08/2023
503 181900 ANDERSON FLAVIO DE OLIVEIRA OFICIAL DO MP ITAGUARA - COMARCA; ITAGUARA-PJ-SECRETARIA 1.500,00 0,00 605,00 0,00 0,00 0,00 0,00 0,00 0,00 31/08/2023
504 333200 ANDERSON JOSE DE FREITAS OFICIAL DO MP IPATINGA - COMARCA; IPATINGA-PJ-04PJ 1.500,00 950,00 605,00 0,00 0,00 0,00 1.771,66 0,00 1.103,19 31/08/2023
505 1555400 ANDERSON LUCAS DE ANDRADE SILVA ESTAGIARIO PRADOS; PRADOS-PJ-UNPJ 0,00 0,00 0,00 252,00 0,00 0,00 0,00 0,00 0,00 31/08/2023
506 699400 ANDERSON LUIZ CABRAL ASSESSOR PROMOTOR JUSTICA ALÉM PARAÍBA - COMARCA; ALEM PARAIBA-PJ-03PJ 1.500,00 0,00 605,00 0,00 0,00 0,00 0,00 0,00 456,00 31/08/2023
507 462100 ANDERSON LUIZ GUIMARAES CARDOSO ANALISTA DO MP BARBACENA - COMARCA; BARBACENA-PJ-02PJ 1.500,00 0,00 605,00 0,00 0,00 0,00 0,00 0,00 0,00 31/08/2023
508 429700 ANDERSON MELO DE SOUZA COORDENADOR II BELO HORIZONTE - COMARCA; DIRET DE ESTAGIOS E CONVENIOS ACADEMICOS 1.500,00 0,00 605,00 0,00 0,00 0,00 0,00 0,00 1.555,93 31/08/2023
509 545600 ANDERSON MENDES PROCOPIO FERREIRA ANALISTA DO MP BELO HORIZONTE - COMARCA; BH-12PJ JUIZO CRIMINAL-GAB 089PJ 1.500,00 0,00 605,00 0,00 0,00 0,00 0,00 0,00 892,51 31/08/2023
510 519900 ANDERSON MOREIRA DOEHLER ANALISTA DO MP TEÓFILO OTONI - COMARCA; COORD REG SAUDE MACRORREGIAO SANIT NORDESTE 1.500,00 0,00 605,00 0,00 0,00 0,00 0,00 0,00 0,00 31/08/2023
511 1379900 ANDERSON NASCIMENTO DOS SANTOS ESTAGIARIO MARIANA; MARIANA-PJ-01PJ 0,00 0,00 0,00 252,00 0,00 0,00 0,00 0,00 0,00 31/08/2023
512 103000 ANDERSON TADEU DE DEUS ASSESSOR ADMINISTRATIVO II BELO HORIZONTE - COMARCA; BH-26 CRIME CONT CRIAN ADOL-SECRETARIA 1.500,00 0,00 605,00 0,00 4.504,02 0,00 0,00 0,00 725,80 31/08/2023
513 652500 ANDERSON TADEU LOPES INVESTIGADOR DE POLICIA 2 CONTAGEM - COMARCA; COORD REG DEF ORDEM ECON TRIB CONTAGEM 1.500,00 0,00 0,00 0,00 0,00 0,00 0,00 0,00 0,00 31/08/2023
514 309200 ANDITYAS SOARES DE MOURA COSTA MATOS ANALISTA DO MP BELO HORIZONTE - COMARCA; GABINETE DE PROCURADOR DE JUSTIÇA - SALA 909 1.500,00 0,00 605,00 0,00 0,00 0,00 0,00 0,00 0,00 31/08/2023
515 1471100 ANDRE BAMBIRRA DE PAULA REIS ESTAGIARIO BELO HORIZONTE; GABINETE DE PROCURADOR DE JUSTIÇA - SALA 715 0,00 0,00 0,00 216,00 0,00 0,00 0,00 0,00 0,00 31/08/2023
516 519200 ANDRE BORJA LANA ANALISTA DO MP BELO HORIZONTE - COMARCA; DIR CONTEUDO JORNALISTICO 1.500,00 950,00 605,00 0,00 0,00 0,00 0,00 0,00 752,29 31/08/2023
517 486000 ANDRE CARDOSO CAVALCANTI PROMOTOR 2A ENTRANCIA ITAJUBA - COMARCA; ITAJUBA-PJ-02PJ 1.500,00 1.900,00 3.392,49 0,00 45.233,25 0,00 0,00 0,00 518,30 31/08/2023
518 1512600 ANDRE CHAVES REIS ESTAGIARIO BELO HORIZONTE; GABINETE DE PROCURADOR DE JUSTIÇA - SALA 407 0,00 0,00 0,00 12,00 0,00 0,00 0,00 0,00 0,00 31/08/2023
519 1526200 ANDRE DA SILVA RODRIGUES ESTAGIARIO IBIRITE; IBIRITE-PJ-04PJ 0,00 0,00 0,00 240,00 0,00 0,00 0,00 0,00 0,00 31/08/2023
520 102400 ANDRE DE OLIVEIRA ANDRADE PROMOT.ENTRANC.ESPECIAL BELO HORIZONTE - COMARCA; BH-02PJ FAMILIA-GAB 030PJ 1.500,00 0,00 3.571,05 0,00 24.048,01 0,00 0,00 0,00 734,80 31/08/2023
521 656000 ANDRE DE OLIVEIRA SOUSA INVESTIGADOR DE POLICIA 2 BELO HORIZONTE - COMARCA; GAECO - SETOR POLICIAL CIVIL 1.500,00 0,00 0,00 0,00 0,00 0,00 0,00 0,00 0,00 31/08/2023
522 79200 ANDRE ESTEVAO UBALDINO PEREIRA PROCURADOR DE JUSTICA BELO HORIZONTE - COMARCA; GABINETE DE PROCURADOR DE JUSTIÇA - SALA 502 1.500,00 0,00 3.759,00 0,00 24.048,01 0,00 0,00 0,00 734,80 31/08/2023
523 1519800 ANDRE FELIPE MURTA LEMES ESTAGIARIO NOVA LIMA; NOVA LIMA-PJ-03PJ 0,00 0,00 0,00 132,00 0,00 0,00 0,00 0,00 0,00 31/08/2023
524 1489700 ANDRE FELIPE REIS MENDES ESTAGIARIO BELO HORIZONTE; BH-09PJ AUDITORIA MILITAR-GAB 074PJ 0,00 0,00 0,00 156,00 0,00 0,00 0,00 0,00 0,00 31/08/2023
525 637200 ANDRE FERNANDES DA CUNHA OFICIAL DO MP MORADA NOVA DE MINAS - COMARCA; MORADA NOVA DE MINAS-PJ-UNPJ 1.500,00 0,00 605,00 0,00 0,00 0,00 0,00 0,00 533,09 31/08/2023
526 162800 ANDRE FERNANDO COLUCCO PROMOTOR 2A ENTRANCIA CASSIA - COMARCA; CASSIA-PJ-02PJ 1.500,00 0,00 3.392,49 0,00 18.822,81 0,00 0,00 0,00 575,14 31/08/2023
527 651500 ANDRE GONCALVES MARANHAO OFICIAL DO MP ANDRADAS - COMARCA; ANDRADAS-PJ-02PJ 1.500,00 0,00 605,00 0,00 0,00 0,00 0,00 0,00 315,21 31/08/2023
528 1603900 ANDRE HENRIQUE BARBOSA CAMPOS ESTAGIARIO RIBEIRAO DAS NEVES; RIBEIRAO DAS NEVES-PJ-SEC CRIMINAL 0,00 0,00 0,00 252,00 0,00 0,00 0,00 0,00 0,00 31/08/2023
529 439200 ANDRE LEITE DE ALMEIDA PROMOT.ENTRANC.ESPECIAL VESPASIANO - COMARCA; VESPASIANO-PJ-03PJ 1.500,00 0,00 1.628,90 0,00 45.233,24 0,00 0,00 0,00 545,58 31/08/2023
530 1559100 ANDRE LUCAS GOMES DE BRITO ESTAGIARIO UBERABA; UBERABA-PJ-05PJ 0,00 0,00 0,00 192,00 0,00 0,00 0,00 0,00 0,00 31/08/2023
531 166900 ANDRE LUIS ALVES DE MELO PROMOTOR 2A ENTRANCIA ARAGUARI - COMARCA; ARAGUARI-PJ-01PJ 1.500,00 0,00 3.392,49 0,00 18.822,81 0,00 0,00 0,00 575,14 31/08/2023
532 85000 ANDRE LUIS GARCIA DE PINHO PROMOT.ENTRANC.ESPECIAL BELO HORIZONTE - COMARCA; SUPER DE GESTAO DE PESSOAS-EM DISPONIBILIDADE 0,00 950,00 3.047,76 0,00 0,00 0,00 0,00 0,00 0,00 31/08/2023
533 521900 ANDRE LUIS GOMES SILVA ANALISTA DO MP FORMIGA - COMARCA; FORMIGA-PJ-02PJ 1.500,00 2.375,00 605,00 0,00 0,00 0,00 0,00 0,00 936,15 31/08/2023
534 340800 ANDRE LUIS MACHADO ARANTES PROMOTOR 2A ENTRANCIA PARÁ DE MINAS - COMARCA; PARA DE MINAS-PJ-05PJ 1.500,00 0,00 3.571,05 0,00 35.710,46 0,00 0,00 0,00 2.331,10 31/08/2023
535 1551400 ANDRE LUIS RESENDE ESTAGIARIO DIVINOPOLIS; DIVINOPOLIS-PJ-01PJ 0,00 0,00 0,00 252,00 0,00 0,00 0,00 0,00 0,00 31/08/2023
536 304300 ANDRE LUIZ AVELAR ANALISTA DO MP BELO HORIZONTE - COMARCA; DIRETORIA DE REDES E BANCOS DE DADOS 1.500,00 0,00 605,00 0,00 0,00 0,00 0,00 0,00 664,92 31/08/2023
537 1621700 ANDRE LUIZ FERNANDES ESTAGIARIO VARGINHA; VARGINHA-PJ-06PJ 0,00 0,00 0,00 252,00 0,00 0,00 0,00 0,00 0,00 31/08/2023
538 666100 ANDRE LUIZ FERREIRA VALADARES PROMOTOR 2A ENTRANCIA VARZEA DA PALMA - COMARCA; VARZEA DA PALMA-PJ-02PJ 1.500,00 0,00 867,00 0,00 45.233,25 0,00 0,00 0,00 518,30 31/08/2023
539 530200 ANDRE LUIZ NOLLI MERRIGHI PROMOT.ENTRANC.ESPECIAL SETE LAGOAS - COMARCA; SETE LAGOAS-PJ-03PJ 1.500,00 0,00 3.571,05 0,00 47.613,95 0,00 0,00 0,00 545,58 31/08/2023
540 1569500 ANDRE MAGNO ALVES LOPES ESTAGIARIO BELO HORIZONTE; PROC JUST ATUACAO TRIBUNAIS SUPERIORES-GAB002 0,00 0,00 0,00 204,00 0,00 0,00 0,00 0,00 0,00 31/08/2023
541 718800 ANDRE OBERG LEMOS PROMOTOR SUBSTITUTO GRAO MOGOL - COMARCA; GRAO MOGOL-PJ-UNPJ 1.500,00 0,00 3.222,87 0,00 22.560,09 0,00 0,00 0,00 492,38 31/08/2023
542 397400 ANDRE PATARO MYRRHA DE PAULA E SILVA ANALISTA DO MP BELO HORIZONTE - COMARCA; ASSESSORIA JURIDICO-ADMINISTRATIVA 1.500,00 950,00 605,00 0,00 0,00 0,00 0,00 0,00 0,00 31/08/2023
543 533200 ANDRE PEREIRA MAFIA PROMOTOR 2A ENTRANCIA ALÉM PARAÍBA - COMARCA; ALEM PARAIBA-PJ-01PJ 1.500,00 0,00 919,55 0,00 12.439,15 0,00 0,00 0,00 518,30 31/08/2023
544 441200 ANDRE SALLES DIAS PINTO PROMOTOR 2A ENTRANCIA IGARAPÉ - COMARCA; IGARAPE-PJ-01PJ 1.500,00 950,00 3.392,49 0,00 45.233,26 0,00 0,00 0,00 518,30 31/08/2023
545 237800 ANDRE SILVARES VASCONCELOS PROMOTOR 2A ENTRANCIA PIUMHI - COMARCA; PIUMHI-PJ-02PJ 1.500,00 0,00 3.392,49 0,00 17.941,60 0,00 0,00 0,00 548,22 31/08/2023
546 231800 ANDRE SPERLING PRADO PROMOT.ENTRANC.ESPECIAL BELO HORIZONTE - COMARCA; BH-19PJ SAUDE-GAB 047PJ 1.500,00 0,00 3.415,45 0,00 19.916,55 0,00 0,00 0,00 608,56 31/08/2023
547 666300 ANDRE TANURE DOMINGUES FIGUEIREDO PROMOTOR 2A ENTRANCIA PONTE NOVA - COMARCA; PONTE NOVA-PJ-05PJ 1.500,00 0,00 2.318,06 0,00 45.233,25 0,00 0,00 0,00 518,30 31/08/2023
548 650100 ANDRE THOME VARGAS OFICIAL DO MP LEOPOLDINA - COMARCA; LEOPOLDINA-PJ-04PJ 1.500,00 0,00 605,00 0,00 0,00 0,00 0,00 0,00 441,56 31/08/2023
549 231600 ANDRE TUMA DELBIM FERREIRA PROMOT.ENTRANC.ESPECIAL UBERABA - COMARCA; UBERABA-PJ-10PJ 1.500,00 0,00 1.103,45 0,00 18.885,89 0,00 0,00 0,00 577,07 31/08/2023
550 671500 ANDRE VALDERRAMAS FRANCO PROMOTOR 2A ENTRANCIA MONTE CARMELO - COMARCA; MONTE CARMELO-PJ-02PJ 1.500,00 0,00 867,00 0,00 45.233,25 0,00 0,00 0,00 518,30 31/08/2023
551 548500 ANDRE VINICIUS CARVALHO MEIRA ANALISTA DO MP JUIZ DE FORA - COMARCA; JUIZ DE FORA-PJ-24PJ 1.500,00 0,00 605,00 0,00 0,00 0,00 0,00 0,00 0,00 31/08/2023
552 297200 ANDRE WILLE ROSARIO ANALISTA DO MP BELO HORIZONTE - COMARCA; ASSESSORIA ESPECIAL DO PGJ 1.500,00 0,00 605,00 0,00 0,00 0,00 0,00 0,00 0,00 31/08/2023
553 224500 ANDREA BASILIO GONCALVES GOLLOP PROMOT.ENTRANC.ESPECIAL BELO HORIZONTE - COMARCA; BH-18PJ VIOLENCIA DOMESTICA-GAB 186PJ 1.500,00 0,00 3.571,05 0,00 22.601,23 0,00 0,00 0,00 575,49 31/08/2023
554 666400 ANDREA CLEMENTE BARBOSA DE SOUZA PROMOTOR SUBSTITUTO ITAÚNA - COMARCA; ITAUNA-PJ-03PJ 1.500,00 950,00 2.852,60 0,00 10.742,90 0,00 0,00 0,00 0,00 31/08/2023
555 423600 ANDREA COSTA GUALBERTO ALVES ANALISTA DO MP GOVERNADOR VALADARES - COMARCA; COORD REG PJ DEF EDU DIR CRIANCA ADOL RIODOCE 1.500,00 0,00 605,00 0,00 0,00 0,00 0,00 0,00 0,00 31/08/2023
556 230600 ANDREA CRISTINA CALDAS SANTIAGO PROMOT.ENTRANC.ESPECIAL CONSELHEIRO LAFAIETE - COMARCA; CONSELHEIRO LAFAIETE-PJ-07PJ 1.500,00 0,00 1.970,45 0,00 0,00 0,00 0,00 0,00 0,00 31/08/2023
557 467300 ANDREA DE CASSIA PENNA ALVERNAZ ANALISTA DO MP PONTE NOVA - COMARCA; PONTE NOVA-PJ-01PJ 1.500,00 0,00 605,00 0,00 0,00 0,00 0,00 0,00 835,69 31/08/2023
558 308000 ANDREA DE CASSIA SANTOS OLIVEIRA ANALISTA DO MP BELO HORIZONTE - COMARCA; COORD DE GABINETE DO PGJ 1.500,00 0,00 605,00 0,00 0,00 0,00 0,00 0,00 0,00 31/08/2023
559 106300 ANDREA DE FIGUEIREDO SOARES PROCURADOR DE JUSTICA BELO HORIZONTE - COMARCA; GABINETE DE PROCURADOR DE JUSTIÇA - SALA 709 1.500,00 0,00 3.704,45 0,00 24.048,01 0,00 0,00 0,00 734,80 31/08/2023
560 349500 ANDREA DE OLIVEIRA LOIOLA REGIS OFICIAL DO MP IGUATAMA - COMARCA; IGUATAMA-PJ-UNPJ 1.500,00 0,00 605,00 0,00 0,00 0,00 0,00 0,00 772,64 31/08/2023
561 287900 ANDREA FERNANDES PENA MARTINS OFICIAL DO MP MONTES CLAROS - COMARCA; MONTES CLAROS-PJ-09PJ 1.500,00 0,00 605,00 0,00 0,00 0,00 0,00 0,00 993,57 31/08/2023
562 300800 ANDREA FERREIRA ANALISTA DO MP LAVRAS - COMARCA; LAVRAS-PJ-04PJ 1.500,00 0,00 605,00 0,00 0,00 0,00 0,00 0,00 0,00 31/08/2023
563 395100 ANDREA LANNA MENDES NOVAIS ANALISTA DO MP BELO HORIZONTE - COMARCA; PROMOT ESTADUAL DE DEF PATRI CULT E TUR DE MG 1.500,00 0,00 605,00 0,00 0,00 0,00 0,00 0,00 0,00 31/08/2023
564 67300 ANDREA LEAO MAGALHAES ROQUE ASSESSOR ADMINISTRATIVO IV BELO HORIZONTE - COMARCA; GRUPO ATUACAO ESP COMB CRIMES CIBER 1.500,00 0,00 605,00 0,00 0,00 0,00 0,00 0,00 0,00 31/08/2023
565 335700 ANDREA LOPES PEREIRA ANALISTA DO MP GOVERNADOR VALADARES - COMARCA; COORD REG DO MA DA BACIA DO RIO DOCE 1.500,00 0,00 605,00 0,00 0,00 0,00 0,00 0,00 0,00 31/08/2023
566 224700 ANDREA MARIA NESSRALLA BAHURY PROMOT.ENTRANC.ESPECIAL BELO HORIZONTE - COMARCA; BH-12PJ JUIZO CRIMINAL-GAB 089PJ 1.500,00 0,00 3.021,36 0,00 0,00 0,00 0,00 0,00 0,00 31/08/2023
567 167000 ANDREA MISMOTTO CARELLI PROMOT.ENTRANC.ESPECIAL BELO HORIZONTE - COMARCA; BH-26 CRIME CONT CRIAN ADOL-GAB 048PJ 1.500,00 0,00 1.208,55 0,00 19.916,55 0,00 0,00 0,00 608,56 31/08/2023
568 1436600 ANDREA ROSA DE SOUSA ESTAGIARIO TEOFILO OTONI; TEOFILO OTONI-PJ-04PJ 0,00 0,00 0,00 216,00 0,00 0,00 0,00 0,00 0,00 31/08/2023
569 389200 ANDREA TUPINI DOS SANTOS TRISTAO DA ROCHA GESTOR ADM. SECRETARIA IV BELO HORIZONTE - COMARCA; BH-13ª PJ JUÍZO DE TÓXICOS-SECRETARIA 1.500,00 0,00 605,00 0,00 0,00 0,00 0,00 0,00 907,60 31/08/2023
570 419000 ANDREIA BARBOSA DE ALMEIDA ANALISTA DO MP BELO HORIZONTE - COMARCA; CENT ESTAD COOPERACAO TECNICO-JURIDICA 1.500,00 0,00 605,00 0,00 0,00 0,00 0,00 0,00 0,00 31/08/2023
571 281501 ANDREIA CARLA COSTA ANALISTA DO MP UBÁ - COMARCA; UBA-PJ-02PJ 1.500,00 0,00 605,00 0,00 0,00 0,00 0,00 0,00 0,00 31/08/2023
572 477100 ANDREIA DE ALMEIDA RIBEIRO MELO OFICIAL DO MP CONTAGEM - COMARCA; CONTAGEM-PJ-SECRETARIA 1.500,00 0,00 605,00 0,00 0,00 0,00 0,00 0,00 0,00 31/08/2023
573 619000 ANDREIA FERREIRA NORONHA COORDENADOR II BELO HORIZONTE - COMARCA; DIRETORIA DE SERVICO CRIMINAL 1.500,00 0,00 605,00 0,00 0,00 0,00 0,00 0,00 -582,62 31/08/2023
574 747000 ANDREIA FERREIRA TIAGO OFICIAL DO MP SÃO JOÃO DA PONTE - COMARCA; SAO JOAO DA PONTE-PJ-UNPJ 1.500,00 950,00 605,00 0,00 0,00 0,00 0,00 0,00 0,00 31/08/2023
575 424000 ANDREIA LUCIA COUTO ANALISTA DO MP BELO HORIZONTE - COMARCA; BH-18PJ DIREITOS HUMANOS-SECRETARIA 1.500,00 0,00 605,00 0,00 0,00 0,00 0,00 0,00 0,00 31/08/2023
576 370100 ANDREIA MARIA SILVA PINTO OFICIAL DO MP CORONEL FABRICIANO - COMARCA; CORONEL FABRICIANO-PJ-01PJ 1.500,00 950,00 605,00 0,00 0,00 0,00 0,00 0,00 777,48 31/08/2023
577 382100 ANDREIA NATALI PEREIRA DE OLIVEIRA OFICIAL DO MP PRADOS - COMARCA; PRADOS-PJ-UNPJ 1.500,00 0,00 605,00 0,00 0,00 0,00 0,00 0,00 0,00 31/08/2023
578 198701 ANDREIA NUNES DURAES PROMOTOR 2A ENTRANCIA BOCAIÚVA - COMARCA; BOCAIUVA-PJ-02PJ 1.500,00 0,00 0,00 0,00 45.233,25 0,00 0,00 0,00 518,30 31/08/2023
579 275200 ANDREIA RIBEIRO FREITAS OFICIAL DO MP VIÇOSA - COMARCA; VICOSA-PJ-04PJ 1.500,00 0,00 605,00 0,00 0,00 0,00 0,00 0,00 0,00 31/08/2023
580 352200 ANDREIA XAVIER PEREIRA OFICIAL DO MP DIVINÓPOLIS - COMARCA; DIVINOPOLIS-PJ-08PJ 1.500,00 1.425,00 605,00 0,00 0,00 0,00 0,00 0,00 905,30 31/08/2023
581 1626100 ANDREINA BERNARDES PERES ESTAGIARIO PATOS DE MINAS; PATOS DE MINAS-PJ-03PJ 0,00 0,00 0,00 216,00 0,00 0,00 0,00 0,00 0,00 31/08/2023
582 638500 ANDRESA ALVES FEITOSA CASAGRANDE ANALISTA DO MP LAVRAS - COMARCA; COORD REG DO MA DA BACIA DO RIO GRANDE 1.500,00 0,00 605,00 0,00 0,00 0,00 0,00 0,00 0,00 31/08/2023
583 1566800 ANDRESON FERREIRA DE SOUZA ESTAGIARIO UBA; UBA-PJ-01PJ 0,00 0,00 0,00 252,00 0,00 0,00 0,00 0,00 0,00 31/08/2023
584 1331800 ANDRESSA ALBUQUERQUE BATISTA ESTAGIARIO JUIZ DE FORA; JUIZ DE FORA-PJ-15PJ 0,00 0,00 0,00 252,00 0,00 0,00 0,00 0,00 0,00 31/08/2023
585 1466400 ANDRESSA BARROS TOMAZ ESTAGIARIO ITUMIRIM; ITUMIRIM-PJ-UNPJ 0,00 0,00 0,00 108,00 0,00 0,00 0,00 0,00 0,00 31/08/2023
586 1661100 ANDRESSA CRISTINA MARTINS PEREIRA ESTAGIARIO BELO HORIZONTE; BH-14PJ DEFESA CONSUMIDOR-SECRETARIA
587 1475200 ANDRESSA DA SILVA COUTO ESTAGIARIO BELO HORIZONTE; GABINETE DE PROCURADOR DE JUSTIÇA - SALA 702 0,00 0,00 0,00 12,00 0,00 0,00 0,00 0,00 0,00 31/08/2023
588 1631900 ANDRESSA DANIELY PEREIRA ESTAGIARIO TRES CORACOES; TRES CORACOES-PJ-03PJ 0,00 0,00 0,00 192,00 0,00 0,00 0,00 0,00 0,00 31/08/2023
589 210000 ANDRESSA DE OLIVEIRA LANCHOTTI PROMOT.ENTRANC.ESPECIAL BELO HORIZONTE - COMARCA; BH-12PJ JUIZO CRIMINAL-GAB 104PJ 1.500,00 0,00 3.571,05 0,00 17.578,74 0,00 0,00 0,00 575,49 31/08/2023
590 1372300 ANDRESSA DE OLIVEIRA RESENDE ESTAGIARIO SAO ROQUE DE MINAS; SAO ROQUE DE MINAS-PJ-UNPJ 0,00 0,00 0,00 180,00 0,00 0,00 0,00 0,00 0,00 31/08/2023
591 383700 ANDRESSA EDUARDO SOUZA ANALISTA DO MP OURO BRANCO - COMARCA; OURO BRANCO-PJ-SECRETARIA 1.500,00 1.900,00 605,00 0,00 0,00 0,00 0,00 0,00 0,00 31/08/2023
592 485500 ANDRESSA ISABELLE FERREIRA BARRETO PROMOTOR 2A ENTRANCIA CONCEICAO DAS ALAGOAS - COMARCA; CONCEICAO DAS ALAGOAS-PJ-02PJ 1.500,00 1.710,00 3.392,49 0,00 45.233,25 0,00 0,00 0,00 518,30 31/08/2023
593 1617700 ANDRESSA LAIS ALMEIDA ALECRIM ESTAGIARIO CAPELINHA; CAPELINHA-PJ-02PJ 0,00 0,00 0,00 228,00 0,00 0,00 0,00 0,00 0,00 31/08/2023
594 678400 ANDRESSA LUIZA SILVA LOPES ASSESSOR PROMOTOR JUSTICA CARMO DO PARANAÍBA - COMARCA; CARMO DO PARANAIBA-PJ-02PJ 1.500,00 0,00 605,00 0,00 0,00 0,00 0,00 0,00 435,82 31/08/2023
595 426200 ANDRESSA MENDES CASAL OFICIAL DO MP BELO HORIZONTE - COMARCA; DIR ESTRUTURA E PROCESSOS ORGANIZACIONAIS 1.500,00 950,00 605,00 0,00 0,00 0,00 0,00 0,00 566,56 31/08/2023
596 390100 ANDRESSA RIBEIRO PUCCI OFICIAL DO MP UBERABA - COMARCA; UBERABA-PJ-14PJ 1.500,00 0,00 605,00 0,00 0,00 0,00 0,00 0,00 0,00 31/08/2023
597 1564200 ANDRESSA RODRIGUES DOS SANTOS ESTAGIARIO GUAXUPE; GUAXUPE-PJ-02PJ 0,00 0,00 0,00 252,00 0,00 0,00 0,00 0,00 0,00 31/08/2023
598 1537800 ANDRESSA VILELA FERREIRA ESTAGIARIO ITUIUTABA; ITUIUTABA-PJ-01PJ 0,00 0,00 0,00 228,00 0,00 0,00 0,00 0,00 0,00 31/08/2023
599 462500 ANDREZA APARECIDA COSTA E SILVA ANALISTA DO MP CONSELHEIRO LAFAIETE - COMARCA; CONSELHEIRO LAFAIETE-PJ-02PJ 1.500,00 1.900,00 605,00 0,00 0,00 0,00 0,00 0,00 713,23 31/08/2023
600 1406200 ANDREZA APARECIDA RABELO BELO ESTAGIARIO ITAGUARA; ITAGUARA-PJ-UNPJ 0,00 0,00 0,00 252,00 0,00 0,00 0,00 0,00 0,00 31/08/2023
601 1632400 ANDREZA CAROLYNE QUINTINO TRIGUEIRO DE LIMA ESTAGIARIO BELO HORIZONTE; BH-15PJ M AMB PAT HIST CULT-GAB 114PJ 0,00 0,00 0,00 228,00 0,00 0,00 0,00 0,00 0,00 31/08/2023
602 1515300 ANDREZA CRISTINA DA SILVA SOUZA ESTAGIARIO BELO HORIZONTE; BH-19PJ SAUDE-SECRETARIA 047PJ 0,00 0,00 0,00 228,00 0,00 0,00 0,00 0,00 0,00 31/08/2023
603 677700 ANDREZA DE LOURDES FERREIRA DE PAIVA ASSESSOR PROMOTOR JUSTICA ABRE CAMPO - COMARCA; ABRE CAMPO-PJ-01PJ 1.500,00 0,00 605,00 0,00 0,00 0,00 0,00 0,00 469,85 31/08/2023
604 1483200 ANDREZA FARIA MOSELI ESTAGIARIO VARGINHA; VARGINHA-PJ-04PJ 0,00 0,00 0,00 252,00 0,00 0,00 0,00 0,00 0,00 31/08/2023
605 741100 ANDREZA TAUANE CAMARA CASTRO PROMOTOR SUBSTITUTO BELO HORIZONTE - COMARCA; CENTRO DE ESTUDOS E APERFEICOAMENTO FUNCIONAL 1.500,00 0,00 867,00 0,00 0,00 0,00 0,00 0,00 0,00 31/08/2023
606 1447600 ANDREZZA CRISTINA DIAS DE ANDRADE ESTAGIARIO SANTOS DUMONT; SANTOS DUMONT-PJ-01PJ 0,00 0,00 0,00 228,00 0,00 0,00 0,00 0,00 0,00 31/08/2023
607 537800 ANDREZZA LUZIA DE OLIVEIRA ALVES ANALISTA DO MP PATOS DE MINAS - COMARCA; COORD REG PJ DEF EDU DIR CRI ADO AL PAR NOROE 1.500,00 0,00 605,00 0,00 0,00 0,00 0,00 0,00 920,72 31/08/2023
608 491600 ANE PATRICIA RIBEIRO DUARTE ANALISTA DO MP SETE LAGOAS - COMARCA; SETE LAGOAS-PJ-11PJ 1.500,00 0,00 605,00 0,00 0,00 0,00 0,00 0,00 732,70 31/08/2023
609 361900 ANELISA CARDOSO RIBEIRO PROMOT.ENTRANC.ESPECIAL CONTAGEM - COMARCA; CONTAGEM-PJ-05PJ 1.500,00 0,00 2.206,90 0,00 53.565,69 0,00 0,00 0,00 545,58 31/08/2023
610 465800 ANELISE GAMA ASSESSOR ADMINISTRATIVO III BELO HORIZONTE - COMARCA; BH-18PJ VIOLENCIA DOMESTICA-SECRETARIA 1.500,00 0,00 605,00 0,00 1.008,19 0,00 0,00 0,00 569,82 31/08/2023
611 535200 ANELIZE FERNANDA ALVES VILARINHO OFICIAL DO MP CAPINÓPOLIS - COMARCA; CAPINOPOLIS-PJ-UNPJ 1.500,00 2.850,00 605,00 0,00 0,00 0,00 0,00 0,00 527,47 31/08/2023
612 197200 ANGELA COELHO SALDANHA OFICIAL DO MP PARÁ DE MINAS - COMARCA; PARA DE MINAS-PJ-03PJ 1.500,00 0,00 605,00 0,00 0,00 0,00 0,00 0,00 0,00 31/08/2023
613 307400 ANGELA CRISTINA GONCALVES MUNIZ ANALISTA DO MP UBERLÂNDIA - COMARCA; UBERLANDIA-PJ-SEC FAMILIA 1.500,00 0,00 605,00 0,00 0,00 0,00 0,00 0,00 0,00 31/08/2023
614 157100 ANGELA FABERO PROMOT.ENTRANC.ESPECIAL BELO HORIZONTE - COMARCA; BH-23PJ INFRACIONAL-GAB 145PJ 1.500,00 0,00 3.571,05 0,00 24.048,01 0,00 0,00 0,00 734,80 31/08/2023
615 191800 ANGELA MARIA DE OLIVEIRA OFICIAL DO MP GUARANÉSIA - COMARCA; GUARANESIA-PJ-SECRETARIA 1.500,00 0,00 605,00 0,00 5.206,24 0,00 0,00 0,00 477,24 31/08/2023
616 497400 ANGELA MARIA HENRIQUES ANALISTA DO MP BELO HORIZONTE - COMARCA; COORD REG BACIAS RIO VELHAS E PARAOPEBA 1.500,00 0,00 605,00 0,00 0,00 0,00 0,00 0,00 938,50 31/08/2023
617 54600 ANGELA MARIA PEREIRA GRAVINA PROMOT.ENTRANC.ESPECIAL JUIZ DE FORA - COMARCA; JUIZ DE FORA-PJ-11PJ 1.500,00 0,00 2.228,01 0,00 24.048,01 0,00 0,00 0,00 734,80 31/08/2023
618 1482400 ANGELI COSTA MARTINS ESTAGIARIO ARAGUARI; ARAGUARI-PJ-04PJ 0,00 0,00 0,00 216,00 0,00 0,00 0,00 0,00 0,00 31/08/2023
619 260700 ANGELICA CRISTINA AZEVEDO MOREIRA MOUCO OFICIAL DO MP UBÁ - COMARCA; UBA-PJ-05PJ 1.500,00 0,00 605,00 0,00 0,00 0,00 0,00 0,00 0,00 31/08/2023
620 1623700 ANGELICA FLORIANO DE MOURA ESTAGIARIO CONTAGEM; CONTAGEM-PJ-22PJ 0,00 0,00 0,00 252,00 0,00 0,00 0,00 0,00 0,00 31/08/2023
621 708300 ANGELICA NUNES VIEIRA DA SILVA ASSESSOR PROMOTOR JUSTICA IBIRITÉ - COMARCA; IBIRITE-PJ-02PJ 1.500,00 0,00 605,00 0,00 0,00 0,00 0,00 0,00 424,25 31/08/2023
622 334600 ANGELICA PANISSA DE FREITAS GALLATI OFICIAL DO MP GUAXUPÉ - COMARCA; GUAXUPE-PJ-02PJ 1.500,00 950,00 605,00 0,00 0,00 0,00 0,00 0,00 45,26 31/08/2023
623 660400 ANGELICA POLLYANA QUEIROZ DE MEDEIROS PROMOTOR 2A ENTRANCIA FRUTAL - COMARCA; FRUTAL-PJ-01PJ 1.500,00 0,00 919,55 0,00 35.055,77 0,00 0,00 0,00 518,30 31/08/2023
624 521100 ANGELICA SALES MOREIRA OFICIAL DO MP BELO HORIZONTE - COMARCA; BH-02PJ FAMILIA-SECRETARIA 1.500,00 0,00 605,00 0,00 0,00 0,00 0,00 0,00 657,95 31/08/2023
625 1477400 ANGELICA SILVA LEMOS SANTOS ESTAGIARIO DIVINOPOLIS; DIVINOPOLIS-PJ-13PJ 0,00 0,00 0,00 252,00 0,00 0,00 0,00 0,00 0,00 31/08/2023
626 466500 ANGELLO MARQUES AGRELLI ANALISTA DO MP MAR DE ESPANHA - COMARCA; MAR DE ESPANHA-PJ-UNPJ 1.500,00 1.900,00 605,00 0,00 0,00 0,00 0,00 0,00 713,23 31/08/2023
627 222700 ANGELO ALEXANDRE MARZANO PROMOT.ENTRANC.ESPECIAL BELO HORIZONTE - COMARCA; BH-PJ AUXILIAR-GAB 141PJ 1.500,00 0,00 3.152,72 0,00 21.738,33 0,00 0,00 0,00 664,23 31/08/2023
628 167100 ANGELO ANSANELLI JUNIOR PROMOTOR 2A ENTRANCIA FORMIGA - COMARCA; FORMIGA-PJ-02PJ 1.500,00 0,00 3.392,49 0,00 18.920,72 0,00 0,00 0,00 578,13 31/08/2023
629 363300 ANGELO VERDOLIN HENRIQUES ANALISTA DO MP SETE LAGOAS - COMARCA; SETE LAGOAS-PJ-04PJ 1.500,00 0,00 605,00 0,00 0,00 0,00 0,00 0,00 0,00 31/08/2023
630 267600 ANIBAL TAMAOKI PROMOT.ENTRANC.ESPECIAL BELO HORIZONTE - COMARCA; BH-18PJ VIOLENCIA DOMESTICA-GAB 053PJ 1.500,00 0,00 3.571,05 0,00 13.093,83 0,00 0,00 0,00 545,58 31/08/2023
631 1430100 ANIELLE FERNANDA EDUARDO SILVA ESTAGIARIO ITABIRA; ITABIRA-PJ-01PJ 0,00 0,00 0,00 252,00 0,00 0,00 0,00 0,00 0,00 31/08/2023
632 250900 ANISIO APARECIDO SANTOS OFICIAL DO MP BETIM - COMARCA; BETIM - SECRETARIA DAS PJS CRIMINAIS 1.500,00 0,00 605,00 0,00 0,00 0,00 0,00 0,00 588,93 31/08/2023
633 1588300 ANNA BEATRIZ SILVEIRA CASSIANO ESTAGIARIO MONTE SANTO DE MINAS; MONTE SANTO DE MINAS-PJ-UNPJ 0,00 0,00 0,00 252,00 0,00 0,00 0,00 0,00 0,00 31/08/2023
634 1564800 ANNA CAROLINA BARBOSA METZKER ESTAGIARIO POCOS DE CALDAS; POCOS DE CALDAS-PJ-06PJ 0,00 0,00 0,00 228,00 0,00 0,00 0,00 0,00 0,00 31/08/2023
635 1478900 ANNA CAROLINA DE SENNA BARCANTE ESTAGIARIO FORMIGA; FORMIGA-PJ-04PJ 0,00 0,00 0,00 228,00 0,00 0,00 0,00 0,00 0,00 31/08/2023
636 698100 ANNA CAROLINA POLICARIO BERTOLIN ASSESSOR PROCURADOR JUSTICA BELO HORIZONTE - COMARCA; PROC. JUSTICA DIR. DIFUSOS E COLETIVOS-SEC 1.500,00 0,00 605,00 0,00 0,00 0,00 0,00 0,00 439,95 31/08/2023
637 1459600 ANNA CAROLYNNA SANTOS REZENDE DE ALMEIDA - 2:14596 ESTAGIARIO PONTE NOVA; PONTE NOVA-PJ-01PJ 0,00 0,00 0,00 240,00 0,00 0,00 0,00 0,00 0,00 31/08/2023
638 717900 ANNA CATHARINA MACHADO NORMANTON PROMOTOR SUBSTITUTO UBERABA - COMARCA; UBERABA-PJ-04PJ 1.500,00 0,00 3.222,87 0,00 6.445,74 0,00 0,00 0,00 492,38 31/08/2023
639 1593000 ANNA CLARA ANGELI VIEIRA ESTAGIARIO BELO HORIZONTE; BH-12PJ JUIZO CRIMINAL-GAB 100PJ 0,00 0,00 0,00 168,00 0,00 0,00 0,00 0,00 0,00 31/08/2023
640 1608000 ANNA CLARA FERNANDES CARVALHO ESTAGIARIO UBERLANDIA; COORD REG PP TRIANGULO MINEIRO UBERLANDIA 0,00 0,00 0,00 228,00 0,00 0,00 0,00 0,00 0,00 31/08/2023
641 253400 ANNA FLAVIA LEHMAN ANALISTA DO MP BELO HORIZONTE - COMARCA; SUPRIN DE PLANEJAMENTO E COORDENACAO 1.500,00 0,00 605,00 0,00 6.014,39 0,00 0,00 0,00 -4.720,62 31/08/2023
642 1372100 ANNA LARA FERREIRA ESTAGIARIO PARA DE MINAS; PARA DE MINAS-PJ-05PJ 0,00 0,00 0,00 192,00 0,00 0,00 0,00 0,00 0,00 31/08/2023
643 1640500 ANNA LUIZA AMORIM FRAGA ESTAGIARIO BELO HORIZONTE; BH-08PJ JUIZADO ESPECIAL-SECRETARIA 0,00 0,00 0,00 192,00 0,00 0,00 0,00 0,00 0,00 31/08/2023
644 688800 ANNA LUIZA MATTOS DUARTE ASSESSOR PROCURADOR JUSTICA BELO HORIZONTE - COMARCA; GABINETE DE PROCURADOR DE JUSTICA - SALA 311 1.500,00 0,00 605,00 0,00 953,15 0,00 0,00 0,00 470,11 31/08/2023
645 1547200 ANNA LUIZA ULHOA ANDRADE NEVES ESTAGIARIO BELO HORIZONTE; BH-10PJ EXECUÇÃO PENAL-GAB 078PJ 0,00 0,00 0,00 180,00 0,00 0,00 0,00 0,00 0,00 31/08/2023
646 1440200 ANNA MARINA DIAS QUEIROZ PEREIRA ESTAGIARIO MONTES CLAROS; MONTES CLAROS-PJ-01PJ 0,00 0,00 0,00 240,00 0,00 0,00 0,00 0,00 0,00 31/08/2023
647 1632900 ANNACHE VALVERDE ROCHA DINIZ E SILVA ESTAGIARIO CONTAGEM; CONTAGEM-PJ-19PJ 0,00 0,00 0,00 252,00 0,00 0,00 0,00 0,00 0,00 31/08/2023
648 1642200 ANNE CAROLINE DASSUMPCAO FONSECA ESTAGIARIO DIVINOPOLIS; COORD REG DO MA DA BACIA DO ALTO SAO FRANC 0,00 0,00 0,00 252,00 0,00 0,00 0,00 0,00 0,00 31/08/2023
649 447600 ANNGELUCE ALCANTARA DE CAMPOS OFICIAL DO MP DIVINÓPOLIS - COMARCA; DIVINOPOLIS-PJ-07PJ 1.500,00 0,00 605,00 0,00 0,00 0,00 0,00 0,00 63,99 31/08/2023
650 1506800 ANOA DIAS QUARESMA CAMPOS ESTAGIARIO JACINTO; JACINTO-PJ-UNPJ 0,00 0,00 0,00 252,00 0,00 0,00 0,00 0,00 0,00 31/08/2023
651 119600 ANSELMO BORGES PARREIRAS OFICIAL DO MP BONFIM - COMARCA; BONFIM-PJ-UNPJ 1.500,00 0,00 605,00 0,00 0,00 0,00 0,00 0,00 0,00 31/08/2023
652 1628400 ANTONIA DE PAULA SILVA ESTAGIARIO BELO HORIZONTE; CENT ESTAD COOPERACAO TECNICO-JURIDICA
653 630300 ANTONIA GOMES RAMALHO OFICIAL DO MP NOVO CRUZEIRO - COMARCA; NOVO CRUZEIRO-PJ-UNPJ 1.500,00 1.900,00 605,00 0,00 0,00 0,00 0,00 0,00 388,06 31/08/2023
654 1639700 ANTONIELLE MILENA VENTURA DA SILVA COELHO ESTAGIARIO MURIAE; MURIAE-PJ-01PJ 0,00 0,00 0,00 252,00 0,00 0,00 0,00 0,00 0,00 31/08/2023
655 73100 ANTONIO AURELIO SANTOS PROCURADOR DE JUSTICA BELO HORIZONTE - COMARCA; CAO-CONFLITOS AGRARIOS 1.500,00 0,00 3.152,72 0,00 24.048,01 0,00 0,00 0,00 734,80 31/08/2023
656 157300 ANTONIO BORGES DA SILVA PROMOTOR 2A ENTRANCIA SÃO LOURENÇO - COMARCA; SAO LOURENCO-PJ-02PJ 1.500,00 0,00 3.152,72 0,00 24.048,01 0,00 0,00 0,00 734,80 31/08/2023
657 1603800 ANTONIO CARLOS FERREIRA DOS SANTOS ESTAGIARIO ARAGUARI; ARAGUARI-PJ-02PJ 0,00 0,00 0,00 228,00 0,00 0,00 0,00 0,00 0,00 31/08/2023
658 401600 ANTONIO CARLOS GUEDES AROUCA ANALISTA DO MP BELO HORIZONTE - COMARCA; ASSESSORIA JURIDICO-ADMINISTRATIVA 1.500,00 0,00 605,00 0,00 0,00 0,00 0,00 0,00 0,00 31/08/2023
659 76600 ANTONIO DE PADOVA MARCHI JUNIOR PROCURADOR DE JUSTICA BELO HORIZONTE - COMARCA; GABINETE DE PROCURADOR DE JUSTIÇA - SALA 1006 1.500,00 0,00 3.759,00 0,00 24.048,01 0,00 0,00 0,00 734,80 31/08/2023
660 101900 ANTONIO DIAS MAIA PROCURADOR DE JUSTICA BELO HORIZONTE - COMARCA; GABINETE DE PROCURADOR DE JUSTIÇA - SALA 808 1.500,00 0,00 3.152,72 0,00 24.048,01 0,00 0,00 0,00 734,80 31/08/2023
661 84600 ANTONIO DIOGO DA ROCHA PROMOTOR 1A ENTRANCIA BOTELHOS - COMARCA; BOTELHOS-PJ-UNPJ 1.500,00 0,00 3.152,72 0,00 24.048,01 0,00 0,00 0,00 734,80 31/08/2023
662 333900 ANTONIO GONCALVES DE SOUZA FILHO OFICIAL DO MP BELO HORIZONTE - COMARCA; DIRETORIA DE CONTABILIDADE 1.500,00 0,00 605,00 0,00 0,00 0,00 0,00 0,00 793,65 31/08/2023
663 340600 ANTONIO HENRIQUE FRANCO LOPES PROMOT.ENTRANC.ESPECIAL BELO HORIZONTE - COMARCA; ASSESSORIA ESPECIAL-GABINETE DOS ASSESSORES 1.500,00 0,00 2.154,35 0,00 39.281,50 0,00 0,00 0,00 545,58 31/08/2023
664 67600 ANTONIO JOAQUIM SCHELLENBERGER FERNANDES PROCURADOR DE JUSTICA BELO HORIZONTE - COMARCA; PROC JUSTICA DIR DIFUSOS E COLETIVOS-GAB004 1.500,00 0,00 3.759,00 0,00 24.048,01 0,00 0,00 0,00 734,80 31/08/2023
665 77300 ANTONIO JOSE CHINELATO PROCURADOR DE JUSTICA BELO HORIZONTE - COMARCA; GABINETE DE PROCURADOR DE JUSTIÇA - SALA 1008 1.500,00 0,00 0,00 0,00 8.016,00 0,00 0,00 0,00 734,80 31/08/2023
666 211800 ANTONIO JOSE DE OLIVEIRA PROMOTOR 2A ENTRANCIA PASSOS - COMARCA; PASSOS-PJ-06PJ 1.500,00 0,00 3.392,49 0,00 22.974,30 0,00 0,00 0,00 701,99 31/08/2023
667 1593200 ANTONIO LEONARDO AMORIM DA COSTA CAMPOS ESTAGIARIO JUIZ DE FORA; GAECO REGIONAL DA ZONA DA MATA-JUIZ DE FORA 0,00 0,00 0,00 180,00 0,00 0,00 0,00 0,00 0,00 31/08/2023
668 1624900 ANTONIO LOPES DAS CHAGAS ESTAGIARIO CARATINGA; CARATINGA-PJ-03PJ 0,00 0,00 0,00 252,00 0,00 0,00 0,00 0,00 0,00 31/08/2023
669 1670900 ANTONIO MANOEL SANTOS DA SILVA ESTAGIARIO BELO HORIZONTE; PROCURADORIA DE JUSTIÇA CRIMINAL 0,00 0,00 0,00 60,00 0,00 0,00 0,00 0,00 0,00 31/08/2023
670 176100 ANTONIO MARCELO CAMPOS CAMPANELLA OFICIAL DO MP BELO HORIZONTE - COMARCA; COORD DE GABINETE DO PGJ 1.500,00 0,00 605,00 0,00 0,00 0,00 0,00 0,00 0,00 31/08/2023
671 321001 ANTONIO OLINTO VIEIRA MACHADO ANALISTA DO MP BELO HORIZONTE - COMARCA; CENTRAL DE APOIO TECN-SETOR DE MEIO AMBIENTE 1.500,00 0,00 605,00 0,00 0,00 0,00 0,00 0,00 0,00 31/08/2023
672 356200 ANTONIO PAULA DA SILVA OFICIAL DO MP JUIZ DE FORA - COMARCA; JUIZ DE FORA-PJ-20PJ 1.500,00 0,00 605,00 0,00 0,00 0,00 0,00 0,00 0,00 31/08/2023
673 63400 ANTONIO PEDRO DA SILVA MELO PROMOT.ENTRANC.ESPECIAL SÃO JOÃO DEL REI - COMARCA; SAO JOAO DEL REI-PJ-01PJ 1.500,00 0,00 3.152,72 0,00 8.016,00 0,00 0,00 0,00 734,80 31/08/2023
674 119900 ANTONIO RODRIGUES DE PINHO OFICIAL DO MP GUANHÃES - COMARCA; GUANHAES-PJ-01PJ 1.500,00 0,00 605,00 0,00 1.478,42 0,00 0,00 0,00 135,52 31/08/2023
675 373300 ANTONIO SERGIO ANANIAS OFICIAL DO MP SÃO JOÃO NEPOMUCENO - COMARCA; SAO JOAO NEPOMUCENO-PJ-01PJ 1.500,00 0,00 605,00 0,00 0,00 0,00 0,00 0,00 640,87 31/08/2023
676 93500 ANTONIO SERGIO ROCHA DE PAULA PROCURADOR DE JUSTICA BELO HORIZONTE - COMARCA; PROC JUSTICA DIR DIFUSOS E COLETIVOS-GAB003 1.500,00 0,00 3.759,00 0,00 24.048,01 0,00 0,00 0,00 734,80 31/08/2023
677 68700 ANTONIO SERGIO TONET PROCURADOR DE JUSTICA BELO HORIZONTE - COMARCA; GABINETE DE PROCURADOR DE JUSTIÇA - SALA 902 1.500,00 0,00 1.576,36 0,00 32.064,01 0,00 0,00 0,00 734,80 31/08/2023
678 608100 ANTONIO SIDINEY VIEIRA LEMOS ANALISTA DO MP PIRAPORA - COMARCA; PIRAPORA-PJ-01PJ 1.500,00 950,00 605,00 0,00 0,00 0,00 0,00 0,00 106,74 31/08/2023
679 374700 ANTONIO SILVA NETO OFICIAL DO MP BELO HORIZONTE - COMARCA; GAECO - SECRETARIA 1.500,00 950,00 605,00 0,00 0,00 0,00 0,00 0,00 0,00 31/08/2023
680 738600 ANTONIO TADEU FRANCA COSTA FILHO PROMOTOR SUBSTITUTO BELO HORIZONTE - COMARCA; CENTRO DE ESTUDOS E APERFEICOAMENTO FUNCIONAL 1.500,00 0,00 735,64 0,00 0,00 0,00 0,00 0,00 0,00 31/08/2023
681 636700 ANTONIUS VITORIANO FERNANDES OFICIAL DO MP BELO HORIZONTE - COMARCA; ASSESSORIA JURIDICA DO PROCON-MG 1.500,00 0,00 605,00 0,00 0,00 0,00 0,00 0,00 390,32 31/08/2023
682 413200 ANY PEREIRA SILVA ANALISTA DO MP TRÊS PONTAS - COMARCA; TRES PONTAS-PJ-01PJ 1.500,00 0,00 605,00 0,00 0,00 0,00 0,00 0,00 0,00 31/08/2023
683 151401 APARECIDA DE FATIMA MENDES DE ALMEIDA ASSESSOR ADMINISTRATIVO II JUIZ DE FORA - COMARCA; JUIZ DE FORA-PJ-SECRETARIA 1.500,00 0,00 605,00 0,00 0,00 0,00 0,00 0,00 395,59 31/08/2023
684 329300 APARECIDA MARIA MELO DE ASSIS OFICIAL DO MP BELO HORIZONTE - COMARCA; BH-18PJ DIREITOS HUMANOS-SECRETARIA 1.500,00 0,00 605,00 0,00 0,00 0,00 0,00 0,00 793,44 31/08/2023
685 653000 APARECIDA ROSA DE LIMA ASSESSOR ADMINISTRATIVO III BELO HORIZONTE - COMARCA; SECRETARIA PROCESSOS DISCIPES ADMINISTRATIVOS 1.500,00 0,00 605,00 0,00 0,00 0,00 0,00 0,00 575,57 31/08/2023
686 354500 APARECIDA VIEIRA DE CARVALHO OFICIAL DO MP BELO HORIZONTE - COMARCA; DIVISÃO DE EDUCAÇÃO PARA O CONSUMO 1.500,00 0,00 605,00 0,00 0,00 0,00 0,00 0,00 0,00 31/08/2023
687 551000 ARACELES BICALHO FELIX ANALISTA DO MP MANHUAÇU - COMARCA; MANHUACU-PJ-SECRETARIA 1.500,00 1.900,00 605,00 0,00 0,00 0,00 0,00 0,00 0,00 31/08/2023
688 286200 ARACELI MEDRADO DOS SANTOS LIMA OFICIAL DO MP PARACATU - COMARCA; PARACATU-PJ-03PJ 1.500,00 950,00 605,00 0,00 0,00 0,00 0,00 0,00 496,67 31/08/2023
689 1579600 ARACELLI OLIVEIRA SILVEIRA RIBEIRO ESTAGIARIO UBERLANDIA; UBERLANDIA-PJ-06PJ 0,00 0,00 0,00 228,00 0,00 0,00 0,00 0,00 0,00 31/08/2023
690 112200 ARAQUEM AUGUSTO DE MATOS AGENTE DO MP BELO HORIZONTE - COMARCA; BH-23PJ CIVEL-SEC EXP CIVEIS 1.500,00 0,00 605,00 0,00 0,00 0,00 0,00 0,00 0,00 31/08/2023
691 280600 ARDUINO FRATTEZI ANALISTA DO MP BELO HORIZONTE - COMARCA; CENTRAL DE APOIO TECNICO-SETOR CONTABIL 1.500,00 0,00 605,00 0,00 0,00 0,00 0,00 0,00 0,00 31/08/2023
692 67700 ARESLAN EUSTAQUIO MARTINS PROMOTOR 1A ENTRANCIA CARMO DA MATA - COMARCA; CARMO DA MATA-PJ-UNPJ 1.500,00 0,00 3.222,87 0,00 24.048,01 0,00 0,00 0,00 734,80 31/08/2023
693 1481300 ARIANE DA SILVA MENDES - 2:1481300 ESTAGIARIO ABRE CAMPO; ABRE CAMPO-PJ-02PJ 0,00 0,00 0,00 192,00 0,00 0,00 0,00 0,00 0,00 31/08/2023
694 520201 ARIANE DE FATIMA CARVALHO ALMEIDA RODRIGUES ANALISTA DO MP VESPASIANO - COMARCA; VESPASIANO-PJ-SECRETARIA 1.500,00 1.425,00 605,00 0,00 0,00 0,00 0,00 0,00 603,76 31/08/2023
695 1547100 ARIANE MAGALHAES DE PAULA GALDINO ESTAGIARIO CORONEL FABRICIANO; CORONEL FABRICIANO-PJ-04PJ 0,00 0,00 0,00 228,00 0,00 0,00 0,00 0,00 0,00 31/08/2023
696 1577300 ARIEL DE MELO LIMA MARCELINO ESTAGIARIO SANTA LUZIA; SANTA LUZIA-PJ-04PJ 0,00 0,00 0,00 228,00 0,00 0,00 0,00 0,00 0,00 31/08/2023
697 537600 ARIELA FREIRE MONTIJO ANALISTA DO MP ARCOS - COMARCA; ARCOS-PJ-01PJ 1.500,00 0,00 605,00 0,00 0,00 0,00 0,00 0,00 714,55 31/08/2023
698 1613900 ARIENE KATHLEN DE OLIVEIRA ESTAGIARIO CONTAGEM; CONTAGEM-PJ-24PJ 0,00 0,00 0,00 252,00 0,00 0,00 0,00 0,00 0,00 31/08/2023
699 182000 ARILSON ALEXANDRE MARTINS MAGALHAES OFICIAL DO MP JOÃO MONLEVADE - COMARCA; JOAO MONLEVADE-PJ-01PJ 1.500,00 3.800,00 605,00 0,00 0,00 0,00 0,00 0,00 0,00 31/08/2023
700 511000 ARISLANE CAROLINA DA SILVA ANALISTA DO MP MONTE CARMELO - COMARCA; MONTE CARMELO-PJ-02PJ 1.500,00 2.850,00 605,00 0,00 0,00 0,00 0,00 0,00 713,23 31/08/2023
701 212000 ARLEN DE OLIVEIRA FERNANDES PROMOT.ENTRANC.ESPECIAL BELO HORIZONTE - COMARCA; BH-12PJ JUIZO CRIMINAL-GAB 098PJ 1.500,00 0,00 3.047,65 0,00 19.916,55 0,00 0,00 0,00 608,56 31/08/2023
702 170000 ARLEY BRITES DA SILVA ASSESSOR ADMINISTRATIVO II BELO HORIZONTE - COMARCA; BH-14PJ DEFESA CONSUMIDOR-SECRETARIA 1.500,00 0,00 605,00 0,00 3.503,13 0,00 0,00 0,00 529,00 31/08/2023
703 120400 ARLINDO CASSIO DA CRUZ OFICIAL DO MP SÃO GONÇALO DO SAPUCAÍ - COMARCA; SAO GONCALO DO SAPUCAI-PJ-01PJ 1.500,00 0,00 605,00 0,00 0,00 0,00 0,00 0,00 0,00 31/08/2023
704 243700 ARLINDO MARCIO LACERDA OFICIAL DO MP CONTAGEM - COMARCA; CONTAGEM-PJ-SECRETARIA 1.500,00 0,00 605,00 0,00 0,00 0,00 1.771,66 0,00 0,00 31/08/2023
705 111900 ARNALDO ALVES SOARES PROCURADOR DE JUSTICA BELO HORIZONTE - COMARCA; GABINETE DE PROCURADOR DE JUSTIÇA - SALA 903 1.500,00 0,00 3.759,00 0,00 20.825,46 0,00 0,00 0,00 636,33 31/08/2023
706 392100 ARNALDO DE ANDRADE OFICIAL DO MP DIVINÓPOLIS - COMARCA; DIVINOPOLIS-PJ-02PJ 1.500,00 1.900,00 605,00 0,00 0,00 0,00 1.771,66 0,00 0,00 31/08/2023
707 75900 ARNALDO GOMES RIBEIRO PROCURADOR DE JUSTICA BELO HORIZONTE - COMARCA; GABINETE DE PROCURADOR DE JUSTIÇA - SALA 602 1.500,00 0,00 3.678,17 0,00 32.064,01 0,00 0,00 0,00 734,80 31/08/2023
708 642400 ARTANE INARDE DE SIQUEIRA DAMASCENO ANALISTA DO MP BELO HORIZONTE - COMARCA; SECRETARIA DE ASSUNTOS INTERNACIONAIS 1.500,00 1.425,00 605,00 0,00 0,00 0,00 0,00 0,00 530,47 31/08/2023
709 1605400 ARTHEMIS GEMAFESI ARAUJO FERREIRA ESTAGIARIO VICOSA; VICOSA-PJ-01PJ 0,00 0,00 0,00 252,00 0,00 0,00 0,00 0,00 0,00 31/08/2023
710 733000 ARTHUR BRANDAO ALBUQUERQUE ASSESSOR ADMINISTRATIVO II BELO HORIZONTE - COMARCA; DIRETORIA DE PAGAMENTO DE PESSOAL-DPAG 1.500,00 0,00 605,00 0,00 0,00 0,00 0,00 0,00 20,49 31/08/2023
711 1665900 ARTHUR CHAVES DUARTE ESTAGIARIO TEOFILO OTONI; TEOFILO OTONI-PJ-01PJ 0,00 0,00 0,00 252,00 0,00 0,00 0,00 0,00 0,00 31/08/2023
712 1624000 ARTHUR CYRILLO RIBEIRO SILVA ESTAGIARIO BELO HORIZONTE; DIR CRIACAO E MIDIAS 0,00 0,00 0,00 204,00 0,00 0,00 0,00 0,00 0,00 31/08/2023
713 1667000 ARTHUR DE LIMA SOSSAI ESTAGIARIO LAVRAS; LAVRAS-PJ-01PJ 0,00 0,00 0,00 144,00 0,00 0,00 0,00 0,00 0,00 31/08/2023
714 1636000 ARTHUR LUCA SANTOS GODINHO ESTAGIARIO BELO HORIZONTE; GABINETE DE PROCURADOR DE JUSTIÇA - SALA 609 0,00 0,00 0,00 84,00 0,00 0,00 0,00 0,00 0,00 31/08/2023
715 1433800 ARTHUR OLIVEIRA CARABETTI DINIZ ESTAGIARIO BELO HORIZONTE; BH-09PJ AUDITORIA MILITAR-GAB 073PJ
716 1433500 ARTHUR SALIM DE PAULA LEITE ESTAGIARIO BELO HORIZONTE; BH-06PJ JUIZO CIVEL-GAB 049PJ 0,00 0,00 0,00 204,00 0,00 0,00 0,00 0,00 0,00 31/08/2023
717 1525800 ARTUR FERNANDES DE LIMA JUNIOR ESTAGIARIO SANTA RITA DO SAPUCAI; SANTA RITA DO SAPUCAI-PJ-01PJ 0,00 0,00 0,00 252,00 0,00 0,00 0,00 0,00 0,00 31/08/2023
718 221400 ARTUR FORSTER GIOVANNINI PROMOTOR 2A ENTRANCIA TRÊS PONTAS - COMARCA; TRES PONTAS-PJ-01PJ 1.500,00 0,00 3.392,49 0,00 17.941,60 0,00 0,00 0,00 548,22 31/08/2023
719 1674700 ARTUR ROCHA RIBEIRO ESTAGIARIO BELO HORIZONTE; BH-13PJ JUIZO DE TOXICOS-COORD PJ 0,00 0,00 0,00 12,00 0,00 0,00 0,00 0,00 0,00 31/08/2023
720 313500 ARY PEDROSA BITTENCOURT PROMOT.ENTRANC.ESPECIAL SANTA LUZIA - COMARCA; SANTA LUZIA-PJ-05PJ 1.500,00 1.900,00 3.571,05 0,00 47.613,94 0,00 0,00 0,00 545,58 31/08/2023
721 315700 ATHAIDE FRANCISCO PERES OLIVEIRA PROMOTOR 2A ENTRANCIA UNAÍ - COMARCA; UNAI-PJ-01PJ 1.500,00 0,00 3.392,49 0,00 28.270,78 0,00 0,00 0,00 0,00 31/08/2023
722 742500 AUGUSTO EMMANUEL DE LIMA INVESTIGADOR DE POLICIA 2 BELO HORIZONTE - COMARCA; GAECO - SETOR POLICIAL CIVIL 1.500,00 0,00 0,00 0,00 0,00 0,00 0,00 0,00 0,00 31/08/2023
723 702900 AUGUSTO PENA FIGUEIREDO CAPITAO BELO HORIZONTE - COMARCA; NUCLEO DE OPERACOES DE SEGURANCA DE PESSOAL 1.500,00 0,00 0,00 0,00 0,00 0,00 0,00 0,00 0,00 31/08/2023
724 666600 AUGUSTO REIS BALLARDIM PROMOTOR 1A ENTRANCIA ITAMARANDIBA - COMARCA; ITAMARANDIBA-PJ-UNPJ 1.500,00 0,00 1.734,00 0,00 42.971,59 0,00 0,00 0,00 492,38 31/08/2023
725 302100 AUGUSTO ROUSSEAU DE CASTRO ANALISTA DO MP CATAGUASES - COMARCA; CATAGUASES-PJ-02PJ 1.500,00 0,00 605,00 0,00 0,00 0,00 0,00 0,00 0,00 31/08/2023
726 1534500 AUGUSTO SANAVIA ROCHA ESTAGIARIO BELO HORIZONTE; GABINETE DE PROCURADOR DE JUSTIÇA - SALA 601 0,00 0,00 0,00 204,00 0,00 0,00 0,00 0,00 0,00 31/08/2023
727 540200 AUREA AVELAR BITTENCOURT OFICIAL DO MP BELO HORIZONTE - COMARCA; GRUPO ESP PROM JUST DEF PROB ADM PAT PUB 1.500,00 0,00 605,00 0,00 0,00 0,00 0,00 0,00 495,10 31/08/2023
728 633501 AUREA GONTIJO BIRCHAL ASSESSOR DE GABINETE I BELO HORIZONTE - COMARCA; PROCURADOR-GERAL DE JUSTIÇA 1.500,00 0,00 605,00 0,00 0,00 0,00 0,00 0,00 862,46 31/08/2023
729 183200 AURELIANO MAGELA DE REZENDE OFICIAL DO MP BELO HORIZONTE - COMARCA; COORD DE GABINETE DO PGJ 1.500,00 0,00 605,00 0,00 0,00 0,00 0,00 0,00 0,00 31/08/2023
730 106500 AVAIDE MARCOS MARIANO PROMOT.ENTRANC.ESPECIAL UBERLÂNDIA - COMARCA; UBERLANDIA-PJ-13PJ 1.500,00 0,00 1.576,36 0,00 24.048,01 0,00 0,00 0,00 734,80 31/08/2023
731 629400 AYESKA DA COSTA VAL MOURA DABIEN OFICIAL DO MP BELO HORIZONTE - COMARCA; BH-09PJ AUDITORIA MILITAR-SECRETARIA 1.500,00 0,00 605,00 0,00 0,00 0,00 0,00 0,00 361,99 31/08/2023
732 1475000 AYLA FERREIRA LIMA ESTAGIARIO CASSIA; CASSIA-PJ-01PJ 0,00 0,00 0,00 240,00 0,00 0,00 0,00 0,00 0,00 31/08/2023
733 151800 AYLOR LUIZ MEIRELLES JUNIOR PROMOTOR 2A ENTRANCIA SÃO DOMINGOS DO PRATA - COMARCA; SAO DOMINGOS DO PRATA-PJ-UNPJ 1.500,00 0,00 3.021,36 0,00 23.882,94 0,00 0,00 0,00 729,76 31/08/2023
734 707400 AYMEE JOHANSSENN TYNEE CORREIA ALVES ASSESSOR PROMOTOR JUSTICA NOVA LIMA - COMARCA; NOVA LIMA-PJ-01PJ 1.500,00 1.900,00 605,00 0,00 0,00 0,00 0,00 0,00 469,62 31/08/2023
735 1617600 BARBARA BELARMINO FELIX DE LIMA ESTAGIARIO UBERABA; UBERABA-PJ-06PJ 0,00 0,00 0,00 228,00 0,00 0,00 0,00 0,00 0,00 31/08/2023
736 701600 BARBARA CHAVES OLIVEIRA ASSESSOR PROCURADOR JUSTICA BELO HORIZONTE - COMARCA; PROC. JUSTICA DIR. DIFUSOS E COLETIVOS-SEC 1.500,00 0,00 605,00 0,00 0,00 0,00 0,00 0,00 439,89 31/08/2023
737 1579300 BARBARA COLEHO BRANT GOMES ESTAGIARIO BELO HORIZONTE; BH-12PJ JUIZO CRIMINAL-GAB 103PJ 0,00 0,00 0,00 228,00 0,00 0,00 0,00 0,00 0,00 31/08/2023
738 1481800 BARBARA COTTA E SILVA ESTAGIARIO BELO HORIZONTE; GABINETE DE PROCURADOR DE JUSTIÇA - SALA 914 0,00 0,00 0,00 216,00 0,00 0,00 0,00 0,00 0,00 31/08/2023
739 691900 BARBARA COUTINHO REIS ASSESSOR PROCURADOR JUSTICA BELO HORIZONTE - COMARCA; GABINETE DE PROCURADOR DE JUSTIÇA - SALA 910 1.500,00 0,00 605,00 0,00 0,00 0,00 0,00 0,00 435,82 31/08/2023
740 1538200 BARBARA CRISTINA MELO BATISTA ESTAGIARIO BELO HORIZONTE; BH-10PJ EXECUÇÃO PENAL-GAB 080PJ 0,00 0,00 0,00 228,00 0,00 0,00 0,00 0,00 0,00 31/08/2023
741 692200 BARBARA CRISTINA MENDES BANDEIRA DE MELO DUTRA ASSESSOR PROCURADOR JUSTICA BELO HORIZONTE - COMARCA; GABINETE DE PROCURADOR DE JUSTIÇA - SALA 1009 1.500,00 0,00 605,00 0,00 1.525,03 0,00 0,00 0,00 490,50 31/08/2023
742 743300 BARBARA CRISTINA SOUZA E SOUSA ASSESSOR PROCURADOR JUSTICA BELO HORIZONTE - COMARCA; GABINETE DE PROCURADOR DE JUSTIÇA - SALA 513 1.500,00 0,00 605,00 0,00 0,00 0,00 0,00 0,00 0,00 31/08/2023
743 723400 BARBARA CRISTINA TAVARES CARNEIRO ASSESSOR PROCURADOR JUSTICA BELO HORIZONTE - COMARCA; PROC JUST ATUACAO TRIBUNAIS SUPERIORES-GAB008 1.500,00 0,00 605,00 0,00 0,00 0,00 0,00 0,00 426,09 31/08/2023
744 1643600 BARBARA DOS SANTOS CHOUCAIR ESTAGIARIO BELO HORIZONTE; CAO-DH CONT EXT ATIV POLIC E AP COMUNIT 0,00 0,00 0,00 228,00 0,00 0,00 0,00 0,00 0,00 31/08/2023
745 1665200 BARBARA EDUARDA COSTA SILVA ESTAGIARIO BELO HORIZONTE; BH-14PJ DEFESA CONSUMIDOR-GAB 111PJ 0,00 0,00 0,00 228,00 0,00 0,00 0,00 0,00 0,00 31/08/2023
746 1473700 BARBARA FERREIRA DOS SANTOS ESTAGIARIO PAINS; ALFENAS-PJ-02PJ 0,00 0,00 0,00 204,00 0,00 0,00 0,00 0,00 0,00 31/08/2023
747 314700 BARBARA FRANCINE PRETTE NUNES PROMOTOR 1A ENTRANCIA PERDIZES - COMARCA; PERDIZES-PJ-UNPJ 1.500,00 0,00 3.222,87 0,00 42.971,59 0,00 0,00 0,00 492,38 31/08/2023
748 1539800 BARBARA GEOVANA SILVA SANTOS ESTAGIARIO BELO HORIZONTE; CAO-FUNDACOES 0,00 0,00 0,00 216,00 0,00 0,00 0,00 0,00 0,00 31/08/2023
749 1410100 BARBARA HELENA FROIS GUIMARAES GIL ESTAGIARIO BELO HORIZONTE; GABINETE DE PROCURADOR DE JUSTIÇA - SALA 814
750 1368200 BARBARA ISABELY LIMA OLIVEIRA ESTAGIARIO BELO HORIZONTE; BH-18PJ DIREITOS HUMANOS-GAB 183PJ 0,00 0,00 0,00 228,00 0,00 0,00 0,00 0,00 0,00 31/08/2023
751 652800 BARBARA JULIANNE MOREIRA CASTRO ASSESSOR PROCURADOR JUSTICA BELO HORIZONTE - COMARCA; ASSESS TECNICO-JUR JUNTO AS PROC. DE JUST 1.500,00 0,00 605,00 0,00 0,00 0,00 0,00 0,00 453,32 31/08/2023
752 1546500 BARBARA KATLEN SOARES FERNANDES ESTAGIARIO OURO BRANCO; OURO BRANCO-PJ-UNPJ 0,00 0,00 0,00 252,00 0,00 0,00 0,00 0,00 0,00 31/08/2023
753 1450300 BARBARA LARISSA DAS GRACAS SOUZA ESTAGIARIO BELO HORIZONTE; BH-24PJ JUIZO REG BARREIRO-GAB 003PJ 0,00 0,00 0,00 216,00 0,00 0,00 0,00 0,00 0,00 31/08/2023
754 1457700 BARBARA LEDRES SILVA ESTAGIARIO MEDINA; MEDINA-PJ-UNPJ 0,00 0,00 0,00 204,00 0,00 0,00 0,00 0,00 0,00 31/08/2023
755 1674200 BARBARA LORRANE NUNES CAETANO ESTAGIARIO BELO HORIZONTE; JUNTA RECURSAL DO PROCON ESTADUAL-SECRETARIA 0,00 0,00 0,00 12,00 0,00 0,00 0,00 0,00 0,00 31/08/2023
756 707700 BARBARA LOUISE PUFF DE OLIVEIRA ASSESSOR PROMOTOR JUSTICA RIBEIRÃO DAS NEVES - COMARCA; RIBEIRAO DAS NEVES-PJ-02PJ 1.500,00 0,00 605,00 0,00 0,00 0,00 0,00 0,00 469,91 31/08/2023
757 1521500 BARBARA LOURENCO LIMA ESTAGIARIO JANAUBA; JANAUBA-PJ-02PJ 0,00 0,00 0,00 252,00 0,00 0,00 0,00 0,00 0,00 31/08/2023
758 1562500 BARBARA MARINA ALVIM DE CASSIO ESTAGIARIO SAO JOAO DEL REI; SAO JOAO DEL REI-PJ-06PJ 0,00 0,00 0,00 216,00 0,00 0,00 0,00 0,00 0,00 31/08/2023
759 666500 BARBARA MARTINS DE SOUZA PROMOTOR 2A ENTRANCIA PONTE NOVA - COMARCA; PONTE NOVA-PJ-02PJ 1.500,00 0,00 1.734,00 0,00 16.962,47 0,00 0,00 0,00 518,30 31/08/2023
760 1534100 BARBARA MOLINARI VEIGA BARBOSA ESTAGIARIO PONTE NOVA; PONTE NOVA-PJ-02PJ 0,00 0,00 0,00 84,00 0,00 0,00 0,00 0,00 0,00 31/08/2023
761 740600 BARBARA PORTES RODRIGUES DE CARVALHO PROMOTOR SUBSTITUTO BELO HORIZONTE - COMARCA; CENTRO DE ESTUDOS E APERFEICOAMENTO FUNCIONAL 1.500,00 0,00 867,00 0,00 0,00 0,00 0,00 0,00 0,00 31/08/2023
762 1536000 BARBARA PRADO KRETLI OLIVEIRA ESTAGIARIO GOVERNADOR VALADARES; GOVERNADOR VALADARES-PJ-16PJ 0,00 0,00 0,00 252,00 0,00 0,00 0,00 0,00 0,00 31/08/2023
763 663600 BARBARA REGINA PEREIRA DE PINHO MAGALHAES ASSESSOR PROMOTOR JUSTICA BELO HORIZONTE - COMARCA; CAO-DH CONT EXT ATIV POLIC E AP COMUNIT 1.500,00 0,00 605,00 0,00 0,00 0,00 0,00 0,00 435,80 31/08/2023
764 685500 BARBARA RODRIGUES DE PAULA PROMOTOR SUBSTITUTO GOVERNADOR VALADARES - COMARCA; GOVERNADOR VALADARES-PJ-10PJ 1.500,00 0,00 867,00 0,00 37.600,14 0,00 0,00 0,00 0,00 31/08/2023
765 546500 BARBARA ZACARONI GOULART OFICIAL DO MP BETIM - COMARCA; BETIM-PJ-08PJ 1.500,00 0,00 605,00 0,00 0,00 0,00 0,00 0,00 522,00 31/08/2023
766 1479200 BARBARACAMILA DE SOUZA LARA ESTAGIARIO JOAO PINHEIRO; JOAO PINHEIRO-PJ-02PJ 0,00 0,00 0,00 24,00 0,00 0,00 0,00 0,00 0,00 31/08/2023
767 1542800 BARBARAH EMANUELLY SOUZA SANTOS ESTAGIARIO BARBACENA; BARBACENA-PJ-08PJ 0,00 0,00 0,00 240,00 0,00 0,00 0,00 0,00 0,00 31/08/2023
768 316500 BEATRIZ ABILVIA DA SILVA ANALISTA DO MP GOVERNADOR VALADARES - COMARCA; GOVERNADOR VALADARES-PJ-07PJ 1.500,00 0,00 605,00 0,00 0,00 0,00 0,00 0,00 0,00 31/08/2023
769 1498900 BEATRIZ APARECIDA DIAS BATISTA ESTAGIARIO MANHUMIRIM; MANHUMIRIM-PJ-02PJ 0,00 0,00 0,00 228,00 0,00 0,00 0,00 0,00 0,00 31/08/2023
770 311800 BEATRIZ APARECIDA SOARES GANEM OFICIAL DO MP ITAMBACURI - COMARCA; ITAMBACURI-PJ-02PJ 1.500,00 0,00 605,00 0,00 0,00 0,00 0,00 0,00 0,00 31/08/2023
771 266800 BEATRIZ AUGUSTA VILACA GOMES DE HUBER OFICIAL DO MP BELO HORIZONTE - COMARCA; BH-05PJ-JUÍZO SUCESSÕES-SEC 1.500,00 0,00 605,00 0,00 6.221,18 0,00 0,00 0,00 1.378,31 31/08/2023
772 235200 BEATRIZ BOTELHO BATISTA OFICIAL DO MP MATEUS LEME - COMARCA; MATEUS LEME-PJ-02PJ 1.500,00 0,00 605,00 0,00 0,00 0,00 0,00 0,00 831,11 31/08/2023
773 1632000 BEATRIZ BOUISSOU MORAIS SOARES ESTAGIARIO BELO HORIZONTE; BH-02PJ FAMILIA-GAB 027PJ
774 1480500 BEATRIZ CAMPOS VIEIRA FEIO ESTAGIARIO BELO HORIZONTE; GABINETE DE PROCURADOR DE JUSTICA - SALA 313 0,00 0,00 0,00 120,00 0,00 0,00 0,00 0,00 0,00 31/08/2023
775 1669800 BEATRIZ GONCALVES RAMOS ESTAGIARIO CONTAGEM; CONTAGEM-PJ-10PJ 0,00 0,00 0,00 96,00 0,00 0,00 0,00 0,00 0,00 31/08/2023
776 1429500 BEATRIZ MACIEL ALMEIDA RIBEIRO ESTAGIARIO BELO HORIZONTE; GAECO 0,00 0,00 0,00 216,00 0,00 0,00 0,00 0,00 0,00 31/08/2023
777 182300 BEATRIZ PAULA SOUSA RAMOS OFICIAL DO MP MARIANA - COMARCA; MARIANA-PJ-01PJ 1.500,00 0,00 605,00 0,00 6.160,10 0,00 0,00 0,00 564,68 31/08/2023
778 1359900 BEATRIZ PEREIRA LAMBOGLIA ESTAGIARIO UBERABA; UBERABA-PJ-13PJ 0,00 0,00 0,00 216,00 0,00 0,00 0,00 0,00 0,00 31/08/2023
779 1590400 BEATRIZ RIBEIRO SOARES MENDES ESTAGIARIO MONTES CLAROS; MONTES CLAROS-PJ-15PJ 0,00 0,00 0,00 252,00 0,00 0,00 0,00 0,00 0,00 31/08/2023
780 507000 BELCHIOR FRANKLIN AMARAL LEITE ANALISTA DO MP BELO HORIZONTE - COMARCA; CAO ORGAOS MPMG DESIG FUNC ELEITORAIS-SEC 1.500,00 1.900,00 605,00 0,00 0,00 0,00 0,00 0,00 64,68 31/08/2023
781 345100 BENITO ELIAS RODRIGUES ANALISTA DO MP BARBACENA - COMARCA; BARBACENA - SECRETARIA DAS PJS CRIMINAIS 1.500,00 950,00 605,00 0,00 0,00 0,00 0,00 0,00 0,00 31/08/2023
782 207300 BENITO VIEIRA DOS SANTOS ANALISTA DO MP BELO HORIZONTE - COMARCA; PROC JUST ESP ACOES COMP ORIG CRIMINAL-ASSESS 1.500,00 0,00 605,00 0,00 0,00 0,00 0,00 0,00 0,00 31/08/2023
783 84700 BERGSON CARDOSO GUIMARAES PROMOT.ENTRANC.ESPECIAL BELO HORIZONTE - COMARCA; BH-02PJ FAMILIA-GAB 034PJ 1.500,00 0,00 3.571,05 0,00 8.016,00 0,00 0,00 0,00 0,00 31/08/2023
784 480200 BERNADETE NUNES DOS SANTOS ANALISTA DO MP GUANHÃES - COMARCA; GUANHAES-PJ-02PJ 1.500,00 0,00 605,00 0,00 0,00 0,00 0,00 0,00 108,91 31/08/2023
785 1474100 BERNARDO ANGELI BELO ESTAGIARIO FORMIGA; FORMIGA-PJ-03PJ 0,00 0,00 0,00 156,00 0,00 0,00 0,00 0,00 0,00 31/08/2023
786 1503900 BERNARDO CARVALHO BAUMGRATZ DE MIRANDA ESTAGIARIO BELO HORIZONTE; BH-01PJ FAZENDA PUBLICA-GAB 008PJ 0,00 0,00 0,00 96,00 0,00 0,00 0,00 0,00 0,00 31/08/2023
787 1668000 BERNARDO CUCONATO REIS ESTAGIARIO JUIZ DE FORA; JUIZ DE FORA-PJ-19PJ 0,00 0,00 0,00 144,00 0,00 0,00 0,00 0,00 0,00 31/08/2023
788 456700 BERNARDO DE MOURA LIMA PAIVA JEHA PROMOTOR 2A ENTRANCIA ITAÚNA - COMARCA; ITAUNA-PJ-01PJ 1.500,00 0,00 3.205,26 0,00 45.233,25 0,00 0,00 0,00 518,30 31/08/2023
789 1670300 BERNARDO HENRIQUE PEREIRA MARCIAL ESTAGIARIO MANHUACU; MANHUACU-PJ-05PJ 0,00 0,00 0,00 96,00 0,00 0,00 0,00 0,00 0,00 31/08/2023
790 738300 BERNARDO SANGUINETTI DA CUNHA ROSA PROMOTOR SUBSTITUTO BELO HORIZONTE - COMARCA; CENTRO DE ESTUDOS E APERFEICOAMENTO FUNCIONAL 1.500,00 0,00 1.445,00 0,00 0,00 0,00 0,00 0,00 0,00 31/08/2023
791 1504700 BERNARDO SANTI ENGEL ESTAGIARIO BELO HORIZONTE; BH-08PJ JUIZADO ESPECIAL-GAB 163PJ 0,00 0,00 0,00 204,00 0,00 0,00 0,00 0,00 0,00 31/08/2023
792 1508100 BETANIA BEZERRA FIGUEIRA ESTAGIARIO UBERLANDIA; UBERLANDIA-PJ-24PJ 0,00 0,00 0,00 228,00 0,00 0,00 0,00 0,00 0,00 31/08/2023
793 162900 BETANIA CABRAL DE PINA LARCHER PROMOT.ENTRANC.ESPECIAL CONTAGEM - COMARCA; CONTAGEM-PJ-18PJ 1.500,00 0,00 1.873,11 0,00 26.417,96 0,00 0,00 0,00 605,41 31/08/2023
794 378400 BETANIA FARNESI DE SOUZA E SILVA OFICIAL DO MP CURVELO - COMARCA; CURVELO-PJ-01PJ 1.500,00 0,00 605,00 0,00 0,00 0,00 0,00 0,00 0,00 31/08/2023
795 387400 BETANIA MENDONCA DE ASSIS CARVALHO ANALISTA DO MP JUIZ DE FORA - COMARCA; JUIZ DE FORA-PJ-03PJ 1.500,00 950,00 605,00 0,00 0,00 0,00 0,00 0,00 0,00 31/08/2023
796 1573200 BETHANIA SILVA CLEMENTE ESTAGIARIO LEOPOLDINA; LEOPOLDINA-PJ-04PJ 0,00 0,00 0,00 228,00 0,00 0,00 0,00 0,00 0,00 31/08/2023
797 1611300 BIANCA ARRUDA MOREIRA ESTAGIARIO MUTUM; MUTUM-PJ-UNPJ 0,00 0,00 0,00 252,00 0,00 0,00 0,00 0,00 0,00 31/08/2023
798 714400 BIANCA DE CASTRO RAMOS ASSESSOR PROMOTOR JUSTICA BETIM - COMARCA; BETIM-PJ-13PJ 1.500,00 0,00 605,00 0,00 5.991,41 0,00 0,00 0,00 973,46 31/08/2023
799 1664700 BIANCA DE MELO PONTES ESTAGIARIO BELO HORIZONTE; BH-14PJ DEFESA CONSUMIDOR-GAB 005PJ 0,00 0,00 0,00 264,00 0,00 0,00 0,00 0,00 0,00 31/08/2023
800 1674800 BIANCA DE SOUZA VILELA ESTAGIARIO BELO HORIZONTE; BH-13PJ JUIZO DE TOXICOS-COORD PJ 0,00 0,00 0,00 24,00 0,00 0,00 0,00 0,00 0,00 31/08/2023
801 1579000 BIANCA ISABELA GOULART CORNELIO ESTAGIARIO BELO HORIZONTE; OUVIDORIA DO MPMG 0,00 0,00 0,00 216,00 0,00 0,00 0,00 0,00 0,00 31/08/2023
802 1446400 BIANCA MACHADO DOS SANTOS ESTAGIARIO ARAGUARI; ARAGUARI-PJ-01PJ 0,00 0,00 0,00 192,00 0,00 0,00 0,00 0,00 0,00 31/08/2023
803 1354000 BIANCA NEVES BATISTA COSTA ESTAGIARIO BELO HORIZONTE; PROC JUST ATUACAO TRIBUNAIS SUPERIORES-GAB007 0,00 0,00 0,00 216,00 0,00 0,00 0,00 0,00 0,00 31/08/2023
804 450300 BIANCA OLIVEIRA DE ALBUQUERQUE ANALISTA DO MP BELO HORIZONTE - COMARCA; BH-10PJ EXECUÇÃO PENAL-SECRETARIA 1.500,00 950,00 605,00 0,00 0,00 0,00 0,00 0,00 732,65 31/08/2023
805 535400 BIANCA SALOTO ROSSI ANALISTA DO MP SANTOS DUMONT - COMARCA; SANTOS DUMONT-PJ-01PJ 1.500,00 950,00 605,00 0,00 0,00 0,00 0,00 0,00 821,46 31/08/2023
806 1473300 BIANCA SILVA BRANDAO ESTAGIARIO PASSOS; PASSOS-PJ-05PJ 0,00 0,00 0,00 252,00 0,00 0,00 0,00 0,00 0,00 31/08/2023
807 1447200 BIANKA SOUZA VIEIRA ESTAGIARIO SAO ROMAO; SAO ROMAO-PJ-UNPJ 0,00 0,00 0,00 72,00 0,00 0,00 0,00 0,00 0,00 31/08/2023
808 120800 BRAS MARQUES DE SOUZA ANALISTA DO MP BELO HORIZONTE - COMARCA; SUPERINTENDENCIA DE GESTAO ADMINISTRATIVA 1.500,00 0,00 605,00 0,00 3.470,83 0,00 0,00 0,00 318,16 31/08/2023
809 1639600 BRENDA BATISTA DOS SANTOS ESTAGIARIO MONTE CARMELO; MONTE CARMELO-PJ-02PJ 0,00 0,00 0,00 228,00 0,00 0,00 0,00 0,00 0,00 31/08/2023
810 1568500 BRENDA CUSTODIO DE ABREU ESTAGIARIO CONCEICAO DAS ALAGOAS; CONCEICAO DAS ALAGOAS-PJ-01PJ 0,00 0,00 0,00 240,00 0,00 0,00 0,00 0,00 0,00 31/08/2023
811 1501700 BRENDA GONCALVES DE CARVALHO ESTAGIARIO BELO HORIZONTE; GABINETE DE PROCURADOR DE JUSTIÇA - SALA 902 0,00 0,00 0,00 120,00 0,00 0,00 0,00 0,00 0,00 31/08/2023
812 1484800 BRENDA IZABEL GONCALVES FRANCA ESTAGIARIO BELO HORIZONTE; BH-12PJ JUIZO CRIMINAL-GAB 094PJ 0,00 0,00 0,00 228,00 0,00 0,00 0,00 0,00 0,00 31/08/2023
813 1526400 BRENDA MATOZINHO SANTOS ESTAGIARIO BELO HORIZONTE; BH-18PJ VIOLENCIA DOMESTICA-GAB 186PJ 0,00 0,00 0,00 192,00 0,00 0,00 0,00 0,00 0,00 31/08/2023
814 1645100 BRENDA PETEK DE OLIVEIRA ESTAGIARIO FRUTAL; FRUTAL-PJ-05PJ 0,00 0,00 0,00 252,00 0,00 0,00 0,00 0,00 0,00 31/08/2023
815 724400 BRENDA PIMENTEL DE SOUZA VIANA ASSESSOR PROMOTOR JUSTICA MANHUMIRIM - COMARCA; MANHUMIRIM-PJ-01PJ 1.500,00 0,00 605,00 0,00 0,00 0,00 0,00 0,00 406,76 31/08/2023
816 1476200 BRENDA RODRIGUES DIAS ESTAGIARIO BETIM; BETIM-PJ-02PJ 0,00 0,00 0,00 252,00 0,00 0,00 0,00 0,00 0,00 31/08/2023
817 1365100 BRENDA VIEIRA JORGE ESTAGIARIO BELO HORIZONTE; BH-23PJ INFRACIONAL-RECEPCAO 0,00 0,00 0,00 204,00 0,00 0,00 0,00 0,00 0,00 31/08/2023
818 710500 BRENNO VINICIUS MAGESTE ROSA ASSESSOR PROMOTOR JUSTICA MANHUAÇU - COMARCA; MANHUACU-PJ-02PJ 1.500,00 0,00 605,00 0,00 0,00 0,00 0,00 0,00 453,54 31/08/2023
819 741000 BRENO ALEXEI RODRIGUES DE OLIVEIRA PROMOTOR SUBSTITUTO BELO HORIZONTE - COMARCA; CENTRO DE ESTUDOS E APERFEICOAMENTO FUNCIONAL 1.500,00 0,00 735,64 0,00 0,00 0,00 0,00 0,00 0,00 31/08/2023
820 372400 BRENO COSTA DA SILVA COELHO PROMOTOR 2A ENTRANCIA VISCONDE DO RIO BRANCO - COMARCA; GAECO REGIONAL ZONA MATA-VISCONDE RIO BRANCO 1.500,00 0,00 2.627,27 0,00 39.579,09 0,00 0,00 0,00 0,00 31/08/2023
821 460900 BRENO CRISTIANO DE SOUZA REZENDE ANALISTA DO MP ITAÚNA - COMARCA; ITAUNA-PJ-02PJ 1.500,00 0,00 605,00 0,00 0,00 0,00 0,00 0,00 830,43 31/08/2023
822 1637200 BRENO DEL FRARO XIMENES ESTAGIARIO BELO HORIZONTE; GABINETE DE PROCURADOR DE JUSTICA - SALA 309 0,00 0,00 0,00 132,00 0,00 0,00 0,00 0,00 0,00 31/08/2023
823 96700 BRENO LINHARES LINTZ PROMOT.ENTRANC.ESPECIAL UBERLÂNDIA - COMARCA; UBERLANDIA-PJ-10PJ 1.500,00 0,00 0,00 0,00 16.032,01 0,00 0,00 0,00 0,00 31/08/2023
824 1542200 BRENO MATEUS RAMOS BRAGA ESTAGIARIO MONTES CLAROS; MONTES CLAROS-PJ-14PJ 0,00 0,00 0,00 156,00 0,00 0,00 0,00 0,00 0,00 31/08/2023
825 439500 BRENO MAX DE JESUS SILVEIRA PROMOTOR 2A ENTRANCIA CARANGOLA - COMARCA; CARANGOLA-PJ-02PJ 1.500,00 0,00 1.103,45 0,00 45.233,25 0,00 0,00 0,00 518,30 31/08/2023
826 439300 BRENO NASCIMENTO PACHECO PROMOTOR 2A ENTRANCIA PATROCÍNIO - COMARCA; PATROCINIO-PJ-01PJ 1.500,00 0,00 3.392,49 0,00 22.616,64 0,00 0,00 0,00 518,30 31/08/2023
827 1594500 BRENO TRINDADE CASTRO ESTAGIARIO OLIVEIRA; OLIVEIRA-PJ-01PJ 0,00 0,00 0,00 228,00 0,00 0,00 0,00 0,00 0,00 31/08/2023
828 239000 BRENO VENANCIO ROMANINI OFICIAL DO MP BELO HORIZONTE - COMARCA; BH-20PJ ORD ECON TRIBUTARIA-SECRETARIA 1.500,00 0,00 605,00 0,00 0,00 0,00 0,00 0,00 0,00 31/08/2023
829 1383700 BRIGIDA CRISOSTOMO DA SILVA ESTAGIARIO CARATINGA; CARATINGA-PJ-07PJ 0,00 0,00 0,00 240,00 0,00 0,00 0,00 0,00 0,00 31/08/2023
830 1469400 BRUNA ALMEIDA LOPES ESTAGIARIO JUIZ DE FORA; JUIZ DE FORA-PJ-14PJ 0,00 0,00 0,00 252,00 0,00 0,00 0,00 0,00 0,00 31/08/2023
831 1491400 BRUNA ALVES FERNANDES ESTAGIARIO CAPELINHA; CAPELINHA-PJ-01PJ 0,00 0,00 0,00 228,00 0,00 0,00 0,00 0,00 0,00 31/08/2023
832 1448700 BRUNA BARBOSA SOARES DE SOUZA ESTAGIARIO SAO LOURENCO; SAO LOURENCO-PJ-03PJ 0,00 0,00 0,00 228,00 0,00 0,00 0,00 0,00 0,00 31/08/2023
833 659300 BRUNA BODONI FACCIOLI PROMOTOR 2A ENTRANCIA CARMO DO PARANAÍBA - COMARCA; CARMO DO PARANAIBA-PJ-01PJ 1.500,00 0,00 3.392,49 0,00 45.233,26 0,00 0,00 0,00 518,30 31/08/2023
834 1621400 BRUNA BOECHAT DE SOUZA DOLABELLA ESTAGIARIO BELO HORIZONTE; BH-23PJ CIVEL-SETOR JURIDICO 0,00 0,00 0,00 216,00 0,00 0,00 0,00 0,00 0,00 31/08/2023
835 1625600 BRUNA CAMPIDELLI FERREIRA ESTAGIARIO JOAO MONLEVADE; JOAO MONLEVADE-PJ-02PJ 0,00 0,00 0,00 240,00 0,00 0,00 0,00 0,00 0,00 31/08/2023
836 1622700 BRUNA CARVALHO DE MAGALHAES ESTAGIARIO BELO HORIZONTE; GABINETE DE PROCURADOR DE JUSTIÇA - SALA 712
837 1424500 BRUNA CATAI ALCANTARA ESTAGIARIO PATROCINIO; PATROCINIO-PJ-01PJ 0,00 0,00 0,00 228,00 0,00 0,00 0,00 0,00 0,00 31/08/2023
838 1641400 BRUNA COSTA MACHADO ESTAGIARIO UBERABA; UBERABA-PJ-03PJ 0,00 0,00 0,00 204,00 0,00 0,00 0,00 0,00 0,00 31/08/2023
839 1567900 BRUNA COUTO BOECHAT ESTAGIARIO BELO HORIZONTE; PROC. JUSTICA DIR. DIFUSOS E COLETIVOS
840 1504100 BRUNA CRISTINA OLIVEIRA DOS SANTOS ESTAGIARIO VESPASIANO; VESPASIANO-PJ-06PJ 0,00 0,00 0,00 240,00 0,00 0,00 0,00 0,00 0,00 31/08/2023
841 1606600 BRUNA DA CUNHA SILVA ESTAGIARIO BARBACENA; BARBACENA-PJ-04PJ 0,00 0,00 0,00 240,00 0,00 0,00 0,00 0,00 0,00 31/08/2023
842 1669600 BRUNA DAYANA DA SILVA SOUZA ESTAGIARIO GOVERNADOR VALADARES; GOVERNADOR VALADARES-PJ-02PJ 0,00 0,00 0,00 108,00 0,00 0,00 0,00 0,00 0,00 31/08/2023
843 1408800 BRUNA DE CASTRO VIEIRA ESTAGIARIO BELO HORIZONTE; GABINETE DE PROCURADOR DE JUSTIÇA - SALA 514 0,00 0,00 0,00 12,00 0,00 0,00 0,00 0,00 0,00 31/08/2023
844 1557400 BRUNA DO PRADO SANTOS ESTAGIARIO POUSO ALEGRE; POUSO ALEGRE-PJ-06PJ 0,00 0,00 0,00 240,00 0,00 0,00 0,00 0,00 0,00 31/08/2023
845 1672100 BRUNA EDUARDA DA SILVA LOPES ESTAGIARIO SABARA; SABARA-PJ-01PJ 0,00 0,00 0,00 60,00 0,00 0,00 0,00 0,00 0,00 31/08/2023
846 1432500 BRUNA EDUARDA SANTOS DA SILVA ESTAGIARIO SANTA LUZIA; SANTA LUZIA-PJ-07PJ 0,00 0,00 0,00 228,00 0,00 0,00 0,00 0,00 0,00 31/08/2023
847 1616700 BRUNA ELISA DE OLIVEIRA SILVA ESTAGIARIO CARMO DO PARANAIBA; CARMO DO PARANAIBA-PJ-01PJ 0,00 0,00 0,00 252,00 0,00 0,00 0,00 0,00 0,00 31/08/2023
848 1430400 BRUNA FERNANDES ABINEDER FERREIRA ESTAGIARIO BELO HORIZONTE; BH-09PJ AUDITORIA MILITAR-GAB 073PJ 0,00 0,00 0,00 24,00 0,00 0,00 0,00 0,00 0,00 31/08/2023
849 1487700 BRUNA GOULART TAVARES ESTAGIARIO PARAISOPOLIS; PARAISOPOLIS-PJ-UNPJ 0,00 0,00 0,00 228,00 0,00 0,00 0,00 0,00 0,00 31/08/2023
850 722100 BRUNA HENRIQUE DE SOUZA ASSESSOR PROMOTOR JUSTICA PIRAPETINGA - COMARCA; PIRAPETINGA-PJ-UNPJ 1.500,00 0,00 605,00 0,00 0,00 0,00 0,00 0,00 418,34 31/08/2023
851 642300 BRUNA IZABELITA DE FATIMA OLIVEIRA COSTA OFICIAL DO MP BELO HORIZONTE - COMARCA; BH-02PJ FAMILIA-SECRETARIA 1.500,00 0,00 605,00 0,00 0,00 0,00 0,00 0,00 444,19 31/08/2023
852 513600 BRUNA KARLA MARTINS CARVALHO ANALISTA DO MP GOVERNADOR VALADARES - COMARCA; GOVERNADOR VALADARES-PJ-14PJ 1.500,00 0,00 605,00 0,00 0,00 0,00 0,00 0,00 917,17 31/08/2023
853 1439000 BRUNA LUDMILA ALVES RODRIGUES ESTAGIARIO BELO HORIZONTE; BH-15PJ M AMB PAT HIST CULT-GAB 114PJ 0,00 0,00 0,00 108,00 0,00 0,00 0,00 0,00 0,00 31/08/2023
854 1544100 BRUNA LUISA DE ALMEIDA ESTAGIARIO SETE LAGOAS; SETE LAGOAS-PJ-SEC CRIMINAIS 0,00 0,00 0,00 252,00 0,00 0,00 0,00 0,00 0,00 31/08/2023
855 1485000 BRUNA LUIZA MACHADO DE FARIA ESTAGIARIO BELO HORIZONTE; BH-02PJ FAMILIA-GAB 014PJ
856 1318500 BRUNA MAIARA DE JESUS BARBOSA ESTAGIARIO UBA; UBA-PJ-06PJ 0,00 0,00 0,00 60,00 1.250,00 0,00 0,00 0,00 0,00 31/08/2023
857 415100 BRUNA MARIA SOARES OLIVEIRA COSTA RAMOS ANALISTA DO MP UBÁ - COMARCA; COORD REG BACIA DO RIO PARAIBA DO SUL 1.500,00 0,00 605,00 0,00 0,00 0,00 0,00 0,00 0,00 31/08/2023
858 1550600 BRUNA MARTINS FARIA ESTAGIARIO PATOS DE MINAS; PATOS DE MINAS-PJ-06PJ 0,00 0,00 0,00 204,00 0,00 0,00 0,00 0,00 0,00 31/08/2023
859 1558200 BRUNA MAYRA TERRA ESTAGIARIO VESPASIANO; VESPASIANO-PJ-05PJ 0,00 0,00 0,00 240,00 0,00 0,00 0,00 0,00 0,00 31/08/2023
860 692900 BRUNA MENDES COELHO ASSESSOR PROCURADOR JUSTICA BELO HORIZONTE - COMARCA; GABINETE DE PROCURADOR DE JUSTIÇA - SALA 801 1.500,00 0,00 605,00 0,00 2.819,48 0,00 0,00 0,00 729,07 31/08/2023
861 1575000 BRUNA MENDES DOS SANTOS ESTAGIARIO MONTES CLAROS; COORD REG PJ DEF EDUC DIR CRIANCA ADOL NORTE 0,00 0,00 0,00 252,00 0,00 0,00 0,00 0,00 0,00 31/08/2023
862 470000 BRUNA MORAES ANALISTA DO MP TOMBOS - COMARCA; TOMBOS-PJ-UNPJ 1.500,00 0,00 605,00 0,00 0,00 0,00 0,00 0,00 0,00 31/08/2023
863 614700 BRUNA NATTANY DE LIMA OFICIAL DO MP MANTENA - COMARCA; MANTENA-PJ-01PJ 1.500,00 950,00 605,00 0,00 0,00 0,00 0,00 0,00 505,26 31/08/2023
864 729800 BRUNA PAULA AMARAL CEOLIN ASSESSOR PROMOTOR JUSTICA COMARCA - JUATUBA; JUATUBA-PJ-UNPJ 1.500,00 0,00 605,00 0,00 0,00 0,00 0,00 0,00 224,17 31/08/2023
865 631800 BRUNA RAPOSO JORGE OFICIAL DO MP JUIZ DE FORA - COMARCA; JUIZ DE FORA-PJ-06PJ 1.500,00 950,00 605,00 0,00 0,00 0,00 0,00 0,00 388,06 31/08/2023
866 1567200 BRUNA RODRIGUES TORRES ESTAGIARIO CONTAGEM; CONTAGEM-PJ-18PJ 0,00 0,00 0,00 240,00 0,00 0,00 0,00 0,00 0,00 31/08/2023
867 707800 BRUNA ROMIE WERDINE ASSESSOR PROMOTOR JUSTICA IBIRITÉ - COMARCA; IBIRITE-PJ-06PJ 1.500,00 0,00 605,00 0,00 0,00 0,00 0,00 0,00 469,62 31/08/2023
868 1337600 BRUNA SALES VIEIRA ESTAGIARIO FRUTAL; FRUTAL-PJ-02PJ 0,00 0,00 0,00 252,00 0,00 0,00 0,00 0,00 0,00 31/08/2023
869 697400 BRUNA SILVA SANTOS ASSESSOR PROMOTOR JUSTICA TIMÓTEO - COMARCA; TIMOTEO-PJ-04PJ 1.500,00 0,00 605,00 0,00 0,00 0,00 0,00 0,00 463,60 31/08/2023
870 1524700 BRUNA STEHLING SCHIRMER ESTAGIARIO BELO HORIZONTE; PROC. JUSTICA DIR. DIFUSOS E COLETIVOS
871 1380100 BRUNA STEPHANIE TOLEDO FERNANDES ESTAGIARIO SETE LAGOAS; SETE LAGOAS-PJ-03PJ 0,00 0,00 0,00 180,00 0,00 0,00 0,00 0,00 0,00 31/08/2023
872 699300 BRUNA URSINE TIMO ASSESSOR PROCURADOR JUSTICA BELO HORIZONTE - COMARCA; PROC JUST ESP ACOES COMP ORIG CRIMINAL-ASSESS 1.500,00 0,00 605,00 0,00 0,00 0,00 0,00 0,00 469,98 31/08/2023
873 1627300 BRUNA VANDERLEY FARIAS ESTAGIARIO PIUMHI; PIUMHI-PJ-01PJ 0,00 0,00 0,00 204,00 0,00 0,00 0,00 0,00 0,00 31/08/2023
874 1585200 BRUNA VIDAL DE ALMEIDA ESTAGIARIO ITABIRA; ITABIRA-PJ-03PJ 0,00 0,00 0,00 252,00 0,00 0,00 0,00 0,00 0,00 31/08/2023
875 1364300 BRUNA YASMIM DE OLIVEIRA MOREIRA ESTAGIARIO BELO HORIZONTE; DIRET DE ESTAGIOS E CONVENIOS ACADEMICOS 0,00 0,00 0,00 132,00 0,00 0,00 0,00 0,00 0,00 31/08/2023
876 225100 BRUNO ALEXANDER VIEIRA SOARES PROMOT.ENTRANC.ESPECIAL BELO HORIZONTE - COMARCA; BH-21PJ TUTELA FUNDACOES-GAB 135PJ 1.500,00 0,00 3.571,05 0,00 18.885,89 0,00 0,00 0,00 577,07 31/08/2023
877 463800 BRUNO ALVES TEIXEIRA ANALISTA DO MP UBERLÂNDIA - COMARCA; UBERLANDIA-PJ-04PJ 1.500,00 0,00 605,00 0,00 0,00 0,00 0,00 0,00 917,17 31/08/2023
878 1463600 BRUNO ANDRADE ALVARENGA ESTAGIARIO IPATINGA; IPATINGA-PJ-07PJ 0,00 0,00 0,00 156,00 0,00 0,00 0,00 0,00 0,00 31/08/2023
879 538500 BRUNO AUGUSTO DA SILVA OFICIAL DO MP SANTA LUZIA - COMARCA; SANTA LUZIA-PJ-03PJ 1.500,00 0,00 605,00 0,00 0,00 0,00 0,00 0,00 403,34 31/08/2023
880 318200 BRUNO BARROS DE SOUZA OFICIAL DO MP BELO HORIZONTE - COMARCA; DIRETORIA GESTAO CONTRATOS CONVENIOS 1.500,00 0,00 605,00 0,00 0,00 0,00 0,00 0,00 993,57 31/08/2023
881 740100 BRUNO BRANDI LICHACOVSKI PROMOTOR SUBSTITUTO BELO HORIZONTE - COMARCA; CENTRO DE ESTUDOS E APERFEICOAMENTO FUNCIONAL 1.500,00 0,00 1.786,55 0,00 0,00 0,00 0,00 0,00 0,00 31/08/2023
882 459600 BRUNO CASTELAR LUGAO MENDES GESTOR ADM. SECRETARIA IV BELO HORIZONTE - COMARCA; PROC JUST ATUACAO TRIBUNAIS SUPERIORES 1.500,00 950,00 605,00 0,00 0,00 0,00 0,00 0,00 124,13 31/08/2023
883 361300 BRUNO CESAR MEDEIROS GIARDINI PROMOT.ENTRANC.ESPECIAL IPATINGA - COMARCA; IPATINGA-PJ-06PJ 1.500,00 0,00 3.217,67 0,00 47.613,95 0,00 0,00 0,00 545,58 31/08/2023
884 427400 BRUNO CESAR RIBEIRO DE PAIVA ANALISTA DO MP BELO HORIZONTE - COMARCA; DIRETORIA DO COLEGIO E DA CAMARA DE PJ 1.500,00 0,00 605,00 0,00 0,00 0,00 0,00 0,00 0,00 31/08/2023
885 1425600 BRUNO CEZAR SOARES ESTAGIARIO PEDRO LEOPOLDO; PEDRO LEOPOLDO-PJ-02PJ 0,00 0,00 0,00 168,00 0,00 0,00 0,00 0,00 0,00 31/08/2023
886 380900 BRUNO CIRILO ANTUNES OFICIAL DO MP VARGINHA - COMARCA; VARGINHA-PJ-05PJ 1.500,00 0,00 605,00 0,00 0,00 0,00 0,00 0,00 154,11 31/08/2023
887 666700 BRUNO DE CARVALHO VASCONCELOS PROMOTOR SUBSTITUTO CORINTO - COMARCA; CORINTO-PJ-UNPJ 1.500,00 1.900,00 2.312,00 0,00 39.748,72 0,00 0,00 0,00 492,38 31/08/2023
888 329000 BRUNO DE MELO REIS ANALISTA DO MP PATROCÍNIO - COMARCA; PATROCINIO-PJ-02PJ 1.500,00 1.900,00 605,00 0,00 0,00 0,00 0,00 0,00 0,00 31/08/2023
889 1437500 BRUNO EDUARDO DE ANDRADE GONZAGA ESTAGIARIO BELO HORIZONTE; PROC JUST ATUACAO TRIBUNAIS SUPERIORES-GAB001 0,00 0,00 0,00 216,00 0,00 0,00 0,00 0,00 0,00 31/08/2023
890 339700 BRUNO FERNANDO TORRES LANA PROMOT.ENTRANC.ESPECIAL UBÁ - COMARCA; UBA-PJ-05PJ 1.500,00 950,00 1.970,46 0,00 47.613,95 0,00 0,00 0,00 545,58 31/08/2023
891 697800 BRUNO GAZZOLA BEZERRA FALCAO ASSESSOR PROCURADOR JUSTICA BELO HORIZONTE - COMARCA; PROCURADOR-GERAL ADJUNTO JURIDICO- GABINETE 1.500,00 0,00 605,00 0,00 0,00 0,00 0,00 0,00 435,82 31/08/2023
892 360300 BRUNO GUERRA DE OLIVEIRA PROMOT.ENTRANC.ESPECIAL UBÁ - COMARCA; UBA-PJ-06PJ 1.500,00 0,00 3.294,75 0,00 47.613,94 0,00 0,00 0,00 545,58 31/08/2023
893 1376000 BRUNO HENRIQUE RODRIGUES DOS SANTOS ESTAGIARIO NOVO CRUZEIRO; NOVO CRUZEIRO-PJ-UNPJ 0,00 0,00 0,00 252,00 0,00 0,00 0,00 0,00 0,00 31/08/2023
894 378300 BRUNO HERDY LOPES DE OLIVEIRA ANALISTA DO MP GOVERNADOR VALADARES - COMARCA; GOVERNADOR VALADARES-PJ-03PJ 1.500,00 0,00 605,00 0,00 0,00 0,00 0,00 0,00 0,00 31/08/2023
895 529700 BRUNO JOSE BUENO DIAS OFICIAL DO MP SÃO SEBASTIÃO DO PARAÍSO - COMARCA; SAO SEBASTIAO DO PARAISO-PJ-02PJ 1.500,00 0,00 605,00 0,00 0,00 0,00 0,00 0,00 538,31 31/08/2023
896 691600 BRUNO JOSE RIBEIRO ASSESSOR PROMOTOR JUSTICA CLÁUDIO - COMARCA; CLAUDIO-PJ-UNPJ 1.500,00 0,00 605,00 0,00 0,00 0,00 0,00 0,00 469,84 31/08/2023
897 350100 BRUNO LAUD SERRANO DOS REIS OFICIAL DO MP UBÁ - COMARCA; UBA-PJ-02PJ 1.500,00 0,00 605,00 0,00 0,00 0,00 0,00 0,00 170,60 31/08/2023
898 728900 BRUNO LIMA PITANGA ASSESSOR PROMOTOR JUSTICA BELO HORIZONTE - COMARCA; NUCLEO DA EXECUCAO PENAL 1.500,00 1.900,00 605,00 0,00 0,00 0,00 0,00 0,00 238,63 31/08/2023
899 745900 BRUNO LUIZ MARQUES ROCHA OFICIAL DO MP RIBEIRÃO DAS NEVES - COMARCA; RIBEIRAO DAS NEVES-PJ-11PJ 1.500,00 0,00 605,00 0,00 0,00 0,00 0,00 0,00 0,00 31/08/2023
900 530600 BRUNO MARQUES DE ALMEIDA ROSSI PROMOTOR 1A ENTRANCIA PRESIDENTE OLEGÁRIO - COMARCA; PRESIDENTE OLEGARIO-PJ-UNPJ 1.500,00 0,00 3.222,87 0,00 25.782,96 0,00 0,00 0,00 492,38 31/08/2023
901 373800 BRUNO MARTINO DE ALBUQUERQUE ANALISTA DO MP PONTE NOVA - COMARCA; PONTE NOVA-PJ-03PJ 1.500,00 0,00 605,00 0,00 0,00 0,00 0,00 0,00 0,00 31/08/2023
902 1545100 BRUNO MIRANDA E SILVA ESTAGIARIO BELO HORIZONTE; BH-09PJ AUDITORIA MILITAR-GAB 161PJ 0,00 0,00 0,00 228,00 0,00 0,00 0,00 0,00 0,00 31/08/2023
903 732900 BRUNO NOGUEIRA GUIMARAES ASSESSOR ADMINISTRATIVO I BELO HORIZONTE - COMARCA; COORD DE INCLUSAO E MOBILIZACAO SOCIAIS 1.500,00 0,00 605,00 0,00 0,00 0,00 0,00 0,00 21,08 31/08/2023
904 470400 BRUNO NOVAIS CABRAL ANALISTA DO MP MUTUM - COMARCA; MUTUM-PJ-UNPJ 1.500,00 1.900,00 605,00 0,00 0,00 0,00 0,00 0,00 936,15 31/08/2023
905 457300 BRUNO OLIVEIRA MULLER PROMOT.ENTRANC.ESPECIAL ITABIRA - COMARCA; ITABIRA-PJ-04PJ 1.500,00 0,00 3.571,05 0,00 41.662,20 0,00 0,00 0,00 545,58 31/08/2023
906 648600 BRUNO RIBEIRO E MELO COORDENADOR I BELO HORIZONTE - COMARCA; DIR RELACOES INSTITUCIONAIS 1.500,00 0,00 605,00 0,00 0,00 0,00 0,00 0,00 2.109,28 31/08/2023
907 369200 BRUNO ROBERTO DIAS DE OLIVEIRA OFICIAL DO MP BELO HORIZONTE - COMARCA; BH-22PJ PES COM DEF E IDOSOS-SECRETARIA 1.500,00 0,00 605,00 0,00 0,00 0,00 0,00 0,00 993,57 31/08/2023
908 547700 BRUNO ROBERTO SOUZA GONCALVES ANALISTA DO MP PARACATU - COMARCA; PARACATU-PJ-03PJ 1.500,00 950,00 605,00 0,00 0,00 0,00 0,00 0,00 0,00 31/08/2023
909 546100 BRUNO SA VIEIRA ANALISTA DO MP BARBACENA - COMARCA; BARBACENA-PJ-SECRETARIA 1.500,00 950,00 605,00 0,00 0,00 0,00 0,00 0,00 818,52 31/08/2023
910 438200 BRUNO SALES PEREIRA ANALISTA DO MP BELO HORIZONTE - COMARCA; CENTRAL DE APOIO TECNICO-SETOR CONTABIL 1.500,00 1.615,00 605,00 0,00 0,00 0,00 0,00 0,00 0,00 31/08/2023
911 537400 BRUNO SANT'ANA CESAR ANALISTA DO MP BELO HORIZONTE - COMARCA; BH-12PJ JUIZO CRIMINAL-GAB 105PJ 1.500,00 0,00 605,00 0,00 0,00 0,00 0,00 0,00 925,12 31/08/2023
912 343500 BRUNO SCHIAVO CRUZ PROMOT.ENTRANC.ESPECIAL IPATINGA - COMARCA; GAECO REGIONAL DE IPATINGA 1.500,00 1.900,00 3.571,05 0,00 47.613,95 0,00 0,00 0,00 545,58 31/08/2023
913 684000 BRUNO TORRANO AMORIM DE ALMEIDA PROMOTOR 2A ENTRANCIA SÃO FRANCISCO - COMARCA; SAO FRANCISCO-PJ-02PJ 1.500,00 950,00 3.392,49 0,00 23.747,47 0,00 0,00 0,00 518,30 31/08/2023
914 720300 BRUNO YOGUI SHIMABUKURO PROMOTOR SUBSTITUTO POUSO ALEGRE - COMARCA; POUSO ALEGRE-PJ-07PJ 1.500,00 0,00 3.222,87 0,00 16.114,35 0,00 0,00 0,00 0,00 31/08/2023
915 727700 BYANKA DA SILVA MORAIS ASSESSOR PROCURADOR JUSTICA BELO HORIZONTE - COMARCA; GABINETE DE PROCURADOR DE JUSTIÇA - SALA 805 1.500,00 0,00 605,00 0,00 0,00 0,00 0,00 0,00 270,61 31/08/2023
916 655800 CAEL KALINOWSKI SOUZA MATTA INVESTIGADOR DE POLICIA 2 BELO HORIZONTE - COMARCA; NUCLEO DE INFORMACOES E INTELIGENCIA 1.500,00 0,00 0,00 0,00 0,00 0,00 0,00 0,00 0,00 31/08/2023
917 748100 CAETANO ALBERTO MARTINS BOTELHO ASSESSOR PROMOTOR JUSTICA COROMANDEL - COMARCA; COROMANDEL-PJ-02PJ 1.431,82 0,00 605,00 0,00 0,00 0,00 0,00 0,00 0,00 31/08/2023
918 1556000 CAINAN ANDRADE VALIM GARCIA ESTAGIARIO TRES CORACOES; TRES CORACOES-PJ-03PJ 0,00 0,00 0,00 216,00 0,00 0,00 0,00 0,00 0,00 31/08/2023
919 719000 CAIO AUGUSTO BOGUS PROMOTOR SUBSTITUTO AREADO - COMARCA; AREADO-PJ-UNPJ 1.500,00 0,00 867,00 0,00 16.114,35 0,00 0,00 0,00 492,38 31/08/2023
920 666900 CAIO CESAR ESPIRITO SANTO DO NASCIMENTO PROMOTOR 2A ENTRANCIA SALINAS - COMARCA; SALINAS-PJ-01PJ 1.500,00 0,00 2.411,65 0,00 45.233,25 0,00 0,00 0,00 518,30 31/08/2023
921 685600 CAIO CESAR FERREIRA PROMOTOR SUBSTITUTO CARMO DO PARANAÍBA - COMARCA; CARMO DO PARANAIBA-PJ-01PJ 1.500,00 1.900,00 2.258,38 0,00 37.600,14 0,00 0,00 0,00 492,38 31/08/2023
922 719100 CAIO DEZONTINI BERNARDES PROMOTOR SUBSTITUTO CONCEIÇÃO DO MATO DENTRO - COMARCA; CONCEICAO DO MATO DENTRO-PJ-UNPJ 1.500,00 0,00 867,00 0,00 27.931,54 0,00 0,00 0,00 0,00 31/08/2023
923 1411800 CAIO EMANUEL FERNANDES GOUVEIA ESTAGIARIO MONTES CLAROS; MONTES CLAROS-PJ-15PJ 0,00 0,00 0,00 252,00 0,00 0,00 0,00 0,00 0,00 31/08/2023
924 405800 CAIO FERNANDO RODRIGUES DE OLIVEIRA ANALISTA DO MP BELO HORIZONTE - COMARCA; ASSESSORIA JURIDICO-ADMINISTRATIVA 1.500,00 0,00 605,00 0,00 0,00 0,00 0,00 0,00 0,00 31/08/2023
925 1428700 CAIO GIOVANNI DE FREITAS MATOS ESTAGIARIO BRASILIA DE MINAS; BRASILIA DE MINAS-PJ-02PJ 0,00 0,00 0,00 48,00 0,00 0,00 0,00 0,00 0,00 31/08/2023
926 530000 CAIO GUEDES DE OLIVEIRA ANALISTA DO MP DIAMANTINA - COMARCA; DIAMANTINA-PJ-02PJ 1.500,00 0,00 605,00 0,00 0,00 0,00 0,00 0,00 860,60 31/08/2023
927 1574600 CAIO JOSE DE SOUZA ESTAGIARIO OURO PRETO; OURO PRETO-PJ-04PJ 0,00 0,00 0,00 252,00 0,00 0,00 0,00 0,00 0,00 31/08/2023
928 1577900 CAIO LAGE OLIVEIRA ESTAGIARIO BELO HORIZONTE; CAO-CRIANCAS E ADOLESCENTES-SECRETARIA 0,00 0,00 0,00 216,00 0,00 0,00 0,00 0,00 0,00 31/08/2023
929 1662400 CAIO MAGNO GONCALVES DOS SANTOS ESTAGIARIO BONFINOPOLIS DE MINAS; BONFINOPOLIS DE MINAS-PJ-UNPJ 0,00 0,00 0,00 456,00 0,00 0,00 0,00 0,00 0,00 31/08/2023
930 1551700 CAIO MARINI LIMA COSTA ESTAGIARIO BELO HORIZONTE; CENT ESTAD COOPERACAO TECNICO-JURIDICA
931 491400 CAIO MIRANDA JUNQUEIRA ANALISTA DO MP BUENO BRANDAO - COMARCA; BUENO BRANDAO-PJ-UNPJ 1.500,00 0,00 605,00 0,00 0,00 0,00 0,00 0,00 713,23 31/08/2023
932 668300 CAIO PALLU COSTA PROMOT.ENTRANC.ESPECIAL TEÓFILO OTONI - COMARCA; TEOFILO OTONI-PJ-02PJ 1.500,00 0,00 1.839,10 0,00 17.855,23 0,00 0,00 0,00 545,58 31/08/2023
933 1667800 CAIO VIEIRA ANDRADE ESTAGIARIO POCOS DE CALDAS; POCOS DE CALDAS-PJ-03PJ 0,00 0,00 0,00 144,00 0,00 0,00 0,00 0,00 0,00 31/08/2023
934 171000 CAIUS VINICIUS GONZAGA GOULART PROMOT.ENTRANC.ESPECIAL BELO HORIZONTE - COMARCA; BH-12PJ JUIZO CRIMINAL-GAB 106PJ 1.500,00 0,00 1.797,46 0,00 21.244,32 0,00 0,00 0,00 608,56 31/08/2023
935 1436700 CALEBE JUNGER DE JESUS PEREIRA ESTAGIARIO TEOFILO OTONI; COORD REG SAUDE MACRORREGIAO SANIT NORDESTE 0,00 0,00 0,00 252,00 0,00 0,00 0,00 0,00 0,00 31/08/2023
936 82300 CALIXTO OLIVEIRA SOUZA PROMOT.ENTRANC.ESPECIAL DIVINÓPOLIS - COMARCA; DIVINOPOLIS-PJ-01PJ 1.500,00 0,00 3.021,36 0,00 24.048,01 0,00 0,00 0,00 734,80 31/08/2023
937 415800 CAMILA ALVES DA SILVA ANALISTA DO MP CAETÉ - COMARCA; CAETE-PJ-01PJ 1.500,00 0,00 605,00 0,00 0,00 0,00 0,00 0,00 0,00 31/08/2023
938 1399600 CAMILA AMIZADAI MOREIRA CAMPOS ESTAGIARIO SANTOS DUMONT; SANTOS DUMONT-PJ-03PJ 0,00 0,00 0,00 216,00 0,00 0,00 0,00 0,00 0,00 31/08/2023
939 684900 CAMILA APARECIDA PIRES PROMOTOR SUBSTITUTO CAETÉ - COMARCA; CAETE-PJ-01PJ 1.500,00 0,00 867,00 0,00 42.971,59 0,00 0,00 0,00 492,38 31/08/2023
940 1469500 CAMILA AZEVEDO BAHIA ESTAGIARIO JUIZ DE FORA; JUIZ DE FORA-PJ-10PJ 0,00 0,00 0,00 240,00 0,00 0,00 0,00 0,00 0,00 31/08/2023
941 1352800 CAMILA CAETANO SANTOS ESTAGIARIO LUZ; LUZ-PJ-UNPJ 0,00 0,00 0,00 252,00 0,00 0,00 0,00 0,00 0,00 31/08/2023
942 555800 CAMILA CAROLINE ROCHA CHAVES OFICIAL DO MP SALINAS - COMARCA; SALINAS-PJ-01PJ 1.500,00 0,00 605,00 0,00 0,00 0,00 0,00 0,00 454,00 31/08/2023
943 747700 CAMILA CATIA VILELA VIANA ASSESSOR DE CAO BELO HORIZONTE - COMARCA; CAO-SAUDE-ASSESSORIA 2.181,82 0,00 1.210,00 0,00 0,00 0,00 0,00 0,00 3.002,68 31/08/2023
944 445200 CAMILA CONDE ROCHA ANALISTA DO MP CONTAGEM - COMARCA; CONTAGEM-PJ-21PJ 1.500,00 0,00 605,00 0,00 0,00 0,00 0,00 0,00 104,14 31/08/2023
945 720200 CAMILA COSTA GARRIDO TERRES PROMOTOR SUBSTITUTO OURO PRETO - COMARCA; OURO PRETO-PJ-01PJ 1.500,00 0,00 2.057,10 0,00 0,00 0,00 0,00 0,00 0,00 31/08/2023
946 1444600 CAMILA CRISTINA SOUZA BARBOSA ESTAGIARIO PIRAPORA; PIRAPORA-PJ-01PJ 0,00 0,00 0,00 96,00 1.541,67 0,00 0,00 0,00 0,00 31/08/2023
947 419900 CAMILA CUNNINGHAM PIMENTA DE PADUA ANALISTA DO MP BELO HORIZONTE - COMARCA; ASSESSORIA PSICOSSOCIAL 1.500,00 0,00 605,00 0,00 0,00 0,00 0,00 0,00 0,00 31/08/2023
948 742700 CAMILA DA SILVA GONCALVES ANALISTA DO MP BELO HORIZONTE - COMARCA; DIV FISCAL ADM CONT TERCEIRIZACAO 1.500,00 0,00 605,00 0,00 0,00 0,00 0,00 0,00 0,00 31/08/2023
949 1645700 CAMILA DA SILVA VASCONCELLOS ANTUNES ESTAGIARIO ESMERALDAS; ESMERALDAS-PJ-01PJ
950 1479500 CAMILA DE JESUS FERREIRA ESTAGIARIO VICOSA; VICOSA-PJ-01PJ 0,00 0,00 0,00 168,00 0,00 0,00 0,00 0,00 0,00 31/08/2023
951 714200 CAMILA DE SOUSA CUNHA ASSESSOR PROMOTOR JUSTICA PRADOS - COMARCA; PRADOS-PJ-UNPJ 1.500,00 0,00 605,00 0,00 0,00 0,00 0,00 0,00 424,25 31/08/2023
952 507700 CAMILA ELIZABETH RODRIGUES ANALISTA DO MP BELO HORIZONTE - COMARCA; BH-02PJ FAMILIA-SECRETARIA 1.500,00 0,00 605,00 0,00 0,00 0,00 0,00 0,00 0,00 31/08/2023
953 1663600 CAMILA FERREIRA DA SILVA PEREIRA ESTAGIARIO SETE LAGOAS; SETE LAGOAS-PJ-02PJ 0,00 0,00 0,00 228,00 0,00 0,00 0,00 0,00 0,00 31/08/2023
954 372700 CAMILA FONSECA LIMONGE ANALISTA DO MP BETIM - COMARCA; BETIM-PJ-01PJ 1.500,00 0,00 605,00 0,00 0,00 0,00 0,00 0,00 0,00 31/08/2023
955 1672400 CAMILA FRANCA LACERDA ESTAGIARIO DIAMANTINA; DIAMANTINA-PJ-COORD PJ 0,00 0,00 0,00 84,00 0,00 0,00 0,00 0,00 0,00 31/08/2023
956 621300 CAMILA GOLFETO DE SOUSA VALENTE OFICIAL DO MP CARANGOLA - COMARCA; CARANGOLA-PJ-SECRETARIA 1.500,00 1.425,00 605,00 0,00 0,00 0,00 0,00 0,00 505,26 31/08/2023
957 409800 CAMILA GONCALVES COSTA RIBEIRO ANALISTA DO MP IPATINGA - COMARCA; GAECO REGIONAL DE IPATINGA 1.500,00 950,00 605,00 0,00 0,00 0,00 0,00 0,00 917,17 31/08/2023
958 335000 CAMILA GONTIJO DE PAIVA ANALISTA DO MP BELO HORIZONTE - COMARCA; COORD DE CONTROLE CONSTITUCIONALIDADE 1.500,00 0,00 605,00 0,00 0,00 0,00 0,00 0,00 0,00 31/08/2023
959 693400 CAMILA HECKSHER MONTEIRO ASSESSOR PROCURADOR JUSTICA BELO HORIZONTE - COMARCA; GABINETE DE PROCURADOR DE JUSTIÇA - SALA 613 1.500,00 0,00 605,00 0,00 0,00 0,00 0,00 0,00 435,75 31/08/2023
960 696000 CAMILA IMACULADA OLIVEIRA ASSESSOR PROCURADOR JUSTICA BELO HORIZONTE - COMARCA; GABINETE DE PROCURADOR DE JUSTICA - SALA 312 1.500,00 0,00 605,00 0,00 0,00 0,00 0,00 0,00 459,20 31/08/2023
961 1486600 CAMILA KELLEN SILVA ALMONDES ESTAGIARIO MANTENA; MANTENA-PJ-03PJ 0,00 0,00 0,00 252,00 0,00 0,00 0,00 0,00 0,00 31/08/2023
962 1583000 CAMILA KETLEY FERREIRA DA SILVA ESTAGIARIO BARBACENA; BARBACENA-PJ-02PJ 0,00 0,00 0,00 228,00 0,00 0,00 0,00 0,00 0,00 31/08/2023
963 1456800 CAMILA LOBO SILVA ESTAGIARIO CONGONHAS; CONGONHAS-PJ-01PJ 0,00 0,00 0,00 228,00 0,00 0,00 0,00 0,00 0,00 31/08/2023
964 1478300 CAMILA MARIA DE OLIVEIRA ESTAGIARIO CARATINGA; CARATINGA-PJ-04PJ 0,00 0,00 0,00 252,00 0,00 0,00 0,00 0,00 0,00 31/08/2023
965 547800 CAMILA MATTARELLI DE ABREU E SILVA ANALISTA DO MP BELO HORIZONTE - COMARCA; CAO-VIOLENCIA DOMESTICA E FAMILIAR 1.500,00 0,00 605,00 0,00 0,00 0,00 0,00 0,00 0,00 31/08/2023
966 735800 CAMILA REGINA DE OLIVEIRA ASSESSOR ADMINISTRATIVO II BELO HORIZONTE - COMARCA; CENTRO AUTOCOMPOSICAO DE CONFLITOS 1.500,00 0,00 605,00 0,00 0,00 0,00 0,00 0,00 0,00 31/08/2023
967 1386700 CAMILA RODRIGUES COSTA ESTAGIARIO UBERABA; UBERABA-PJ-06PJ 0,00 0,00 0,00 228,00 0,00 0,00 0,00 0,00 0,00 31/08/2023
968 1382700 CAMILA SANTOS SANTIAGO ESTAGIARIO BELO HORIZONTE; COORD ESTADUAL DE DEFESA DOS ANIMAIS 0,00 0,00 0,00 228,00 0,00 0,00 0,00 0,00 0,00 31/08/2023
969 1635500 CAMILA VIEIRA DE CARVALHO ESTAGIARIO BELO HORIZONTE; DIR CRIACAO E MIDIAS 0,00 0,00 0,00 228,00 0,00 0,00 0,00 0,00 0,00 31/08/2023
970 1508000 CAMILA VIEIRA FREITAS ESTAGIARIO VARGINHA; COORD REG PP SUDOESTE MINAS GERAIS VARGINHA 0,00 0,00 0,00 180,00 0,00 0,00 0,00 0,00 0,00 31/08/2023
971 1347200 CAMILLA MARTINS DE FREITAS ESTAGIARIO CAPINOPOLIS; CAO-CIVEL 0,00 0,00 0,00 228,00 0,00 0,00 0,00 0,00 0,00 31/08/2023
972 1347600 CAMILLA PRINCE CAETANO DE OLIVEIRA ESTAGIARIO BELO HORIZONTE; CAO-CIVEL 0,00 0,00 0,00 204,00 0,00 0,00 0,00 0,00 0,00 31/08/2023
973 1361700 CAMILLA RABELO E SILVA ESTAGIARIO VARZEA DA PALMA; VARZEA DA PALMA-PJ-02PJ 0,00 0,00 0,00 252,00 0,00 0,00 0,00 0,00 0,00 31/08/2023
974 1409900 CAMILLE DE CARVALHO COELHO ESTAGIARIO GUANHAES; GUANHAES-PJ-02PJ 0,00 0,00 0,00 240,00 0,00 0,00 0,00 0,00 0,00 31/08/2023
975 1340100 CAMILLE MOREIRA CARRILHO SOARES ESTAGIARIO BELO HORIZONTE; GABINETE DE PROCURADOR DE JUSTIÇA - SALA 304 0,00 0,00 0,00 72,00 0,00 0,00 0,00 0,00 0,00 31/08/2023
976 430000 CANDIDA MARINA COSTA ANALISTA DO MP BELO HORIZONTE - COMARCA; DIRET DE INFORMACAO E CONHECIMENTO-DINC/CEAF 1.500,00 0,00 605,00 0,00 0,00 0,00 0,00 0,00 0,00 31/08/2023
977 614300 CARINA CORTIELHA OFICIAL DO MP BELO HORIZONTE - COMARCA; BH-23PJ CIVEL-FISC AC POL PUB I 1.500,00 0,00 605,00 0,00 0,00 0,00 0,00 0,00 756,31 31/08/2023
978 380400 CARINA DIAS FACANHA DE SOUZA ANALISTA DO MP SANTA RITA DO SAPUCAÍ - COMARCA; SANTA RITA DO SAPUCAI-PJ-01PJ 1.500,00 950,00 605,00 0,00 0,00 0,00 0,00 0,00 0,00 31/08/2023
979 255000 CARLA ADRIANA DE MENEZES OFICIAL DO MP BELO HORIZONTE - COMARCA; CENT DE APOIO TEC-SETOR DEF,IDOSO E INFANC 1.500,00 0,00 605,00 0,00 0,00 0,00 0,00 0,00 170,60 31/08/2023
980 425100 CARLA ADRIANA DINIZ AMARAL OFICIAL DO MP CONTAGEM - COMARCA; CONTAGEM-PJ-SECRETARIA 1.500,00 0,00 605,00 0,00 0,00 0,00 0,00 0,00 97,42 31/08/2023
981 508100 CARLA ALESSANDRA FONSECA ANALISTA DO MP BELO HORIZONTE - COMARCA; CAO-ORDEM ECONOMICA E TRIBUTARIA-SECRETARIA 1.500,00 0,00 605,00 0,00 0,00 0,00 0,00 0,00 917,17 31/08/2023
982 607100 CARLA ANGELICA DIAS MIRANDA OFICIAL DO MP SANTA LUZIA - COMARCA; SANTA LUZIA-PJ-SECRETARIA 1.500,00 0,00 605,00 0,00 0,00 0,00 0,00 0,00 565,25 31/08/2023
983 351500 CARLA APARECIDA MENDES RAMIRIO OFICIAL DO MP PASSOS - COMARCA; PASSOS-PJ-01PJ 1.500,00 0,00 605,00 0,00 0,00 0,00 0,00 0,00 949,10 31/08/2023
984 1636600 CARLA CRISTINA OLIVEIRA DE SOUSA ESTAGIARIO PITANGUI; PITANGUI-PJ-02PJ 0,00 0,00 0,00 228,00 0,00 0,00 0,00 0,00 0,00 31/08/2023
985 1508200 CARLA CRISTINA REIS ESTAGIARIO CANDEIAS; CANDEIAS-PJ-UNPJ 0,00 0,00 0,00 252,00 0,00 0,00 0,00 0,00 0,00 31/08/2023
986 1599900 CARLA DANIELE COIMBRA ESTAGIARIO TRES PONTAS; TRES PONTAS-PJ-01PJ 0,00 0,00 0,00 252,00 0,00 0,00 0,00 0,00 0,00 31/08/2023
987 713100 CARLA DOS SANTOS SOUZA ASSESSOR PROMOTOR JUSTICA ESPERA FELIZ - COMARCA; ESPERA FELIZ-PJ-UNPJ 1.500,00 0,00 605,00 0,00 0,00 0,00 0,00 0,00 435,68 31/08/2023
988 1498400 CARLA EDUARDA DA SILVA MONCAO ESTAGIARIO MONTES CLAROS; MONTES CLAROS-PJ-17PJ 0,00 0,00 0,00 192,00 0,00 0,00 0,00 0,00 0,00 31/08/2023
989 741300 CARLA FEITOSA DE PAULA DIAS PROMOTOR SUBSTITUTO BELO HORIZONTE - COMARCA; CENTRO DE ESTUDOS E APERFEICOAMENTO FUNCIONAL 1.500,00 0,00 919,55 0,00 0,00 0,00 0,00 0,00 0,00 31/08/2023
990 442800 CARLA GONCALVES COSTA SOALHEIRO ANALISTA DO MP GOVERNADOR VALADARES - COMARCA; GOVERNADOR VALADARES-PJ-11PJ 1.500,00 950,00 605,00 0,00 0,00 0,00 0,00 0,00 62,64 31/08/2023
991 321500 CARLA GONCALVES MASSOTE OFICIAL DO MP CAMPO BELO - COMARCA; CAMPO BELO-PJ-02PJ 1.500,00 0,00 605,00 0,00 0,00 0,00 0,00 0,00 1.077,17 31/08/2023
992 429200 CARLA HAUTEQUESTT BECHARA ANALISTA DO MP BELO HORIZONTE - COMARCA; DIRETORIA DE INTELIGENCIA 1.500,00 0,00 605,00 0,00 3.481,11 0,00 0,00 0,00 319,10 31/08/2023
993 157400 CARLA MARIA ALESSI LAFETA DE CARVALHO PROCURADOR DE JUSTICA BELO HORIZONTE - COMARCA; GABINETE DE PROCURADOR DE JUSTIÇA - SALA 513 1.500,00 0,00 3.021,36 0,00 0,00 0,00 0,00 0,00 0,00 31/08/2023
994 1594000 CARLA MARTINS SOUZA ESTAGIARIO CONTAGEM; CONTAGEM-PJ-12PJ 0,00 0,00 0,00 252,00 0,00 0,00 0,00 0,00 0,00 31/08/2023
995 247500 CARLA MATILDE GUIMARAES DE OLIVEIRA OFICIAL DO MP ITAJUBA - COMARCA; ITAJUBA-PJ-SECRETARIA 1.500,00 0,00 605,00 0,00 0,00 0,00 0,00 0,00 854,71 31/08/2023
996 226100 CARLA MERLI DA CONCEICAO ANALISTA DO MP BELO HORIZONTE - COMARCA; CENTRAL DE APOIO TECNICO-SETOR CONTABIL 1.500,00 0,00 605,00 0,00 0,00 0,00 0,00 0,00 0,00 31/08/2023
997 685700 CARLA PRISCILLA PEREIRA VIANA PROMOTOR SUBSTITUTO GOVERNADOR VALADARES - COMARCA; GOVERNADOR VALADARES-PJ-05PJ 1.500,00 0,00 3.222,87 0,00 42.971,60 0,00 0,00 0,00 492,38 31/08/2023
998 343100 CARLA REGINA GOULART SALARO DUVANEL PROMOT.ENTRANC.ESPECIAL GOVERNADOR VALADARES - COMARCA; GOVERNADOR VALADARES-PJ-06PJ 1.500,00 0,00 1.576,36 0,00 47.613,95 0,00 0,00 0,00 545,58 31/08/2023
999 1402100 CARLA ROBERTA MONTEIRO NASCIMENTO ESTAGIARIO BELO HORIZONTE; BH-13PJ JUIZO DE TOXICOS-COORD PJ 0,00 0,00 0,00 180,00 0,00 0,00 0,00 0,00 0,00 31/08/2023
1000 532600 CARLA RODRIGUES FAZUOLI PROMOTOR 2A ENTRANCIA SACRAMENTO - COMARCA; SACRAMENTO-PJ-02PJ 1.500,00 0,00 3.392,49 0,00 0,00 0,00 0,00 0,00 0,00 31/08/2023
1001 1474200 CARLEUGENIA ROCHA GOMES ESTAGIARIO OURO PRETO; OURO PRETO-PJ-04PJ 0,00 0,00 0,00 240,00 0,00 0,00 0,00 0,00 0,00 31/08/2023
1002 181401 CARLO MICHEL GAUDENSI COELHO ANALISTA DO MP BELO HORIZONTE - COMARCA; BH-08PJ JUIZADO ESPECIAL-SECRETARIA 1.500,00 0,00 605,00 0,00 0,00 0,00 0,00 0,00 0,00 31/08/2023
1003 634000 CARLOS ALBERTO AMORMINO TRIGUEIRO ANALISTA DO MP BELO HORIZONTE - COMARCA; DIRET DE APOIO AS PROCURADORIAS DE JUSTICA 1.500,00 950,00 605,00 0,00 0,00 0,00 0,00 0,00 655,99 31/08/2023
1004 232300 CARLOS ALBERTO DA SILVEIRA ISOLDI FILHO PROMOT.ENTRANC.ESPECIAL BELO HORIZONTE - COMARCA; BH-09PJ AUDITORIA MILITAR-GAB 072PJ 1.500,00 0,00 3.571,05 0,00 19.916,55 0,00 0,00 0,00 608,56 31/08/2023
1005 637900 CARLOS ALBERTO DE MOURA OFICIAL DO MP SETE LAGOAS - COMARCA; SETE LAGOAS-PJ-07PJ 1.500,00 0,00 605,00 0,00 0,00 0,00 0,00 0,00 377,32 31/08/2023
1006 638700 CARLOS ALBERTO FERREIRA BRAGA ANALISTA DO MP VESPASIANO - COMARCA; VESPASIANO-PJ-06PJ 1.500,00 0,00 605,00 0,00 0,00 0,00 0,00 0,00 0,00 31/08/2023
1007 54400 CARLOS ALBERTO RIBEIRO MOREIRA PROMOTOR 2A ENTRANCIA LAVRAS - COMARCA; LAVRAS-PJ-02PJ 1.500,00 0,00 3.152,72 0,00 16.032,00 0,00 0,00 0,00 734,80 31/08/2023
1008 375801 CARLOS ALBERTO ROCHA ANALISTA DO MP VARGINHA - COMARCA; GAECO REGIONAL DE VARGINHA 1.500,00 1.900,00 605,00 0,00 0,00 0,00 0,00 0,00 681,00 31/08/2023
1009 110700 CARLOS ALBERTO VALERA PROMOT.ENTRANC.ESPECIAL UBERABA - COMARCA; UBERABA-PJ-08PJ 1.500,00 0,00 1.445,00 0,00 24.048,01 0,00 0,00 0,00 734,80 31/08/2023
1010 94200 CARLOS ANDRE MARIANI BITTENCOURT PROCURADOR DE JUSTICA BELO HORIZONTE - COMARCA; PROCURADORIA-GERAL ADJUNTA INSTITUCIONAL 1.500,00 0,00 3.759,00 0,00 24.048,01 0,00 0,00 0,00 734,80 31/08/2023
1011 462800 CARLOS ANDREI SOARES FAGUNDES ANALISTA DO MP MONTES CLAROS - COMARCA; MONTES CLAROS-PJ-09PJ 1.500,00 0,00 605,00 0,00 0,00 0,00 0,00 0,00 917,17 31/08/2023
1012 370300 CARLOS AUGUSTO BUENO DIAS ASSESSOR ADMINISTRATIVO IV BELO HORIZONTE - COMARCA; SUPERINTENDÊNCIA DE ENGENHARIA E ARQUITETURA 1.500,00 0,00 605,00 0,00 0,00 0,00 0,00 0,00 724,37 31/08/2023
1013 66200 CARLOS AUGUSTO CANEDO GONCALVES DA SILVA PROCURADOR DE JUSTICA BELO HORIZONTE - COMARCA; GABINETE DE PROCURADOR DE JUSTIÇA - SALA 911 1.500,00 0,00 3.759,00 0,00 0,00 0,00 0,00 0,00 0,00 31/08/2023
1014 83200 CARLOS AUGUSTO ESTEVES DE CARVALHO PROMOT.ENTRANC.ESPECIAL JUIZ DE FORA - COMARCA; JUIZ DE FORA-PJ-16PJ 1.500,00 0,00 2.364,55 0,00 20.841,61 0,00 0,00 0,00 734,80 31/08/2023
1015 143500 CARLOS AUGUSTO GOMES BRAGA PROMOT.ENTRANC.ESPECIAL BELO HORIZONTE - COMARCA; BH-03PJ EMPRESARIAL-GAB 036PJ 1.500,00 0,00 3.073,90 0,00 22.213,82 0,00 0,00 0,00 636,33 31/08/2023
1016 110800 CARLOS CESAR MARQUES LUZ PROMOTOR 1A ENTRANCIA JACUTINGA - COMARCA; JACUTINGA-PJ-UNPJ 1.500,00 0,00 1.314,93 0,00 22.899,11 0,00 0,00 0,00 699,70 31/08/2023
1017 505100 CARLOS CEZAR CARVALHO ANALISTA DO MP CONTAGEM - COMARCA; CONTAGEM-PJ-02PJ 1.500,00 0,00 605,00 0,00 0,00 0,00 0,00 0,00 168,52 31/08/2023
1018 344300 CARLOS EDUARDO AVANZI DE ALMEIDA PROMOTOR 2A ENTRANCIA CAMPO BELO - COMARCA; CAMPO BELO-PJ-03PJ 1.500,00 158,33 3.392,49 0,00 45.233,26 0,00 0,00 0,00 518,30 31/08/2023
1019 196800 CARLOS EDUARDO DE OLIVEIRA MARINHO OFICIAL DO MP ALPINÓPOLIS - COMARCA; ALPINOPOLIS-PJ-UNPJ 1.500,00 0,00 605,00 0,00 0,00 0,00 0,00 0,00 0,00 31/08/2023
1020 1485700 CARLOS EDUARDO DOS SANTOS WALTER ESTAGIARIO BETIM; BETIM-PJ-09PJ 0,00 0,00 0,00 24,00 0,00 0,00 0,00 0,00 0,00 31/08/2023
1021 157500 CARLOS EDUARDO DUTRA PIRES PROMOT.ENTRANC.ESPECIAL SETE LAGOAS - COMARCA; SETE LAGOAS-PJ-02PJ 1.500,00 0,00 2.627,27 0,00 24.048,01 0,00 0,00 0,00 734,80 31/08/2023
1022 483200 CARLOS EDUARDO FERNANDES NEVES RIBEIRO PROMOT.ENTRANC.ESPECIAL BARBACENA - COMARCA; BARBACENA-PJ-08PJ 1.500,00 950,00 3.571,05 0,00 47.613,95 0,00 0,00 0,00 545,58 31/08/2023
1023 315400 CARLOS EDUARDO FERREIRA PINTO PROMOT.ENTRANC.ESPECIAL BELO HORIZONTE - COMARCA; CAO-MEIO AMBIENTE 1.500,00 950,00 3.571,05 0,00 47.613,95 0,00 0,00 0,00 545,58 31/08/2023
1024 1660900 CARLOS EDUARDO FRANKLIN DOS SANTOS ESTAGIARIO CARMO DE MINAS; CARMO DE MINAS-PJ-UNPJ 0,00 0,00 0,00 504,00 0,00 0,00 0,00 0,00 0,00 31/08/2023
1025 1549300 CARLOS EDUARDO LACERDA LOPES ESTAGIARIO NOVA SERRANA; NOVA SERRANA-PJ-01PJ 0,00 0,00 0,00 252,00 0,00 0,00 0,00 0,00 0,00 31/08/2023
1026 55300 CARLOS EDUARDO MAFRA CAVALCANTI PROCURADOR DE JUSTICA BELO HORIZONTE - COMARCA; GABINETE DE PROCURADOR DE JUSTIÇA - SALA 503 1.500,00 0,00 3.152,72 0,00 22.444,80 0,00 0,00 0,00 734,80 31/08/2023
1027 1666700 CARLOS EDUARDO MAGRI DA SILVA ESTAGIARIO BARBACENA; BARBACENA-PJ-07PJ 0,00 0,00 0,00 132,00 0,00 0,00 0,00 0,00 0,00 31/08/2023
1028 650800 CARLOS EDUARDO NIZA DA SILVA OFICIAL DO MP IGARAPÉ - COMARCA; IGARAPE-PJ-01PJ 1.500,00 950,00 605,00 0,00 0,00 0,00 0,00 0,00 437,91 31/08/2023
1029 1626000 CARLOS EDUARDO RIBEIRO ARCANJO ESTAGIARIO PARA DE MINAS; PARA DE MINAS-PJ-02PJ 0,00 0,00 0,00 240,00 0,00 0,00 0,00 0,00 0,00 31/08/2023
1030 491800 CARLOS EDUARDO ROMAN OFICIAL DO MP BARBACENA - COMARCA; BARBACENA-PJ-09PJ 1.500,00 0,00 605,00 0,00 0,00 0,00 0,00 0,00 0,00 31/08/2023
1031 1333500 CARLOS EDUARDO SANTOS DIAS ESTAGIARIO ALMENARA; ALMENARA-PJ-01PJ 0,00 0,00 0,00 252,00 0,00 0,00 0,00 0,00 0,00 31/08/2023
1032 157600 CARLOS EUGENIO SOUTO MAIOR FILIZOLA JUNIOR PROMOT.ENTRANC.ESPECIAL BELO HORIZONTE - COMARCA; BH-07PJ 03 TRIBUNAL DO JURI-GAB 061PJ 1.500,00 0,00 3.138,29 0,00 11.125,11 0,00 0,00 0,00 728,43 31/08/2023
1033 299300 CARLOS HENRIQUE BICALHO ANALISTA DO MP BELO HORIZONTE - COMARCA; BH-17PJ PATRIMONIO PUBLICO-SECRETARIA 1.500,00 950,00 605,00 0,00 0,00 0,00 0,00 0,00 42,30 31/08/2023
1034 205100 CARLOS HENRIQUE ESTEVES OFICIAL DO MP ITAMBACURI - COMARCA; ITAMBACURI-PJ-01PJ 1.500,00 0,00 605,00 0,00 0,00 0,00 0,00 0,00 0,00 31/08/2023
1035 351600 CARLOS HENRIQUE FELICIO DA FONSECA OFICIAL DO MP JUIZ DE FORA - COMARCA; JUIZ DE FORA-PJ-21PJ 1.500,00 0,00 605,00 0,00 0,00 0,00 0,00 0,00 45,26 31/08/2023
1036 1598200 CARLOS HENRIQUE GOULART DIAS ESTAGIARIO VARGINHA; VARGINHA-PJ-02PJ 0,00 0,00 0,00 252,00 0,00 0,00 0,00 0,00 0,00 31/08/2023
1037 1648800 CARLOS HENRIQUE MARTINS ALCANTARA ESTAGIARIO CONSELHEIRO LAFAIETE; CONSELHEIRO LAFAIETE-PJ-03PJ 0,00 0,00 0,00 252,00 0,00 0,00 0,00 0,00 0,00 31/08/2023
1038 1473800 CARLOS HENRIQUE PEREIRA DA SILVA ESTAGIARIO CARATINGA; CARATINGA-PJ-06PJ 0,00 0,00 0,00 252,00 0,00 0,00 0,00 0,00 0,00 31/08/2023
1039 729100 CARLOS HENRIQUE TEIXEIRA BRAGA ASSESSOR ADMINISTRATIVO II BELO HORIZONTE - COMARCA; DIRETORIA DE SUPORTE E MANUTENCAO 1.500,00 0,00 605,00 0,00 0,00 0,00 0,00 0,00 201,33 31/08/2023
1040 210900 CARLOS HENRIQUE TORRES DE SOUZA PROMOT.ENTRANC.ESPECIAL BELO HORIZONTE - COMARCA; BH-06PJ JUIZO CIVEL-GAB 055PJ 1.500,00 0,00 3.571,05 0,00 19.916,55 0,00 0,00 0,00 608,56 31/08/2023
1041 104600 CARLOS JOSE E SILVA FORTES PROMOT.ENTRANC.ESPECIAL DIVINÓPOLIS - COMARCA; DIVINOPOLIS-PJ-06PJ 1.500,00 0,00 3.179,00 0,00 0,00 0,00 0,00 0,00 0,00 31/08/2023
1042 85400 CARLOS JOSE VIEIRA OFICIAL DO MP BELO HORIZONTE - COMARCA; DIRETORIA DO COLEGIO E DA CAMARA DE PJ 1.500,00 0,00 605,00 0,00 3.470,82 0,00 0,00 0,00 318,16 31/08/2023
1043 735700 CARLOS MAGNO DE SOUSA VILACA MAJOR BELO HORIZONTE - COMARCA; GAECO - SETOR POLICIAL MILITAR 1.500,00 0,00 0,00 0,00 0,00 0,00 0,00 0,00 0,00 31/08/2023
1044 229100 CARLOS MERCES DE OLIVEIRA ANALISTA DO MP BELO HORIZONTE - COMARCA; CENTRAL DE APOIO TECN-SETOR DE MEIO AMBIENTE 1.500,00 0,00 605,00 0,00 0,00 0,00 0,00 0,00 0,00 31/08/2023
1045 538300 CARLOS RANGEL SILVA DE MELO ANALISTA DO MP BELO HORIZONTE - COMARCA; DIVISAO DE CONTROLE IMOBILIARIO 1.500,00 1.900,00 605,00 0,00 0,00 0,00 0,00 0,00 0,00 31/08/2023
1046 265100 CARLOS REIFF MIRANDA ANALISTA DO MP BELO HORIZONTE - COMARCA; BH-19PJ SAUDE-SECRETARIA 150PJ 1.500,00 0,00 605,00 0,00 0,00 0,00 0,00 0,00 0,00 31/08/2023
1047 305400 CARLOS ROCHA DE SOUZA OFICIAL DO MP MONTALVÂNIA - COMARCA; MONTALVANIA-PJ-SECRETARIA 1.500,00 0,00 605,00 0,00 0,00 1.170,22 0,00 0,00 604,34 31/08/2023
1048 371600 CARLOS SAMUEL BORGES CUNHA PROMOT.ENTRANC.ESPECIAL BARBACENA - COMARCA; BARBACENA-PJ-07PJ 1.500,00 950,00 2.495,91 0,00 47.613,94 0,00 0,00 0,00 545,58 31/08/2023
1049 744500 CARLOS THIAGO COSTA FIGUEREDO OFICIAL DO MP PARAOPEBA - COMARCA; PARAOPEBA-PJ-UNPJ 1.500,00 0,00 605,00 0,00 0,00 0,00 0,00 0,00 0,00 31/08/2023
1050 1436300 CARLOS VINICIUS JOTA COSTA ESTAGIARIO BELO HORIZONTE; GABINETE DE PROCURADOR DE JUSTIÇA - SALA 912 0,00 0,00 0,00 12,00 0,00 0,00 0,00 0,00 0,00 31/08/2023
1051 293400 CARLOS WILDE RIBEIRO DE MELLO PROMOT.ENTRANC.ESPECIAL JUIZ DE FORA - COMARCA; JUIZ DE FORA-PJ-09PJ 1.500,00 0,00 3.257,80 0,00 13.093,83 0,00 0,00 0,00 545,58 31/08/2023
1052 399900 CARMELITA EVANGELISTA DE SOUZA OFICIAL DO MP JOÃO PINHEIRO - COMARCA; JOAO PINHEIRO-PJ-01PJ 1.500,00 0,00 605,00 0,00 0,00 0,00 0,00 0,00 784,37 31/08/2023
1053 202000 CARMEN LUCIA MARIZ DE MACEDO OFICIAL DO MP BELO HORIZONTE - COMARCA; DIRETORIA GESTAO COMPRAS LICITACOES 1.500,00 0,00 605,00 0,00 5.154,73 0,00 0,00 0,00 472,52 31/08/2023
1054 1581200 CAROLAINE CORREA DA SILVA ESTAGIARIO SAO JOAO NEPOMUCENO; SAO JOAO NEPOMUCENO-PJ-02PJ 0,00 0,00 0,00 252,00 0,00 0,00 0,00 0,00 0,00 31/08/2023
1055 1654500 CAROLANE PEIXOTO DE SOUZA ESTAGIARIO JOAO MONLEVADE; JOAO MONLEVADE-PJ-03PJ 0,00 0,00 0,00 204,00 0,00 0,00 0,00 0,00 0,00 31/08/2023
1056 1633100 CAROLINA ALVES CASTELO BRANCO ESTAGIARIO POMPEU; POMPEU-PJ-UNPJ 0,00 0,00 0,00 252,00 0,00 0,00 0,00 0,00 0,00 31/08/2023
1057 1462200 CAROLINA AMANDA DA SILVA ESTAGIARIO BAEPENDI; BAEPENDI-PJ-UNPJ 0,00 0,00 0,00 252,00 0,00 0,00 0,00 0,00 0,00 31/08/2023
1058 359700 CAROLINA ANDRADE BORGES DE MATTOS PROMOTOR SUBSTITUTO BICAS - COMARCA; BICAS-PJ-UNPJ 1.500,00 0,00 2.732,35 0,00 21.485,80 0,00 0,00 0,00 492,38 31/08/2023
1059 1404300 CAROLINA BARBOSA GUEDES ESTAGIARIO UBERLANDIA; UBERLANDIA-PJ-05PJ 0,00 0,00 0,00 168,00 0,00 0,00 0,00 0,00 0,00 31/08/2023
1060 1664000 CAROLINA BARCELOS BONTEMPO ESTAGIARIO UBERLANDIA; UBERLANDIA-PJ-03PJ
1061 1403600 CAROLINA BEDESCHI CALAIS ESTAGIARIO BELO HORIZONTE; GABINETE DE PROCURADOR DE JUSTIÇA - SALA 707 0,00 0,00 0,00 96,00 0,00 0,00 0,00 0,00 0,00 31/08/2023
1062 1582400 CAROLINA CAETANO OLIVEIRA ESTAGIARIO TEOFILO OTONI; COORD REG APOIO COM INC MOB SOC VALE MUCURI 0,00 0,00 0,00 240,00 0,00 0,00 0,00 0,00 0,00 31/08/2023
1063 701900 CAROLINA CARVALHO COSTA ASSESSOR PROCURADOR JUSTICA BELO HORIZONTE - COMARCA; GABINETE DE PROCURADOR DE JUSTIÇA - SALA 811 1.500,00 0,00 605,00 0,00 0,00 0,00 0,00 0,00 456,26 31/08/2023
1064 611000 CAROLINA CERIGATTO PROMOT.ENTRANC.ESPECIAL GOVERNADOR VALADARES - COMARCA; GOVERNADOR VALADARES-PJ-11PJ 1.500,00 0,00 0,00 0,00 47.613,95 0,00 0,00 0,00 545,58 31/08/2023
1065 228500 CAROLINA CHIARELLA DOS SANTOS RIBEIRO COORDENADOR I BELO HORIZONTE - COMARCA; DIVISAO TRANSPORTES 1.500,00 0,00 605,00 0,00 0,00 0,00 0,00 0,00 42,27 31/08/2023
1066 446500 CAROLINA COSTA VAL RODRIGUES ANALISTA DO MP BELO HORIZONTE - COMARCA; DIVISAO DE MATERIAIS 1.500,00 0,00 605,00 0,00 0,00 0,00 0,00 0,00 38,63 31/08/2023
1067 1562300 CAROLINA DA SILVA CUNHA ESTAGIARIO JUIZ DE FORA; JUIZ DE FORA-PJ-06PJ 0,00 0,00 0,00 228,00 0,00 0,00 0,00 0,00 0,00 31/08/2023
1068 1501900 CAROLINA DE CAMARGOS PEREIRA BARCELLOS ESTAGIARIO BELO HORIZONTE; BH-09PJ AUDITORIA MILITAR-GAB 161PJ 0,00 0,00 0,00 156,00 0,00 0,00 0,00 0,00 0,00 31/08/2023
1069 603501 CAROLINA DOMINGOS BRANDAO RABELLO ANALISTA DO MP BARROSO - COMARCA; BARROSO-PJ-01PJ 1.500,00 1.900,00 605,00 0,00 0,00 0,00 0,00 0,00 0,00 31/08/2023
1070 1613600 CAROLINA DORNELAS DE MELO ESTAGIARIO BELO HORIZONTE; COORD CONTROLE CONST-SECRETARIA 0,00 0,00 0,00 216,00 0,00 0,00 0,00 0,00 0,00 31/08/2023
1071 404300 CAROLINA DOS SANTOS VIEIRA ANALISTA DO MP BELO HORIZONTE - COMARCA; BH-08PJ JUIZADO ESPECIAL-SECRETARIA 1.500,00 0,00 605,00 0,00 0,00 0,00 0,00 0,00 0,00 31/08/2023
1072 1654400 CAROLINA ESPERANCINI COLMANETTI ESTAGIARIO GOVERNADOR VALADARES; GOVERNADOR VALADARES-PJ-05PJ 0,00 0,00 0,00 204,00 0,00 0,00 0,00 0,00 0,00 31/08/2023
1073 1568200 CAROLINA FERREIRA DE FREITAS ESTAGIARIO PERDOES; PERDOES-PJ-UNPJ 0,00 0,00 0,00 216,00 0,00 0,00 0,00 0,00 0,00 31/08/2023
1074 634600 CAROLINA FRARE LAMEIRINHA PROMOTOR 2A ENTRANCIA PATOS DE MINAS - COMARCA; COORD REG BACIAS PARACATU,URUCUIA E ABAETE 1.500,00 0,00 3.392,49 0,00 16.962,47 0,00 0,00 0,00 518,30 31/08/2023
1075 405401 CAROLINA GENTIL MEDEIROS MARQUEZ PROMOTOR 2A ENTRANCIA LAGOA SANTA - COMARCA; LAGOA SANTA - 03ª PJ 1.500,00 1.900,00 3.180,72 0,00 19.224,13 0,00 0,00 0,00 518,30 31/08/2023
1076 551200 CAROLINA LOPES ARANTES MASCARENHAS ANALISTA DO MP BELO HORIZONTE - COMARCA; CAO-VIOLENCIA DOMESTICA E FAMILIAR 1.500,00 1.900,00 605,00 0,00 0,00 0,00 0,00 0,00 0,00 31/08/2023
1077 622600 CAROLINA LOREDO LOPES CATIZANI OFICIAL DO MP RIBEIRÃO DAS NEVES - COMARCA; RIBEIRAO DAS NEVES-PJ-12PJ 1.500,00 0,00 605,00 0,00 0,00 0,00 0,00 0,00 458,99 31/08/2023
1078 362900 CAROLINA MARQUES ANDRADE PROMOT.ENTRANC.ESPECIAL UBERABA - COMARCA; UBERABA-PJ-16PJ 1.500,00 0,00 3.571,05 0,00 47.613,95 0,00 0,00 0,00 545,58 31/08/2023
1079 1551100 CAROLINA MARTINS VITA ESTAGIARIO BELO HORIZONTE; GABINETE DE PROCURADOR DE JUSTIÇA - SALA 303 0,00 0,00 0,00 192,00 0,00 0,00 0,00 0,00 0,00 31/08/2023
1080 457400 CAROLINA MELO CAMPOS MOREIRA PROMOTOR SUBSTITUTO RIBEIRÃO DAS NEVES - COMARCA; RIBEIRAO DAS NEVES-PJ-10PJ 1.500,00 0,00 1.050,91 0,00 42.971,59 0,00 0,00 0,00 492,38 31/08/2023
1081 382200 CAROLINA MENDES CHAVES LIN ANALISTA DO MP BELO HORIZONTE - COMARCA; BH-12PJ JUIZO CRIMINAL-GAB 088PJ 1.500,00 950,00 605,00 0,00 0,00 0,00 0,00 0,00 722,63 31/08/2023
1082 313600 CAROLINA MENDONCA DE SIQUEIRA PROMOT.ENTRANC.ESPECIAL BETIM - COMARCA; BETIM-PJ-08PJ 1.500,00 0,00 1.576,36 0,00 47.613,95 0,00 0,00 0,00 545,58 31/08/2023
1083 461900 CAROLINA MURTA TEIXEIRA DIAS ANALISTA DO MP BELO HORIZONTE - COMARCA; CENTRO AUTOCOMPOSICAO DE CONFLITOS 1.500,00 0,00 605,00 0,00 0,00 0,00 0,00 0,00 713,23 31/08/2023
1084 509600 CAROLINA PINTO DE OLIVEIRA SOUZA ANALISTA DO MP MURIAÉ - COMARCA; MURIAE-PJ-01PJ 1.500,00 950,00 605,00 0,00 0,00 0,00 0,00 0,00 936,57 31/08/2023
1085 526400 CAROLINA QUEIROZ DE CARVALHO PROMOT.ENTRANC.ESPECIAL CONSELHEIRO LAFAIETE - COMARCA; CONSELHEIRO LAFAIETE-PJ-02PJ 1.500,00 0,00 3.023,62 0,00 41.662,21 0,00 0,00 0,00 0,00 31/08/2023
1086 1412700 CAROLINA REIS SILVA ESTAGIARIO PATOS DE MINAS; PATOS DE MINAS-PJ-04PJ 0,00 0,00 0,00 168,00 0,00 0,00 0,00 0,00 0,00 31/08/2023
1087 667000 CAROLINA RITA TORRES GRUBER PROMOTOR 2A ENTRANCIA SÃO FRANCISCO - COMARCA; SAO FRANCISCO-PJ-01PJ 1.500,00 0,00 867,00 0,00 45.233,25 0,00 0,00 0,00 518,30 31/08/2023
1088 629100 CAROLINA RODRIGUES AMARAL ANALISTA DO MP BELO HORIZONTE - COMARCA; PROC. JUSTICA DIR. DIFUSOS E COLETIVOS-SEC 1.500,00 0,00 605,00 0,00 0,00 0,00 0,00 0,00 738,35 31/08/2023
1089 502600 CAROLINA RODRIGUES RUBEN ANALISTA DO MP BELO HORIZONTE - COMARCA; BH-18PJ VIOLENCIA DOMESTICA-GAB 007PJ 1.500,00 1.900,00 605,00 0,00 0,00 0,00 0,00 0,00 917,17 31/08/2023
1090 1616800 CAROLINA SOARES DA FONSECA ESTAGIARIO SETE LAGOAS; SETE LAGOAS-PJ-10PJ 0,00 0,00 0,00 240,00 0,00 0,00 0,00 0,00 0,00 31/08/2023
1091 1561300 CAROLINA TORRES HADDAD ESTAGIARIO JUIZ DE FORA; JUIZ DE FORA-PJ-04PJ 0,00 0,00 0,00 252,00 0,00 0,00 0,00 0,00 0,00 31/08/2023
1092 529600 CAROLINA VAZ DE MELO MAMBRINI ANALISTA DO MP BELO HORIZONTE - COMARCA; BH-14PJ DEFESA CONSUMIDOR-GAB 005PJ 1.500,00 0,00 605,00 0,00 0,00 0,00 0,00 0,00 727,85 31/08/2023
1093 619100 CAROLINA ZAKHIA NARDELLI RODRIGUES ANALISTA DO MP NEPOMUCENO - COMARCA; NEPOMUCENO-PJ-UNPJ 1.500,00 950,00 605,00 0,00 0,00 0,00 0,00 0,00 709,08 31/08/2023
1094 517600 CAROLINE ALVES DE OLIVEIRA MULLER ANALISTA DO MP VISCONDE DO RIO BRANCO - COMARCA; VISCONDE DO RIO BRANCO-PJ-01PJ 1.500,00 0,00 605,00 0,00 0,00 0,00 0,00 0,00 713,23 31/08/2023
1095 373200 CAROLINE ANTUNES RIBEIRO OFICIAL DO MP JACUI - COMARCA; JACUI-PJ-UNPJ 1.500,00 0,00 605,00 0,00 0,00 0,00 0,00 0,00 0,00 31/08/2023
1096 1560800 CAROLINE BORGES ASSUNCAO ESTAGIARIO ITAPAGIPE; ITAPAGIPE-PJ-UNPJ 0,00 0,00 0,00 252,00 0,00 0,00 0,00 0,00 0,00 31/08/2023
1097 723500 CAROLINE CORDEIRO FERNANDES MACHADO ASSESSOR PROMOTOR JUSTICA BELO HORIZONTE - COMARCA; COORD DE INCLUSAO E MOBILIZACAO SOCIAIS 1.500,00 0,00 605,00 0,00 0,00 0,00 0,00 0,00 416,30 31/08/2023
1098 556800 CAROLINE DE SOUZA CARDOSO DOMINGUES OFICIAL DO MP BRASÍLIA DE MINAS - COMARCA; BRASILIA DE MINAS-PJ-02PJ 1.500,00 0,00 605,00 0,00 0,00 0,00 0,00 0,00 408,34 31/08/2023
1099 1585300 CAROLINE DO VALLE SILVA ESTAGIARIO JUIZ DE FORA; JUIZ DE FORA-PJ-02PJ 0,00 0,00 0,00 216,00 0,00 0,00 0,00 0,00 0,00 31/08/2023
1100 1561500 CAROLINE DOS SANTOS LOURENCO ESTAGIARIO SAO LOURENCO; SAO LOURENCO-PJ-04PJ 0,00 0,00 0,00 228,00 0,00 0,00 0,00 0,00 0,00 31/08/2023
1101 1540100 CAROLINE FERNANDA ALVES SOUSA ESTAGIARIO ITAUNA; ITAUNA-PJ-01PJ 0,00 0,00 0,00 204,00 0,00 0,00 0,00 0,00 0,00 31/08/2023
1102 1448200 CAROLINE GONCALVES CARVALHO ESTAGIARIO PAINS; ALFENAS-PJ-06PJ 0,00 0,00 0,00 240,00 0,00 0,00 0,00 0,00 0,00 31/08/2023
1103 1498300 CAROLINE LIMA LOIOLA ESTAGIARIO GOVERNADOR VALADARES; GOVERNADOR VALADARES-PJ-08PJ 0,00 0,00 0,00 252,00 0,00 0,00 0,00 0,00 0,00 31/08/2023
1104 499400 CAROLINE MARQUES DE LOURDES MARZULLO OFICIAL DO MP JUIZ DE FORA - COMARCA; JUIZ DE FORA-PJ-08PJ 1.500,00 1.425,00 605,00 0,00 0,00 0,00 0,00 0,00 0,00 31/08/2023
1105 616800 CAROLINE MONTEIRO DE BARROS ANALISTA DO MP CONTAGEM - COMARCA; CONTAGEM-PJ-11PJ 1.500,00 950,00 605,00 0,00 0,00 0,00 0,00 0,00 709,08 31/08/2023
1106 1395700 CAROLINE OLIVEIRA MOREIRA DOS SANTOS ESTAGIARIO IBIRITE; IBIRITE-PJ-03PJ 0,00 0,00 0,00 216,00 0,00 0,00 0,00 0,00 0,00 31/08/2023
1107 1401200 CAROLINE ORLETTI GUARISE ESTAGIARIO GOVERNADOR VALADARES; GOVERNADOR VALADARES-PJ-01PJ 0,00 0,00 0,00 108,00 0,00 0,00 0,00 0,00 0,00 31/08/2023
1108 342500 CAROLINE PESTANA GOMES PROMOT.ENTRANC.ESPECIAL VESPASIANO - COMARCA; VESPASIANO-PJ-06PJ 1.500,00 1.900,00 3.571,05 0,00 47.613,95 0,00 0,00 0,00 545,58 31/08/2023
1109 1368000 CAROLINE SILVA LOPES ESTAGIARIO BELO HORIZONTE; PROC. JUSTICA DIR. DIFUSOS E COLETIVOS 0,00 0,00 0,00 36,00 0,00 0,00 0,00 0,00 0,00 31/08/2023
1110 1621600 CAROLINE STHEFANE TEIXEIRA MIRANDA ESTAGIARIO LAGOA DA PRATA; LAGOA DA PRATA-PJ-02PJ 0,00 0,00 0,00 252,00 0,00 0,00 0,00 0,00 0,00 31/08/2023
1111 618100 CAROLINE VASCONCELOS COSTA LANZA ANALISTA DO MP PARAOPEBA - COMARCA; PARAOPEBA-PJ-UNPJ 1.500,00 3.800,00 605,00 0,00 0,00 0,00 0,00 0,00 844,08 31/08/2023
1112 699000 CAROLLINA RODRIGUES SOUTO AMARAL ASSESSOR PROCURADOR JUSTICA BELO HORIZONTE - COMARCA; GABINETE DE PROCURADOR DE JUSTIÇA - SALA 405 1.500,00 0,00 605,00 0,00 0,00 0,00 0,00 0,00 435,61 31/08/2023
1113 210600 CASSANDRA DA CONCEICAO DANTAS SERRAO PROMOT.ENTRANC.ESPECIAL BELO HORIZONTE - COMARCA; BH-02PJ FAMILIA-GAB 026PJ 1.500,00 0,00 2.259,45 0,00 12.590,60 0,00 0,00 0,00 577,07 31/08/2023
1114 604000 CASSIA APARECIDA DA SILVA OFICIAL DO MP PARACATU - COMARCA; PARACATU-PJ-01PJ 1.500,00 0,00 605,00 0,00 0,00 0,00 0,00 0,00 408,46 31/08/2023
1115 268800 CASSIA BEATRIZ TEIXEIRA OFICIAL DO MP BELO HORIZONTE - COMARCA; PROC. JUSTICA DE HABEAS CORPUS 1.500,00 0,00 605,00 0,00 0,00 0,00 0,00 0,00 1.755,90 31/08/2023
1116 500000 CASSIA DE OLIVEIRA COSTA VIANA ANALISTA DO MP SETE LAGOAS - COMARCA; SETE LAGOAS-PJ-09PJ 1.500,00 0,00 605,00 0,00 0,00 0,00 0,00 0,00 0,00 31/08/2023
1117 368800 CASSIA LUISA BATISTA MENDONCA WEBER COORDENADOR II BELO HORIZONTE - COMARCA; DIVISÃO DE EDUCAÇÃO PARA O CONSUMO 1.500,00 0,00 605,00 0,00 0,00 0,00 0,00 0,00 0,00 31/08/2023
1118 622200 CASSIA VAZ DE AZEVEDO LISBOA MARZANO ASSESSOR ADMINISTRATIVO III BELO HORIZONTE - COMARCA; CGMP-DIR ESTAGIO PROBATORIO E ORIENT 1.500,00 0,00 605,00 0,00 0,00 0,00 0,00 0,00 523,19 31/08/2023
1119 156100 CASSIA VIRGINIA SERRA TEIXEIRA GONTIJO PROCURADOR DE JUSTICA BELO HORIZONTE - COMARCA; GABINETE DE PROCURADOR DE JUSTIÇA - SALA 804 1.500,00 0,00 3.021,36 0,00 8.016,00 0,00 0,00 0,00 734,80 31/08/2023
1120 1532800 CASSIO BRAGA DOS SANTOS ESTAGIARIO JOAO PINHEIRO; JOAO PINHEIRO-PJ-01PJ
1121 121000 CASSIO HENRIQUE AFONSO DA SILVA OFICIAL DO MP BELO HORIZONTE - COMARCA; CGMP-ASSESSORIA TECNICA 1.500,00 0,00 605,00 0,00 0,00 0,00 0,00 0,00 0,00 31/08/2023
1122 1374800 CASSIO LUCAS RIBAS NUNES ESTAGIARIO SAO LOURENCO; SAO LOURENCO-PJ-03PJ 0,00 0,00 0,00 84,00 1.333,33 0,00 0,00 0,00 0,00 31/08/2023
1123 512001 CATARINA NATALINO CALIXTO COORDENADOR II BELO HORIZONTE - COMARCA; DIRETORIA GESTAO TRANSPORTES 1.500,00 950,00 605,00 0,00 5.716,57 0,00 0,00 0,00 -375,34 31/08/2023
1124 606200 CATARINE DE SIQUEIRA DE QUADROS ANALISTA DO MP CONTAGEM - COMARCA; CONTAGEM-PJ-08PJ 1.500,00 950,00 605,00 0,00 0,00 0,00 0,00 0,00 0,00 31/08/2023
1125 1592300 CATHARINA VENANCIO COSTA ESTAGIARIO BELO HORIZONTE; BH-12PJ JUIZO CRIMINAL-GAB 086PJ 0,00 0,00 0,00 216,00 0,00 0,00 0,00 0,00 0,00 31/08/2023
1126 1557900 CATHARINE VIEIRA CORDEIRO ESTAGIARIO BELO HORIZONTE; GABINETE DE PROCURADOR DE JUSTIÇA - SALA 911
1127 1666400 CATHERINE MINUEZA MARTINI ESTAGIARIO BELO HORIZONTE; BH-23PJ CIVEL-GAB 143PJ 0,00 0,00 0,00 96,00 0,00 0,00 0,00 0,00 0,00 31/08/2023
1128 1610700 CATIA CAETANO OLIMPIO ESTAGIARIO CONTAGEM; CONTAGEM-PJ-03PJ 0,00 0,00 0,00 252,00 0,00 0,00 0,00 0,00 0,00 31/08/2023
1129 622300 CECILIA APARECIDA PEREIRA ASSUNCAO OFICIAL DO MP TRÊS PONTAS - COMARCA; TRES PONTAS-PJ-SECRETARIA 1.500,00 950,00 605,00 0,00 0,00 0,00 0,00 0,00 462,19 31/08/2023
1130 1602200 CECILIA ARAUJO DE FREITAS ESTAGIARIO BELO HORIZONTE; COORD DE INCLUSAO E MOBILIZACAO SOCIAIS 0,00 0,00 0,00 168,00 0,00 0,00 0,00 0,00 0,00 31/08/2023
1131 538000 CECILIA FONTES DE MATOS PIMENTEL ANALISTA DO MP PALMA - COMARCA; PALMA-PJ-UNPJ 1.500,00 950,00 605,00 0,00 0,00 0,00 0,00 0,00 718,81 31/08/2023
1132 1520200 CECILIA GIAMMINONNI BARBOSA OZOLIO ESTAGIARIO BELO HORIZONTE; ASSESSORIA ESPECIAL DO PGJ 0,00 0,00 0,00 228,00 0,00 0,00 0,00 0,00 0,00 31/08/2023
1133 1629300 CECILIA ROSALINE FERREIRA DE ARRUDA ESTAGIARIO PARACATU; COORD REG PP NOROESTE MINAS GERAIS PARACATU 0,00 0,00 0,00 252,00 0,00 0,00 0,00 0,00 0,00 31/08/2023
1134 261300 CECILIO ANTONIO CAMPOS DOS REIS ANALISTA DO MP BELO HORIZONTE - COMARCA; AUDITORIA INTERNA 1.500,00 0,00 605,00 0,00 0,00 0,00 0,00 0,00 2.116,61 31/08/2023
1135 386400 CEFAS AMORELI DE FIGUEIREDO OFICIAL DO MP CABO VERDE - COMARCA; CABO VERDE-PJ-SECRETARIA 1.500,00 0,00 605,00 0,00 0,00 0,00 0,00 0,00 520,18 31/08/2023
1136 105600 CELIA BEATRIZ GOMES DOS SANTOS PROCURADOR DE JUSTICA BELO HORIZONTE - COMARCA; PROC JUSTICA DIR DIFUSOS E COLETIVOS-GAB006 1.500,00 0,00 2.075,55 0,00 32.064,01 0,00 0,00 0,00 734,80 31/08/2023
1137 421000 CELINA BENEDITA DE SOUZA ALMEIDA OFICIAL DO MP CAMBUÍ - COMARCA; CAMBUI-PJ-01PJ 1.500,00 0,00 605,00 0,00 0,00 0,00 0,00 0,00 0,00 31/08/2023
1138 252900 CELIO DE MELO CASTOR ANALISTA DO MP BELO HORIZONTE - COMARCA; DIVISAO FROTA 1.500,00 0,00 605,00 0,00 0,00 0,00 0,00 0,00 0,00 31/08/2023
1139 486300 CELIO DIMAS ESTEVES RUAS PROMOT.ENTRANC.ESPECIAL CORONEL FABRICIANO - COMARCA; CORONEL FABRICIANO-PJ-02PJ 1.500,00 0,00 2.495,90 0,00 5.951,74 0,00 0,00 0,00 545,58 31/08/2023
1140 395700 CELIO FERREIRA LIMA OFICIAL DO MP CONTAGEM - COMARCA; CONTAGEM-PJ-SECRETARIA 1.500,00 0,00 605,00 0,00 0,00 0,00 0,00 0,00 692,25 31/08/2023
1141 281300 CELMA REGINA PEREIRA SANTOS ANALISTA DO MP BELO HORIZONTE - COMARCA; PROMOT ESTADUAL DE DEF PATRI CULT E TUR DE MG 1.500,00 0,00 605,00 0,00 0,00 0,00 0,00 0,00 0,00 31/08/2023
1142 535600 CELSO MEDEIROS DE PAIVA OFICIAL DO MP RIO PRETO - COMARCA; RIO PRETO-PJ-SECRETARIA 1.500,00 0,00 605,00 0,00 0,00 0,00 0,00 0,00 589,27 31/08/2023
1143 157700 CELSO PENNA FERNANDES JUNIOR PROMOT.ENTRANC.ESPECIAL BELO HORIZONTE - COMARCA; BH-23PJ CIVEL-GAB 162PJ 1.500,00 0,00 3.021,36 0,00 24.048,01 0,00 0,00 0,00 734,80 31/08/2023
1144 93700 CESAR ANTONIO COSSI PROCURADOR DE JUSTICA BELO HORIZONTE - COMARCA; GABINETE DE PROCURADOR DE JUSTIÇA - SALA 805 1.500,00 0,00 3.205,26 0,00 8.016,00 0,00 0,00 0,00 734,80 31/08/2023
1145 293100 CESAR ANTONIO DE LIMA PROMOT.ENTRANC.ESPECIAL POÇOS DE CALDAS - COMARCA; POCOS DE CALDAS-PJ-03PJ 1.500,00 0,00 3.438,81 0,00 11.903,49 0,00 0,00 0,00 0,00 31/08/2023
1146 293800 CESAR AUGUSTO DOS SANTOS PROMOT.ENTRANC.ESPECIAL BELO HORIZONTE - COMARCA; BH-12PJ JUIZO CRIMINAL-GAB 091PJ 1.500,00 0,00 1.103,45 0,00 47.613,95 0,00 0,00 0,00 545,58 31/08/2023
1147 367000 CESAR NARVAES DE AVELAR OFICIAL DO MP BELO HORIZONTE - COMARCA; DIRET DE INFORMACAO E CONHECIMENTO-DINC/CEAF 1.500,00 0,00 605,00 0,00 0,00 0,00 0,00 0,00 772,64 31/08/2023
1148 1492600 CESAR OTAVIO VIEIRA DA SILVA ESTAGIARIO PERDOES; PERDOES-PJ-UNPJ 0,00 0,00 0,00 192,00 0,00 0,00 0,00 0,00 0,00 31/08/2023
1149 226500 CESAR SILVEIRA BARROUIN OFICIAL DO MP BELO HORIZONTE - COMARCA; DIRETORIA DE ADMINISTRACAO FINANCEIRA 1.500,00 0,00 605,00 0,00 0,00 0,00 0,00 0,00 38,63 31/08/2023
1150 293500 CESAR YOSHIKAWA PROMOT.ENTRANC.ESPECIAL BELO HORIZONTE - COMARCA; BH-12PJ JUIZO CRIMINAL-GAB 083PJ 1.500,00 0,00 2.942,55 0,00 39.281,50 0,00 0,00 0,00 545,58 31/08/2023
1151 121400 CEZAR MORENO CONCEICAO TAVARES OFICIAL DO MP BELO HORIZONTE - COMARCA; COORD DE INCLUSAO E MOBILIZACAO SOCIAIS 1.500,00 950,00 605,00 0,00 3.470,82 0,00 0,00 0,00 318,16 31/08/2023
1152 1624600 CEZAR RODRIGUES ROSA ESTAGIARIO DIVINOPOLIS; DIVINOPOLIS-PJ-07PJ 0,00 0,00 0,00 252,00 0,00 0,00 0,00 0,00 0,00 31/08/2023
1153 1664400 CHARLE ARAUJO FORZAN ESTAGIARIO ESMERALDAS; ESMERALDAS-PJ-01PJ 0,00 0,00 0,00 516,00 0,00 0,00 0,00 0,00 0,00 31/08/2023
1154 664100 CHARLES BARBOSA DA SILVA 3O. SARGENTO BELO HORIZONTE - COMARCA; NUCLEO DE OPERACOES DE SEGURANCA DE PESSOAL 1.500,00 0,00 0,00 0,00 0,00 0,00 0,00 0,00 0,00 31/08/2023
1155 210400 CHARLES DANIEL FRANCA SALOMAO PROMOT.ENTRANC.ESPECIAL PARÁ DE MINAS - COMARCA; PARA DE MINAS-PJ-02PJ 1.500,00 0,00 2.364,55 0,00 19.813,47 0,00 0,00 0,00 605,41 31/08/2023
1156 669200 CHARLES HENRIQUE SQUARCIO CABO BELO HORIZONTE - COMARCA; GAECO - SETOR POLICIAL MILITAR 1.500,00 0,00 0,00 0,00 0,00 0,00 0,00 0,00 0,00 31/08/2023
1157 243800 CHARLES MARTINS MUNIZ OFICIAL DO MP BELO HORIZONTE - COMARCA; LAB TECNOLOGIA CONTRA LAVAGEM DINHEIRO 1.500,00 0,00 0,00 0,00 0,00 0,00 0,00 0,00 -357,31 31/08/2023
1158 193500 CHARLIN CESAR KOURLY OFICIAL DO MP ARAGUARI - COMARCA; ARAGUARI-PJ-07PJ 1.500,00 0,00 605,00 0,00 0,00 0,00 0,00 0,00 0,00 31/08/2023
1159 385500 CHILLEN PEIXOTO DE MOURA OFICIAL DO MP BELO HORIZONTE - COMARCA; DIVISAO DE MATERIAIS 1.500,00 1.900,00 605,00 0,00 0,00 0,00 0,00 0,00 683,29 31/08/2023
1160 534500 CHRISTIAN DOUGLAS BRITO RUAS OFICIAL DO MP BOCAIÚVA - COMARCA; BOCAIUVA-PJ-03PJ 1.500,00 0,00 605,00 0,00 0,00 0,00 0,00 0,00 539,02 31/08/2023
1161 370600 CHRISTIAN KARINE FELIX PRATES ASSESSOR ADMINISTRATIVO IV BELO HORIZONTE - COMARCA; SUPRIN DE PLANEJAMENTO E COORDENACAO 1.500,00 0,00 605,00 0,00 0,00 0,00 0,00 0,00 731,72 31/08/2023
1162 435800 CHRISTIANA BAHIA ANDRADE PINA ANALISTA DO MP BELO HORIZONTE - COMARCA; LABORATORIO TECNOLOGIA INTELIGENCIA 1.500,00 0,00 605,00 0,00 0,00 0,00 0,00 0,00 0,00 31/08/2023
1163 516800 CHRISTIANE FERREIRA DO NASCIMENTO ANALISTA DO MP POUSO ALEGRE - COMARCA; POUSO ALEGRE-PJ-04PJ 1.500,00 0,00 605,00 0,00 0,00 0,00 0,00 0,00 732,62 31/08/2023
1164 176000 CHRISTIANE JUNQUEIRA PULITI ANDRADE DE BARROS ASSESSOR ADM. ESPECIAL BELO HORIZONTE - COMARCA; PROCURADORIA-GERAL ADJUNTA INSTITUCIONAL 1.500,00 0,00 605,00 0,00 3.470,83 0,00 0,00 0,00 361,56 31/08/2023
1165 1521700 CHRISTIANE KENIA GOMES ALVES ESTAGIARIO CURVELO; CURVELO-PJ-05PJ 0,00 0,00 0,00 252,00 0,00 0,00 0,00 0,00 0,00 31/08/2023
1166 319200 CHRISTIANE MARIA DE ASSIS RUSSO OFICIAL DO MP BELO HORIZONTE - COMARCA; CAO-ORDEM ECONOMICA E TRIBUTARIA-SECRETARIA 1.500,00 950,00 605,00 0,00 0,00 0,00 0,00 0,00 0,00 31/08/2023
1167 510300 CHRISTIANE MARY DE CARVALHO FERREIRA ANALISTA DO MP BELO HORIZONTE - COMARCA; DIRETORIA DE SISTEMAS DE INFORMACAO 1.500,00 0,00 605,00 0,00 0,00 0,00 0,00 0,00 732,72 31/08/2023
1168 424900 CHRISTIANE PEREIRA TURNER DE ARAUJO OFICIAL DO MP BELO HORIZONTE - COMARCA; CAO-PATRIMONIO PUBLICO 1.500,00 950,00 605,00 0,00 0,00 0,00 0,00 0,00 817,66 31/08/2023
1169 731000 CHRISTIANE TEIXEIRA ANTUNA ASSESSOR ADMINISTRATIVO III BELO HORIZONTE - COMARCA; DIR CONTEUDO JORNALISTICO 1.500,00 0,00 605,00 0,00 0,00 0,00 0,00 0,00 155,05 31/08/2023
1170 513700 CHRISTIANE VIEIRA SOARES PEDERSOLI COORDENADOR II BELO HORIZONTE - COMARCA; ASSESSORIA JURIDICA DO PROCON-MG 1.500,00 950,00 605,00 0,00 0,00 0,00 0,00 0,00 58,64 31/08/2023
1171 163300 CHRISTIANNE COTRIM ASSAD BENSOUSSAN PROMOT.ENTRANC.ESPECIAL BELO HORIZONTE - COMARCA; BH-12PJ JUIZO CRIMINAL-GAB 087PJ 1.500,00 0,00 3.571,05 0,00 18.588,78 0,00 0,00 0,00 608,56 31/08/2023
1172 371400 CHRISTIANO LEONARDO GONZAGA GOMES PROMOTOR 2A ENTRANCIA SABARÁ - COMARCA; SABARA-PJ-01PJ 1.500,00 0,00 2.443,36 0,00 45.233,25 0,00 0,00 0,00 518,30 31/08/2023
1173 412300 CHRYSTIAN MACHADO RIBEIRO ANALISTA DO MP VARGINHA - COMARCA; VARGINHA-PJ-04PJ 1.500,00 0,00 605,00 0,00 0,00 0,00 0,00 0,00 0,00 31/08/2023
1174 513800 CHRYSTIANE DO NASCIMENTO DE MAGALHAES OFICIAL DO MP UBERLÂNDIA - COMARCA; UBERLANDIA-PJ-10PJ 1.500,00 0,00 605,00 0,00 0,00 0,00 0,00 0,00 648,09 31/08/2023
1175 497900 CIBELE DE FREITAS SANCHES DIAS ANALISTA DO MP SABARÁ - COMARCA; SABARA-PJ-03PJ 1.500,00 0,00 605,00 0,00 0,00 0,00 0,00 0,00 911,78 31/08/2023
1176 500900 CIBELLE SILVA PRADO ALVARENGA ANALISTA DO MP ITANHANDU - COMARCA; ITANHANDU-PJ-UNPJ 1.500,00 950,00 605,00 0,00 0,00 0,00 0,00 0,00 919,52 31/08/2023
1177 1364400 CIBELLY OLIVEIRA SOARES ESTAGIARIO TEOFILO OTONI; TEOFILO OTONI-PJ-07PJ 0,00 0,00 0,00 204,00 0,00 0,00 0,00 0,00 0,00 31/08/2023
1178 1637900 CINARA MARCIELLE LIMA PEREIRA ESTAGIARIO ARINOS; ARINOS-PJ-UNPJ 0,00 0,00 0,00 228,00 0,00 0,00 0,00 0,00 0,00 31/08/2023
1179 296400 CINTIA APARECIDA MOREIRA NAVES E RODRIGUES ANALISTA DO MP CAMPO BELO - COMARCA; CAMPO BELO-PJ-01PJ 1.500,00 0,00 605,00 0,00 0,00 0,00 0,00 0,00 0,00 31/08/2023
1180 171200 CINTIA MARIA OLIVEIRA DE LUCENA PROMOT.ENTRANC.ESPECIAL BELO HORIZONTE - COMARCA; BH-23PJ INFRACIONAL-GAB 144PJ 1.500,00 0,00 1.734,00 0,00 13.849,66 0,00 0,00 0,00 577,07 31/08/2023
1181 407900 CINTIA NETO COMELLI ANALISTA DO MP BELO HORIZONTE - COMARCA; CENTRAL DE APOIO TECNICO-SETOR CONTABIL 1.500,00 0,00 605,00 0,00 0,00 0,00 0,00 0,00 0,00 31/08/2023
1182 304700 CINTIA QUEIROZ OFICIAL DO MP BELO HORIZONTE - COMARCA; OUVIDORIA DO MPMG 1.500,00 0,00 605,00 0,00 0,00 0,00 0,00 0,00 1.001,15 31/08/2023
1183 163000 CINTIA ROBERTA GOMES DE LIMA PROMOTOR 2A ENTRANCIA VARGINHA - COMARCA; COORD REG PJ DEF EDUC DIR CRIANCA ADOL SUL 1.500,00 0,00 2.364,55 0,00 0,00 0,00 0,00 0,00 0,00 31/08/2023
1184 286100 CIRO CANGUSSU CORDEIRO OFICIAL DO MP IPATINGA - COMARCA; IPATINGA-PJ-09PJ 1.500,00 950,00 605,00 0,00 0,00 0,00 0,00 0,00 0,00 31/08/2023
1185 1657700 CIRO SILVA PERES ESTAGIARIO POCOS DE CALDAS; POCOS DE CALDAS-PJ-02PJ 0,00 0,00 0,00 516,00 0,00 0,00 0,00 0,00 0,00 31/08/2023
1186 689900 CISSA NOGUEIRA COLEN ASSESSOR PROCURADOR JUSTICA BELO HORIZONTE - COMARCA; GABINETE DE PROCURADOR DE JUSTIÇA - SALA 608 1.500,00 0,00 605,00 0,00 0,00 0,00 0,00 0,00 469,62 31/08/2023
1187 1634700 CLARA CARVALHO PEREIRA DOS REIS ESTAGIARIO BELO HORIZONTE; BH-08PJ JUIZADO ESPECIAL-GAB 168PJ 0,00 0,00 0,00 216,00 0,00 0,00 0,00 0,00 0,00 31/08/2023
1188 1625700 CLARA DANIELE MOURA DE SOUSA ESTAGIARIO BELO HORIZONTE; PROC JUST ATUACAO TRIBUNAIS SUPERIORES-GAB005 0,00 0,00 0,00 192,00 0,00 0,00 0,00 0,00 0,00 31/08/2023
1189 1381300 CLARA DE SALES DUARTE ESTAGIARIO BELO HORIZONTE; GABINETE DE PROCURADOR DE JUSTICA - SALA 311 0,00 0,00 0,00 108,00 0,00 0,00 0,00 0,00 0,00 31/08/2023
1190 681700 CLARA FERREIRA ALKIMIM ASSESSOR PROMOTOR JUSTICA PEDRA AZUL - COMARCA; PEDRA AZUL-PJ-02PJ 1.500,00 0,00 605,00 0,00 0,00 0,00 0,00 0,00 469,62 31/08/2023
1191 1485300 CLARA GABRIELA GOUVEIA MONTEIRO ESTAGIARIO BELO HORIZONTE; BH-07PJ 03 TRIBUNAL DO JURI-GAB 064PJ 0,00 0,00 0,00 192,00 0,00 0,00 0,00 0,00 0,00 31/08/2023
1192 1643700 CLARA INEZ RIBEIRO MIRANDA FERREIRA ESTAGIARIO PEDRA AZUL; PEDRA AZUL-PJ-01PJ 0,00 0,00 0,00 240,00 0,00 0,00 0,00 0,00 0,00 31/08/2023
1193 715500 CLARA ISABELLE SOUSA FARIA ASSESSOR PROCURADOR JUSTICA BELO HORIZONTE - COMARCA; GABINETE DE PROCURADOR DE JUSTIÇA - SALA 712 1.500,00 0,00 605,00 0,00 0,00 0,00 0,00 0,00 424,25 31/08/2023
1194 484900 CLARA MARIA HOEHNE SEPULVEDA PROMOT.ENTRANC.ESPECIAL SETE LAGOAS - COMARCA; SETE LAGOAS-PJ-09PJ 1.500,00 0,00 3.571,05 0,00 47.613,95 0,00 0,00 0,00 545,58 31/08/2023
1195 1615800 CLARA PORTELLA FERREIRA ESTAGIARIO BELO HORIZONTE; BH-PJ AUXILIAR-GAB 141PJ 0,00 0,00 0,00 204,00 0,00 0,00 0,00 0,00 0,00 31/08/2023
1196 723100 CLARA PRADO CAMPOS ASSESSOR PROCURADOR JUSTICA BELO HORIZONTE - COMARCA; GABINETE DE PROCURADOR DE JUSTIÇA - SALA 1006 1.500,00 0,00 605,00 0,00 0,00 0,00 0,00 0,00 404,18 31/08/2023
1197 1572200 CLARA RIHS MATOS VIEIRA ESTAGIARIO TEOFILO OTONI; TEOFILO OTONI-PJ-08PJ 0,00 0,00 0,00 228,00 0,00 0,00 0,00 0,00 0,00 31/08/2023
1198 695500 CLARA RODRIGUES BLACH ASSESSOR PROCURADOR JUSTICA BELO HORIZONTE - COMARCA; GABINETE DE PROCURADOR DE JUSTIÇA - SALA 1003 1.500,00 0,00 605,00 0,00 0,00 0,00 0,00 0,00 435,76 31/08/2023
1199 1598100 CLARA RODRIGUES DE SALLES ESTAGIARIO SANTA LUZIA; SANTA LUZIA-PJ-04PJ 0,00 0,00 0,00 228,00 0,00 0,00 0,00 0,00 0,00 31/08/2023
1200 1324500 CLARA VIEIRA DE REZENDE ESTAGIARIO BELO HORIZONTE; PROC. JUSTICA DIR. DIFUSOS E COLETIVOS 0,00 0,00 0,00 0,00 1.850,00 0,00 0,00 0,00 0,00 31/08/2023
1201 1523100 CLARICE ALVES NOGUEIRA ESTAGIARIO UBERABA; UBERABA-PJ-14PJ 0,00 0,00 0,00 228,00 0,00 0,00 0,00 0,00 0,00 31/08/2023
1202 1615600 CLARICE DE SOUZA GOULART ESTAGIARIO DIAMANTINA; DIAMANTINA-PJ-03PJ 0,00 0,00 0,00 48,00 370,00 0,00 0,00 0,00 0,00 31/08/2023
1203 412500 CLARICE GOMES MAROTTA ANALISTA DO MP BELO HORIZONTE - COMARCA; COORD ESTADUAL DE DEFESA DOS ANIMAIS 1.500,00 0,00 605,00 0,00 0,00 0,00 0,00 0,00 0,00 31/08/2023
1204 605300 CLARISSA AZEVEDO ROCHA OFICIAL DO MP BELO HORIZONTE - COMARCA; BH-16PJ HABITACAO URBANISMO-GAB 117PJ 1.500,00 0,00 605,00 0,00 0,00 0,00 0,00 0,00 408,47 31/08/2023
1205 1387500 CLARISSA DE CARVALHO PATARO ESTAGIARIO PONTE NOVA; PONTE NOVA-PJ-05PJ 0,00 0,00 0,00 252,00 0,00 0,00 0,00 0,00 0,00 31/08/2023
1206 308100 CLARISSA DUARTE BELLONI DIRETOR-GERAL BELO HORIZONTE - COMARCA; DIRETORIA-GERAL 1.500,00 2.850,00 605,00 0,00 0,00 0,00 0,00 0,00 -2.431,36 31/08/2023
1207 730500 CLARISSA FERNANDES ABREU ASSESSOR PROMOTOR JUSTICA SANTOS DUMONT - COMARCA; SANTOS DUMONT-PJ-02PJ 1.500,00 0,00 605,00 0,00 0,00 0,00 0,00 0,00 199,86 31/08/2023
1208 1638300 CLARISSA FREITAS MARTINS ESTAGIARIO TIMOTEO; TIMOTEO-PJ-01PJ 0,00 0,00 0,00 228,00 0,00 0,00 0,00 0,00 0,00 31/08/2023
1209 402100 CLARISSA GOBBO DOS SANTOS PROMOT.ENTRANC.ESPECIAL BELO HORIZONTE - COMARCA; GRUPO ESP PROM JUST DEF PROB ADM PAT PUB 1.500,00 0,00 3.571,05 0,00 47.613,94 0,00 0,00 0,00 545,58 31/08/2023
1210 743200 CLARISSA GODINHO PRATES ASSESSOR ADMINISTRATIVO I GOVERNADOR VALADARES - COMARCA; COOR REG APOIO COM INC MOB VALE DO RIO DOCE 1.500,00 0,00 605,00 0,00 0,00 0,00 0,00 0,00 0,00 31/08/2023
1211 497100 CLARISSA ROCHA GUIDI ANALISTA DO MP BELO HORIZONTE - COMARCA; BH-02PJ FAMILIA-SECRETARIA 1.500,00 1.900,00 605,00 0,00 0,00 0,00 0,00 0,00 0,00 31/08/2023
1212 661600 CLARISSE PEREZ DO NASCIMENTO NASCIF MENDES PROMOTOR 1A ENTRANCIA PIRANGA - COMARCA; PIRANGA-PJ-UNPJ 1.500,00 1.900,00 3.222,87 0,00 26.857,25 0,00 0,00 0,00 492,38 31/08/2023
1213 641800 CLARISSE TAVARES GONCALVES OFICIAL DO MP BELO HORIZONTE - COMARCA; BH-07PJ 01 TRIBUNAL JURI-SECRETARIA 1.500,00 0,00 605,00 0,00 0,00 0,00 0,00 0,00 425,78 31/08/2023
1214 463700 CLAUDIA ADRIANA FERRAO DIAS ANALISTA DO MP SETE LAGOAS - COMARCA; SETE LAGOAS-PJ-06PJ 1.500,00 0,00 605,00 0,00 0,00 0,00 0,00 0,00 771,48 31/08/2023
1215 415400 CLAUDIA ALMEIDA DE VASCONCELLOS BARROS OFICIAL DO MP BELO HORIZONTE - COMARCA; DIVISAO DE SERVICOS 1.500,00 0,00 605,00 0,00 0,00 0,00 0,00 0,00 982,96 31/08/2023
1216 207000 CLAUDIA APARECIDA VILELA MACHADO ANALISTA DO MP BELO HORIZONTE - COMARCA; CENTRAL DE APOIO TECNICO-SETOR CONTABIL 1.500,00 0,00 605,00 0,00 1.384,22 0,00 0,00 0,00 126,89 31/08/2023
1217 314400 CLAUDIA AUGUSTA LOPES DE MENDONCA PROMOT.ENTRANC.ESPECIAL BELO HORIZONTE - COMARCA; BH-09PJ AUDITORIA MILITAR-GAB 074PJ 1.500,00 0,00 3.571,05 0,00 47.613,94 0,00 0,00 0,00 545,58 31/08/2023
1218 365700 CLAUDIA BREGUEZ CUNHA ANALISTA DO MP VARGINHA - COMARCA; VARGINHA-PJ-07PJ 1.500,00 950,00 605,00 0,00 0,00 0,00 0,00 0,00 0,00 31/08/2023
1219 430500 CLAUDIA CECILIA SANTANA VENCESLAU OFICIAL DO MP BELO HORIZONTE - COMARCA; LAB TECNOLOGIA CONTRA LAVAGEM DINHEIRO 1.500,00 0,00 605,00 0,00 0,00 0,00 0,00 0,00 817,66 31/08/2023
1220 1480200 CLAUDIA DE AQUINO ESTAGIARIO BUENOPOLIS; BUENOPOLIS-PJ-UNPJ 0,00 0,00 0,00 252,00 0,00 0,00 0,00 0,00 0,00 31/08/2023
1221 98300 CLAUDIA DE OLIVEIRA IGNEZ PROMOTOR 2A ENTRANCIA NOVA LIMA - COMARCA; NOVA LIMA-PJ-01PJ 1.500,00 950,00 1.970,45 0,00 22.803,93 0,00 0,00 0,00 696,79 31/08/2023
1222 167300 CLAUDIA DO AMARAL XAVIER PROMOT.ENTRANC.ESPECIAL BELO HORIZONTE - COMARCA; BH-18PJ DIREITOS HUMANOS-GAB 125PJ 1.500,00 0,00 2.259,45 0,00 6.638,85 0,00 0,00 0,00 608,56 31/08/2023
1223 163100 CLAUDIA FERREIRA DE SOUZA PROMOT.ENTRANC.ESPECIAL BELO HORIZONTE - COMARCA; BH-02PJ FAMILIA-GAB 035PJ 1.500,00 0,00 1.576,36 0,00 8.016,00 0,00 0,00 0,00 734,80 31/08/2023
1224 174500 CLAUDIA FERREIRA PACHECO DE FREITAS PROMOT.ENTRANC.ESPECIAL BELO HORIZONTE - COMARCA; SECRETARIA-GERAL-GABINETE 1.500,00 0,00 3.571,05 0,00 18.885,89 0,00 0,00 0,00 577,07 31/08/2023
1225 213601 CLAUDIA GONCALVES CALIXTO ASSESSOR PROCURADOR JUSTICA BELO HORIZONTE - COMARCA; PROC. JUSTICA DIR. DIFUSOS E COLETIVOS-SEC 1.500,00 0,00 605,00 0,00 0,00 0,00 0,00 0,00 422,47 31/08/2023
1226 480400 CLAUDIA GOULART DE SOUZA OFICIAL DO MP PASSOS - COMARCA; PASSOS-PJ-06PJ 1.500,00 0,00 605,00 0,00 0,00 0,00 0,00 0,00 0,00 31/08/2023
1227 519800 CLAUDIA HELENA CORREA DE ALMEIDA ANALISTA DO MP BELO HORIZONTE - COMARCA; BH-12PJ JUIZO CRIMINAL-GAB 096PJ 1.500,00 0,00 605,00 0,00 0,00 0,00 0,00 0,00 936,15 31/08/2023
1228 422100 CLAUDIA IACOMINI CABRAL ANALISTA DO MP BELO HORIZONTE - COMARCA; CENT DE APOIO TEC-SETOR DEF,IDOSO E INFANC 1.500,00 0,00 605,00 0,00 0,00 0,00 0,00 0,00 17,82 31/08/2023
1229 258200 CLAUDIA LAGE MICHALAROS ANALISTA DO MP BELO HORIZONTE - COMARCA; CENTRAL DE APOIO TECN-SETOR DE MEIO AMBIENTE 1.500,00 0,00 605,00 0,00 0,00 0,00 0,00 0,00 0,00 31/08/2023
1230 284600 CLAUDIA LENI DE FREITAS OFICIAL DO MP CONTAGEM - COMARCA; CONTAGEM-PJ-SECRETARIA 1.500,00 0,00 605,00 0,00 6.164,45 0,00 0,00 0,00 1.078,71 31/08/2023
1231 175200 CLAUDIA LOPES SILVA SCIOLI PROMOT.ENTRANC.ESPECIAL POUSO ALEGRE - COMARCA; POUSO ALEGRE-PJ-07PJ 1.500,00 0,00 3.179,00 0,00 18.834,36 0,00 0,00 0,00 575,49 31/08/2023
1232 433600 CLAUDIA LUIZA SANTIAGO FELICIO ANALISTA DO MP BELO HORIZONTE - COMARCA; CENT DE APOIO TEC-SETOR DEF,IDOSO E INFANC 1.500,00 0,00 605,00 0,00 6.091,94 0,00 0,00 0,00 576,04 31/08/2023
1233 317000 CLAUDIA MACHADO ALVES OFICIAL DO MP BELO HORIZONTE - COMARCA; DIR GOVERNANCA TECNOLOGIA INFORMACAO 1.500,00 0,00 605,00 0,00 0,00 0,00 0,00 0,00 -3.837,78 31/08/2023
1234 155300 CLAUDIA MACIEL MIRANDA OFICIAL DO MP CONGONHAS - COMARCA; CONGONHAS-PJ-02PJ 1.500,00 0,00 605,00 0,00 6.014,40 0,00 0,00 0,00 551,32 31/08/2023
1235 746300 CLAUDIA MAGDA SANTANA ANALISTA DO MP BELO HORIZONTE - COMARCA; DIRETORIA DE ADMINISTRACAO FINANCEIRA 1.500,00 0,00 605,00 0,00 0,00 0,00 0,00 0,00 0,00 31/08/2023
1236 242200 CLAUDIA MICHELLE DIAS MUNIZ BALEEIRO OFICIAL DO MP MONTE AZUL - COMARCA; MONTE AZUL-PJ-SECRETARIA 1.500,00 0,00 605,00 0,00 0,00 0,00 0,00 0,00 38,63 31/08/2023
1237 236500 CLAUDIA NETO COMELLI PROMOT.ENTRANC.ESPECIAL BELO HORIZONTE - COMARCA; BH-23PJ INFRACIONAL-GAB 039PJ 1.500,00 0,00 3.571,05 0,00 18.834,36 0,00 0,00 0,00 575,49 31/08/2023
1238 623000 CLAUDIA PATRICIA SILVA RODRIGUES RAPOSEIRAS OFICIAL DO MP BELO HORIZONTE - COMARCA; DIVISÃO DE EDUCAÇÃO PARA O CONSUMO 1.500,00 1.900,00 605,00 0,00 0,00 0,00 0,00 0,00 2.789,30 31/08/2023
1239 418400 CLAUDIA REGINA MARTINS BONIFACIO OFICIAL DO MP ITUIUTABA - COMARCA; ITUIUTABA-PJ-06PJ 1.500,00 0,00 605,00 0,00 0,00 0,00 0,00 0,00 597,37 31/08/2023
1240 498300 CLAUDIA SOUTO FARIAS BRAUN OFICIAL DO MP TEÓFILO OTONI - COMARCA; TEOFILO OTONI-PJ-SECRETARIA 1.500,00 0,00 605,00 0,00 0,00 0,00 0,00 0,00 557,85 31/08/2023
1241 79600 CLAUDIA SPRANGER E SILVA LUIZ MOTTA PROCURADOR DE JUSTICA BELO HORIZONTE - COMARCA; GABINETE DE PROCURADOR DE JUSTIÇA - SALA 706 1.500,00 0,00 1.445,00 0,00 19.238,41 0,00 0,00 0,00 734,80 31/08/2023
1242 206500 CLAUDIA VALERIA FONSECA ANDRADE ANALISTA DO MP BELO HORIZONTE - COMARCA; BH-23PJ INF-FISC MED SOC FEC 1.500,00 0,00 605,00 0,00 3.470,82 0,00 0,00 0,00 330,72 31/08/2023
1243 1499800 CLAUDIELLE COSTA DE ARAUJO ESTAGIARIO JEQUITINHONHA; JEQUITINHONHA-PJ-COORD PJ 0,00 0,00 0,00 240,00 0,00 0,00 0,00 0,00 0,00 31/08/2023
1244 277500 CLAUDIO ANTONIO BORGES BRUNSWICK ALVARES OFICIAL DO MP BELO HORIZONTE - COMARCA; BH-15PJ M AMB PAT HIST CULT-GAB 116PJ 1.500,00 0,00 605,00 0,00 0,00 0,00 0,00 0,00 814,37 31/08/2023
1245 444800 CLAUDIO ARESIO DO CARMO ANALISTA DO MP SETE LAGOAS - COMARCA; SETE LAGOAS-PJ-01PJ 1.500,00 0,00 605,00 0,00 0,00 0,00 0,00 0,00 0,00 31/08/2023
1246 532100 CLAUDIO DANIEL FONSECA DE ALMEIDA PROMOTOR 2A ENTRANCIA MARIANA - COMARCA; MARIANA-PJ-02PJ 1.500,00 0,00 2.495,91 0,00 45.233,26 0,00 0,00 0,00 518,30 31/08/2023
1247 76700 CLAUDIO EMANUEL DA CUNHA PROCURADOR DE JUSTICA BELO HORIZONTE - COMARCA; GABINETE DE PROCURADOR DE JUSTICA - SALA 311 1.500,00 0,00 1.576,36 0,00 11.222,40 0,00 0,00 0,00 734,80 31/08/2023
1248 100500 CLAUDIO FERREIRA DE OLIVEIRA FILHO PROMOTOR 2A ENTRANCIA LAMBARI - COMARCA; LAMBARI-PJ-UNPJ 1.500,00 0,00 3.021,36 0,00 23.882,94 0,00 0,00 0,00 729,76 31/08/2023
1249 545100 CLAUDIO HENRIQUE MACEDO DE SOUZA FRANSOZO ANALISTA DO MP OURO PRETO - COMARCA; OURO PRETO-PJ-03PJ 1.500,00 950,00 605,00 0,00 0,00 0,00 0,00 0,00 718,55 31/08/2023
1250 353500 CLAUDIO HENRIQUE PEDRO DA ROCHA OFICIAL DO MP BELO HORIZONTE - COMARCA; DIVISAO TRANSPORTES 1.500,00 0,00 605,00 0,00 0,00 0,00 0,00 0,00 1.005,10 31/08/2023
1251 265800 CLAUDIO KUPIDLOWSKY FERNANDES OFICIAL DO MP BELO HORIZONTE - COMARCA; SECRETARIA DO PROCON-MG 1.500,00 0,00 605,00 0,00 0,00 0,00 0,00 0,00 0,00 31/08/2023
1252 193600 CLAUDIO LEITE FONTES OFICIAL DO MP ITUIUTABA - COMARCA; ITUIUTABA-PJ-02PJ 1.500,00 1.900,00 605,00 0,00 0,00 0,00 0,00 0,00 40,73 31/08/2023
1253 102000 CLAUDIO LUIZ GONCALVES MARINS PROMOTOR 2A ENTRANCIA GUAXUPÉ - COMARCA; GUAXUPE-PJ-03PJ 1.500,00 0,00 3.392,49 0,00 23.882,94 0,00 0,00 0,00 729,76 31/08/2023
1254 163200 CLAUDIO MAIA DE BARROS PROMOT.ENTRANC.ESPECIAL BELO HORIZONTE - COMARCA; COORD EST PJ TRIBUNAL JURI 1.500,00 0,00 3.310,36 0,00 26.555,40 0,00 0,00 0,00 608,56 31/08/2023
1255 329400 CLAUDIO MARCIO BERNARDES OFICIAL DO MP ITAÚNA - COMARCA; ITAUNA-PJ-03PJ 1.500,00 950,00 605,00 0,00 0,00 0,00 0,00 0,00 0,00 31/08/2023
1256 270200 CLAUDIO RABELO ALVES OFICIAL DO MP FORMIGA - COMARCA; FORMIGA-PJ-03PJ 1.500,00 0,00 605,00 0,00 0,00 0,00 0,00 0,00 43,88 31/08/2023
1257 264700 CLAUDIO ROBERTO KFURI DE ARAUJO ANALISTA DO MP BELO HORIZONTE - COMARCA; CENTRAL DE APOIO TECNICO-SETOR DE INFORMATICA 1.500,00 0,00 605,00 0,00 0,00 0,00 0,00 0,00 2.307,03 31/08/2023
1258 543300 CLAUDIO SILVA DE CARVALHO ANALISTA DO MP CAMPO BELO - COMARCA; CAMPO BELO-PJ-03PJ 1.500,00 0,00 605,00 0,00 0,00 0,00 0,00 0,00 681,47 31/08/2023
1259 144300 CLAUDIO VARELLA DE SOUZA PROCURADOR DE JUSTICA BELO HORIZONTE - COMARCA; GABINETE DE PROCURADOR DE JUSTIÇA - SALA 712 1.500,00 0,00 1.445,00 0,00 24.048,01 0,00 0,00 0,00 734,80 31/08/2023
1260 160700 CLAUDIO VICENTE HESS ASSESSOR DE GABINETE I BELO HORIZONTE - COMARCA; CENTRAL DE APOIO TECNICO-SETOR DE INFORMATICA 1.500,00 0,00 605,00 0,00 0,00 0,00 0,00 0,00 0,00 31/08/2023
1261 312900 CLAUDIO VIEIRA FIRPE OFICIAL DO MP BELO HORIZONTE - COMARCA; DIR RELACOES INSTITUCIONAIS 1.500,00 0,00 605,00 0,00 0,00 0,00 0,00 0,00 1.007,18 31/08/2023
1262 634100 CLEA CRISTINA GUERRA DE FREITAS COSTA OFICIAL DO MP BELO HORIZONTE - COMARCA; BH-18PJ VIOLENCIA DOMESTICA-SECRETARIA 1.500,00 0,00 605,00 0,00 1.919,30 0,00 0,00 0,00 610,43 31/08/2023
1263 244800 CLEBER AUGUSTO DO NASCIMENTO PROMOTOR 2A ENTRANCIA CAMPO BELO - COMARCA; CAMPO BELO-PJ-04PJ 1.500,00 0,00 3.392,49 0,00 45.233,25 0,00 0,00 0,00 518,30 31/08/2023
1264 439000 CLEBER COUTO PROMOT.ENTRANC.ESPECIAL PATOS DE MINAS - COMARCA; GAECO REGIONAL DE PATOS DE MINAS 1.500,00 950,00 3.571,05 0,00 47.613,95 0,00 0,00 0,00 545,58 31/08/2023
1265 459200 CLEIA ZILLE PEREIRA ANALISTA DO MP BELO HORIZONTE - COMARCA; BH-07PJ 01 TRIBUNAL DO JURI-GAB 059PJ 1.500,00 1.425,00 605,00 0,00 0,00 0,00 0,00 0,00 866,06 31/08/2023
1266 481800 CLEIDE CARDOSO DA SILVA ANALISTA DO MP MANHUAÇU - COMARCA; MANHUACU-PJ-04PJ 1.500,00 0,00 605,00 0,00 0,00 0,00 0,00 0,00 713,23 31/08/2023
1267 225000 CLEIDE PEREIRA DA SILVA PROMOT.ENTRANC.ESPECIAL BELO HORIZONTE - COMARCA; BH-09PJ AUDITORIA MILITAR-GAB 161PJ 1.500,00 0,00 1.315,23 0,00 0,00 0,00 0,00 0,00 0,00 31/08/2023
1268 347600 CLEIDIMAR DE OLIVEIRA SILVA OFICIAL DO MP PATOS DE MINAS - COMARCA; PATOS DE MINAS-PJ-03PJ 1.500,00 0,00 605,00 0,00 0,00 0,00 0,00 0,00 45,26 31/08/2023
1269 396500 CLEIDISON BATISTA DE ANDRADE OFICIAL DO MP RESPLENDOR - COMARCA; RESPLENDOR-PJ-UNPJ 1.500,00 0,00 605,00 0,00 0,00 0,00 0,00 0,00 834,69 31/08/2023
1270 535100 CLEISON ALVES DA SILVA ANALISTA DO MP BOA ESPERANÇA - COMARCA; BOA ESPERANCA-PJ-01PJ 1.500,00 0,00 605,00 0,00 0,00 0,00 0,00 0,00 809,55 31/08/2023
1271 298100 CLEONICE AUGUSTA BARROS DE OLIVEIRA ANALISTA DO MP JUIZ DE FORA - COMARCA; JUIZ DE FORA-PJ-08PJ 1.500,00 0,00 605,00 0,00 0,00 0,00 0,00 0,00 0,00 31/08/2023
1272 114301 CLERES PEREIRA DA SILVA JUNIOR ASSESSOR ADMINISTRATIVO I BELO HORIZONTE - COMARCA; GAECO - SECRETARIA 1.500,00 0,00 605,00 0,00 0,00 0,00 0,00 0,00 14,27 31/08/2023
1273 264100 CLETO HENRIQUE ANDRADE SILVA ANALISTA DO MP BELO HORIZONTE - COMARCA; DIRETORIA DE SISTEMAS DE INFORMACAO 1.500,00 0,00 605,00 0,00 5.167,75 0,00 0,00 0,00 473,71 31/08/2023
1274 334400 CLEUBA DE OLIVEIRA BARCELOS GONCALVES OFICIAL DO MP DIVINÓPOLIS - COMARCA; COORD REG SAUDE MACRORREGIAO SANITARIA OESTE 1.500,00 0,00 605,00 0,00 0,00 0,00 0,00 3.689,20 993,57 31/08/2023
1275 347500 CLEUSA CORDEIRO DA MATA PIMENTA OFICIAL DO MP CAMPO BELO - COMARCA; CAMPO BELO-PJ-01PJ 1.500,00 0,00 605,00 0,00 0,00 0,00 0,00 0,00 123,38 31/08/2023
1276 1534600 CLEVERSON CHRISTIAN GOMES DE SOUZA ESTAGIARIO BELO HORIZONTE; BH-18PJ VIOLENCIA DOMESTICA-GAB 007PJ 0,00 0,00 0,00 228,00 0,00 0,00 0,00 0,00 0,00 31/08/2023
1277 92400 CLEVERSON RAYMUNDO SBARZI GUEDES PROMOT.ENTRANC.ESPECIAL JUIZ DE FORA - COMARCA; JUIZ DE FORA-PJ-07PJ 1.500,00 0,00 3.571,05 0,00 24.048,01 0,00 0,00 0,00 734,80 31/08/2023
1278 675000 CLEVERTON FRANCISCO GONCALVES DA SILVA CAPITAO 1.500,00 0,00 0,00 0,00 0,00 0,00 0,00 0,00 0,00 31/08/2023
1279 510200 CLEZIO SALES SILVA OFICIAL DO MP BRASÓPOLIS - COMARCA; BRASOPOLIS-PJ-UNPJ 1.500,00 950,00 605,00 0,00 0,00 0,00 0,00 0,00 557,85 31/08/2023
1280 1514200 CLICIA LAIANE DE ASSIS BENTO ESTAGIARIO ERVALIA; ERVALIA-PJ-UNPJ 0,00 0,00 0,00 252,00 0,00 0,00 0,00 0,00 0,00 31/08/2023
1281 323000 CLOTILDE DE PADUA VIEIRA OFICIAL DO MP BELO HORIZONTE - COMARCA; BH-19PJ SAUDE-SECRETARIA 129PJ 1.500,00 0,00 605,00 0,00 0,00 0,00 0,00 0,00 0,00 31/08/2023
1282 285200 CLOVIS ANDRE LUDTKE OFICIAL DO MP BELO HORIZONTE - COMARCA; DIVISAO DE MANUTENCAO PREDIAL 1.500,00 0,00 605,00 0,00 0,00 0,00 0,00 0,00 61,08 31/08/2023
1283 381100 CONCEICAO APARECIDA TEIXEIRA ARANTES ANALISTA DO MP BELO HORIZONTE - COMARCA; BH-23PJ INFRACIONAL-ASS JURIDICA 1.500,00 950,00 605,00 0,00 0,00 0,00 0,00 0,00 2.540,49 31/08/2023
1284 249900 CONSTANTINO CEZAR GOMES MOTA OFICIAL DO MP MONTES CLAROS - COMARCA; COORD REG BACIA RIOS VERDE GRANDE E PARDO 1.500,00 1.900,00 605,00 0,00 0,00 0,00 0,00 0,00 0,00 31/08/2023
1285 594800 COSME COELHO TEIXEIRA 2O. SARGENTO BELO HORIZONTE - COMARCA; NUCLEO DE CONTRAINTELIGENCIA 1.500,00 0,00 0,00 0,00 0,00 0,00 0,00 0,00 0,00 31/08/2023
1286 481000 CRISHMA ANALIA LOMBELLO ANALISTA DO MP JUIZ DE FORA - COMARCA; JUIZ DE FORA-PJ-13PJ 1.500,00 0,00 605,00 0,00 0,00 0,00 0,00 0,00 732,49 31/08/2023
1287 1399300 CRISLAYNE SOUZA MELO ESTAGIARIO ARAGUARI; ARAGUARI-PJ-07PJ 0,00 0,00 0,00 228,00 0,00 0,00 0,00 0,00 0,00 31/08/2023
1288 523900 CRISTHYANE BAZOLI COSTA GUEDES COUTO OFICIAL DO MP BELO HORIZONTE - COMARCA; BH-04PJ JUIZO REG PÚBLICOS-SECRETARIA 1.500,00 0,00 605,00 0,00 0,00 0,00 0,00 0,00 707,35 31/08/2023
1289 187000 CRISTIAN DAYVSON EVANGELISTA OFICIAL DO MP JUIZ DE FORA - COMARCA; JUIZ DE FORA-PJ-13PJ 1.500,00 0,00 605,00 0,00 0,00 0,00 1.771,66 0,00 0,00 31/08/2023
1290 245000 CRISTIAN LUCIO DA SILVA PROMOT.ENTRANC.ESPECIAL BELO HORIZONTE - COMARCA; BH-07PJ 03 TRIBUNAL DO JURI-GAB 064PJ 1.500,00 0,00 3.571,05 0,00 53.565,69 0,00 0,00 0,00 545,58 31/08/2023
1291 682100 CRISTIAN TRISTAO DE ANDRADE ASSESSOR PROMOTOR JUSTICA TRÊS CORACOES - COMARCA; TRES CORACOES-PJ-04PJ 1.500,00 0,00 605,00 0,00 0,00 0,00 0,00 0,00 472,63 31/08/2023
1292 319800 CRISTIANA GONCALVES DOS SANTOS GUSMAO OFICIAL DO MP SETE LAGOAS - COMARCA; SETE LAGOAS-PJ-04PJ 1.500,00 0,00 605,00 0,00 3.851,21 0,00 0,00 0,00 1.146,47 31/08/2023
1293 520600 CRISTIANA JANAINA BARBOZA JUVENCIO DOS SANTOS ANALISTA DO MP BELO HORIZONTE - COMARCA; BH-02PJ FAMILIA-SECRETARIA 1.500,00 0,00 605,00 0,00 0,00 0,00 0,00 0,00 917,17 31/08/2023
1294 195600 CRISTIANA SOARES HALABI OFICIAL DO MP UBERABA - COMARCA; UBERABA-PJ-01PJ 1.500,00 0,00 605,00 0,00 0,00 0,00 0,00 0,00 0,00 31/08/2023
1295 218900 CRISTIANE ALVES BELLES OFICIAL DO MP JUIZ DE FORA - COMARCA; JUIZ DE FORA-PJ-10PJ 1.500,00 1.425,00 605,00 0,00 0,00 0,00 0,00 0,00 666,53 31/08/2023
1296 1449100 CRISTIANE APARECIDA CALDEIRA SILVA ESTAGIARIO CONTAGEM; CONTAGEM-PJ-09PJ 0,00 0,00 0,00 252,00 0,00 0,00 0,00 0,00 0,00 31/08/2023
1297 291600 CRISTIANE CAMPOS AMORIM BARONY PROMOTOR 2A ENTRANCIA CARANGOLA - COMARCA; CARANGOLA-PJ-03PJ 1.500,00 0,00 3.392,49 0,00 45.233,25 0,00 0,00 0,00 518,30 31/08/2023
1298 263600 CRISTIANE CARVALHO COUTINHO OFICIAL DO MP BELO HORIZONTE - COMARCA; BH-23PJ INFRACIONAL-SEC EXP 1.500,00 0,00 605,00 0,00 0,00 0,00 0,00 0,00 0,00 31/08/2023
1299 541000 CRISTIANE COELHO ALVES OFICIAL DO MP ITABIRA - COMARCA; ITABIRA-PJ-03PJ 1.500,00 0,00 605,00 0,00 0,00 0,00 0,00 0,00 567,14 31/08/2023
1300 441700 CRISTIANE CORRADO DE ANDRADE ANALISTA DO MP BELO HORIZONTE - COMARCA; DIRETORIA DE SISTEMAS DE INFORMACAO 1.500,00 0,00 605,00 0,00 0,00 0,00 0,00 0,00 15,09 31/08/2023
1301 375100 CRISTIANE DAS DORES ERCIO DE LIMA OFICIAL DO MP GOVERNADOR VALADARES - COMARCA; GOVERNADOR VALADARES-PJ-12PJ 1.500,00 0,00 605,00 0,00 0,00 0,00 0,00 0,00 0,00 31/08/2023
1302 178800 CRISTIANE DE LIMA HOSKEN OFICIAL DO MP BELO HORIZONTE - COMARCA; BH-14PJ DEFESA CONSUMIDOR-GAB 110PJ 1.500,00 0,00 605,00 0,00 0,00 0,00 0,00 0,00 0,00 31/08/2023
1303 494000 CRISTIANE DE MELO MARQUEZ OLIVEIRA ANALISTA DO MP UBERLÂNDIA - COMARCA; UBERLANDIA-PJ-06PJ 1.500,00 950,00 605,00 0,00 0,00 0,00 0,00 0,00 0,00 31/08/2023
1304 266100 CRISTIANE DE OLIVEIRA CASTRO OFICIAL DO MP BELO HORIZONTE - COMARCA; BH-14PJ DEFESA CONSUMIDOR-SECRETARIA 1.500,00 0,00 605,00 0,00 0,00 0,00 1.771,66 0,00 0,00 31/08/2023
1305 329500 CRISTIANE DOS REIS SILVA OFICIAL DO MP ARAXÁ - COMARCA; ARAXA-PJ-04PJ 1.500,00 0,00 605,00 0,00 0,00 0,00 0,00 0,00 905,30 31/08/2023
1306 301600 CRISTIANE GODINHO PIRES ANALISTA DO MP BETIM - COMARCA; BETIM-PJ-06PJ 1.500,00 0,00 605,00 0,00 0,00 0,00 0,00 0,00 0,00 31/08/2023
1307 406100 CRISTIANE GONCALVES CHAVES ANALISTA DO MP BELO HORIZONTE - COMARCA; BH-06PJ JUIZO CIVEL-SECRETARIA 1.500,00 0,00 605,00 0,00 0,00 0,00 0,00 0,00 0,00 31/08/2023
1308 487600 CRISTIANE LOPES DE OLIVEIRA OFICIAL DO MP DIVINÓPOLIS - COMARCA; DIVINOPOLIS-PJ-03PJ 1.500,00 0,00 605,00 0,00 0,00 0,00 0,00 0,00 786,79 31/08/2023
1309 502500 CRISTIANE MACIEL DE OLIVEIRA GOMES ANALISTA DO MP JUIZ DE FORA - COMARCA; JUIZ DE FORA-PJ-02PJ 1.500,00 950,00 605,00 0,00 0,00 0,00 0,00 0,00 917,17 31/08/2023
1310 285500 CRISTIANE MAGALHAES LOURENCO ANALISTA DO MP BELO HORIZONTE - COMARCA; CENTRAL DE APOIO TECNICO-SETOR CONTABIL 1.500,00 0,00 605,00 0,00 0,00 0,00 0,00 0,00 0,00 31/08/2023
1311 536500 CRISTIANE MICHELE DE SOUZA ANALISTA DO MP BARÃO DE COCAIS - COMARCA; BARAO DE COCAIS-PJ-UNPJ 1.500,00 0,00 605,00 0,00 0,00 0,00 0,00 0,00 727,85 31/08/2023
1312 346600 CRISTIANE NOGUEIRA ANDRADE ANALISTA DO MP BELO HORIZONTE - COMARCA; CENTRAL DE APOIO TECNICO-SETOR CONTABIL 1.500,00 0,00 605,00 0,00 0,00 <